[[{"header":{"parameterUnit":"m.s-1","parameterCategory":1,"la1":30.6,"la2":29.2853,"lo1":-89.7004,"lo2":-87.6739,"dy":0.0162,"dx":0.0183,"nx":112,"ny":82,"refTime":"2026-04-30T00:00:00:Z","depth":0,"parameterNumber":2,"parameterNumberName":"U-component_of_WINDS"},"data":[0.0,0.0,0.0,0.0,0.0,0.0,0.0,0.0,0.0,0.0,0.0,0.0,0.0,0.0,0.0,0.0,0.0,0.0,0.0,0.0,0.0,0.0,0.0,0.0,0.0,0.0,0.0,0.0,0.0,0.0,0.0,0.0,0.0,0.0,0.0,0.0,0.0,0.0,0.0,0.0,0.0,0.0,0.0,0.0,0.0,0.0,0.0,0.0,0.0,0.0,0.0,0.0,0.0,0.0,0.0,0.0,0.0,0.0,0.0,0.0,0.0,0.0,0.0,0.0,0.0,0.0,0.0,0.0,0.0,0.0,0.0,0.0,0.0,0.0,0.0,0.0,0.0,0.0,0.0,0.0,0.0,0.0,0.0,0.0,0.0,0.0,0.0,0.0,0.0,0.0,-1.4736,-1.537,-1.7602,-1.9207,-1.9639,-1.969,-1.893,-1.7127,0.0,0.0,0.0,0.0,0.0,0.0,0.0,0.0,0.0,0.0,0.0,0.0,0.0,0.0,0.0,0.0,0.0,0.0,0.0,0.0,0.0,0.0,0.0,0.0,0.0,0.0,0.0,0.0,0.0,0.0,0.0,0.0,0.0,0.0,0.0,0.0,0.0,0.0,0.0,0.0,0.0,0.0,0.0,0.0,0.0,0.0,0.0,0.0,0.0,0.0,0.0,0.0,0.0,0.0,0.0,0.0,0.0,0.0,0.0,0.0,0.0,0.0,0.0,0.0,0.0,0.0,0.0,0.0,0.0,0.0,0.0,0.0,0.0,0.0,0.0,0.0,0.0,0.0,0.0,0.0,0.0,0.0,0.0,0.0,0.0,0.0,0.0,0.0,0.0,0.0,0.0,0.0,0.0,0.0,0.0,0.0,0.0,0.0,0.0,0.0,0.0,0.0,0.0,0.0,-1.4685,-1.7939,-1.9068,-1.9603,-1.969,-1.969,-1.8809,-1.6733,0.0,0.0,0.0,0.0,0.0,0.0,0.0,0.0,0.0,0.0,0.0,0.0,0.0,0.0,0.0,0.0,0.0,0.0,0.0,0.0,0.0,0.0,0.0,0.0,0.0,0.0,0.0,0.0,0.0,0.0,0.0,0.0,0.0,0.0,0.0,0.0,0.0,0.0,0.0,0.0,0.0,0.0,0.0,0.0,0.0,0.0,0.0,0.0,0.0,0.0,0.0,0.0,0.0,0.0,0.0,0.0,0.0,0.0,0.0,0.0,0.0,0.0,0.0,0.0,0.0,0.0,0.0,0.0,0.0,0.0,0.0,0.0,0.0,0.0,0.0,0.0,0.0,0.0,0.0,0.0,0.0,0.0,0.0,0.0,0.0,0.0,0.0,0.0,0.0,0.0,0.0,0.0,0.0,0.0,0.0,0.0,0.0,0.0,0.0,0.0,0.0,0.0,0.0,-1.4239,-1.5947,-1.9016,-1.9566,-1.969,-1.969,-1.969,-1.8895,-1.6955,-1.538,0.0,0.0,0.0,0.0,0.0,0.0,0.0,0.0,0.0,0.0,0.0,0.0,0.0,0.0,0.0,0.0,0.0,0.0,0.0,0.0,0.0,0.0,0.0,0.0,0.0,0.0,0.0,0.0,0.0,0.0,0.0,0.0,0.0,0.0,0.0,0.0,0.0,0.0,0.0,0.0,0.0,0.0,0.0,0.0,0.0,0.0,0.0,0.0,0.0,0.0,0.0,0.0,0.0,0.0,0.0,0.0,0.0,0.0,0.0,0.0,0.0,0.0,0.0,0.0,0.0,0.0,0.0,0.0,0.0,0.0,0.0,0.0,0.0,0.0,0.0,0.0,0.0,0.0,0.0,0.0,0.0,0.0,0.0,0.0,0.0,0.0,0.0,0.0,0.0,0.0,0.0,0.0,0.0,0.0,0.0,0.0,0.0,0.0,0.0,0.0,0.0,0.0,-1.6594,-1.7651,-1.9489,-1.969,-1.969,-1.969,-1.954,-1.8767,-1.7044,-1.505,0.0,0.0,0.0,0.0,0.0,0.0,0.0,0.0,0.0,0.0,0.0,0.0,0.0,0.0,0.0,0.0,0.0,0.0,0.0,0.0,0.0,0.0,0.0,0.0,0.0,0.0,0.0,0.0,0.0,0.0,0.0,0.0,0.0,0.0,0.0,0.0,0.0,0.0,0.0,0.0,0.0,0.0,0.0,0.0,0.0,0.0,0.0,0.0,0.0,0.0,0.0,0.0,0.0,0.0,0.0,0.0,0.0,0.0,0.0,0.0,0.0,0.0,0.0,0.0,0.0,0.0,0.0,0.0,0.0,0.0,0.0,0.0,0.0,0.0,0.0,0.0,0.0,0.0,0.0,0.0,0.0,0.0,0.0,0.0,0.0,0.0,0.0,0.0,0.0,0.0,0.0,0.0,0.0,0.0,0.0,0.0,0.0,0.0,0.0,0.0,0.0,0.0,-1.7568,-1.9489,-1.9675,-1.969,-1.969,-1.969,-1.9121,-1.814,-1.6635,-1.4208,0.0,0.0,0.0,0.0,0.0,0.0,0.0,0.0,0.0,0.0,0.0,0.0,0.0,0.0,0.0,0.0,0.0,0.0,0.0,0.0,0.0,0.0,0.0,0.0,0.0,0.0,0.0,0.0,0.0,0.0,0.0,0.0,0.0,0.0,0.0,0.0,0.0,0.0,0.0,0.0,0.0,0.0,0.0,0.0,0.0,0.0,0.0,0.0,0.0,0.0,0.0,0.0,0.0,0.0,0.0,0.0,0.0,0.0,0.0,0.0,0.0,0.0,0.0,0.0,0.0,0.0,0.0,0.0,0.0,0.0,0.0,0.0,0.0,0.0,0.0,0.0,0.0,0.0,0.0,0.0,0.0,0.0,0.0,0.0,0.0,0.0,0.0,0.0,0.0,0.0,0.0,0.0,0.0,0.0,0.0,0.0,0.0,0.0,0.0,0.0,0.0,0.0,-1.6646,-1.8399,0.0,-1.969,-1.969,-1.969,-1.945,-1.8523,-1.6614,0.0,0.0,0.0,0.0,0.0,0.0,0.0,0.0,0.0,0.0,0.0,0.0,0.0,0.0,0.0,0.0,0.0,0.0,0.0,0.0,0.0,0.0,0.0,0.0,0.0,0.0,0.0,0.0,0.0,0.0,0.0,0.0,0.0,0.0,0.0,0.0,0.0,0.0,0.0,0.0,0.0,0.0,0.0,0.0,0.0,0.0,0.0,0.0,0.0,0.0,0.0,0.0,0.0,0.0,0.0,0.0,0.0,0.0,0.0,0.0,0.0,0.0,0.0,0.0,0.0,0.0,0.0,0.0,0.0,0.0,0.0,0.0,0.0,0.0,0.0,0.0,0.0,0.0,0.0,0.0,0.0,0.0,0.0,0.0,0.0,0.0,0.0,0.0,0.0,0.0,0.0,0.0,0.0,0.0,0.0,0.0,0.0,0.0,0.0,0.0,0.0,0.0,-1.4163,-1.6491,-1.8332,0.0,-1.993,-2.0019,-2.0019,-1.9615,-1.8479,-1.6333,0.0,0.0,0.0,0.0,0.0,0.0,0.0,0.0,0.0,0.0,0.0,0.0,0.0,0.0,0.0,0.0,0.0,0.0,0.0,0.0,0.0,0.0,0.0,0.0,0.0,0.0,0.0,0.0,0.0,0.0,0.0,0.0,0.0,0.0,0.0,0.0,0.0,0.0,0.0,0.0,0.0,0.0,0.0,0.0,0.0,0.0,0.0,0.0,0.0,0.0,0.0,0.0,0.0,0.0,0.0,0.0,0.0,0.0,0.0,0.0,0.0,0.0,0.0,0.0,0.0,0.0,0.0,0.0,0.0,0.0,0.0,0.0,0.0,0.0,0.0,0.0,0.0,0.0,0.0,0.0,0.0,0.0,0.0,0.0,0.0,0.0,0.0,0.0,0.0,0.0,0.0,0.0,0.0,0.0,0.0,0.0,0.0,0.0,0.0,0.0,0.0,0.0,-1.3807,-1.7464,-1.9886,-1.9886,-2.0386,-2.0722,-2.0722,-1.9495,-1.7831,0.0,0.0,0.0,0.0,0.0,0.0,0.0,0.0,0.0,0.0,0.0,0.0,0.0,0.0,0.0,0.0,0.0,0.0,0.0,0.0,0.0,0.0,0.0,0.0,0.0,0.0,0.0,0.0,0.0,0.0,0.0,0.0,0.0,0.0,0.0,0.0,0.0,0.0,0.0,0.0,0.0,0.0,0.0,0.0,0.0,0.0,0.0,0.0,0.0,0.0,0.0,0.0,0.0,0.0,0.0,0.0,0.0,0.0,0.0,0.0,0.0,0.0,0.0,0.0,0.0,0.0,0.0,0.0,0.0,0.0,0.0,0.0,0.0,0.0,0.0,0.0,0.0,0.0,0.0,0.0,0.0,0.0,0.0,0.0,0.0,0.0,0.0,0.0,0.0,0.0,0.0,0.0,0.0,0.0,0.0,0.0,0.0,0.0,0.0,0.0,0.0,0.0,0.0,-1.3421,-1.6975,-1.9482,-1.9846,-2.0784,-2.1216,-2.0752,-2.0348,-1.8924,-1.6135,0.0,0.0,0.0,0.0,0.0,0.0,0.0,0.0,0.0,0.0,0.0,0.0,0.0,0.0,0.0,0.0,0.0,0.0,0.0,0.0,0.0,0.0,0.0,0.0,0.0,0.0,0.0,0.0,0.0,0.0,0.0,0.0,0.0,0.0,0.0,0.0,0.0,0.0,0.0,0.0,0.0,0.0,0.0,0.0,0.0,0.0,0.0,0.0,0.0,0.0,0.0,0.0,0.0,0.0,0.0,0.0,0.0,0.0,0.0,0.0,0.0,0.0,0.0,0.0,0.0,0.0,0.0,0.0,0.0,0.0,0.0,0.0,0.0,0.0,0.0,0.0,0.0,0.0,0.0,0.0,0.0,0.0,0.0,0.0,0.0,0.0,0.0,0.0,0.0,0.0,0.0,0.0,0.0,0.0,0.0,0.0,0.0,0.0,0.0,0.0,0.0,0.0,-1.4145,-1.7559,-2.0032,-2.0647,-2.1547,-2.1814,-2.1156,-2.0857,-1.9426,-1.6372,0.0,0.0,0.0,0.0,0.0,0.0,0.0,0.0,0.0,0.0,0.0,0.0,0.0,0.0,0.0,0.0,0.0,0.0,0.0,0.0,0.0,0.0,0.0,0.0,0.0,0.0,0.0,0.0,0.0,0.0,0.0,0.0,0.0,0.0,0.0,0.0,0.0,0.0,0.0,0.0,0.0,0.0,0.0,0.0,0.0,0.0,0.0,0.0,0.0,0.0,0.0,0.0,0.0,0.0,0.0,0.0,0.0,0.0,0.0,0.0,0.0,0.0,0.0,0.0,0.0,0.0,0.0,0.0,0.0,0.0,0.0,0.0,0.0,0.0,0.0,0.0,0.0,0.0,0.0,0.0,0.0,0.0,0.0,0.0,0.0,0.0,0.0,0.0,0.0,0.0,0.0,0.0,0.0,0.0,0.0,0.0,0.0,0.0,0.0,0.0,0.0,0.0,-1.5389,-1.8756,-2.1151,-2.183,-2.2446,-2.2503,-2.1844,-2.1186,-1.9581,-1.6708,0.0,0.0,0.0,0.0,0.0,0.0,0.0,0.0,0.0,0.0,0.0,0.0,0.0,0.0,0.0,0.0,0.0,0.0,0.0,0.0,0.0,0.0,0.0,0.0,0.0,0.0,0.0,0.0,0.0,0.0,0.0,0.0,0.0,0.0,0.0,0.0,0.0,0.0,0.0,0.0,0.0,0.0,0.0,0.0,0.0,0.0,0.0,0.0,0.0,0.0,0.0,0.0,0.0,0.0,0.0,0.0,0.0,0.0,0.0,0.0,-1.5538,-1.4023,0.0,0.0,0.0,0.0,0.0,0.0,0.0,0.0,0.0,0.0,0.0,0.0,0.0,0.0,0.0,0.0,0.0,0.0,0.0,0.0,0.0,0.0,0.0,0.0,0.0,0.0,0.0,0.0,0.0,0.0,0.0,0.0,0.0,0.0,0.0,0.0,0.0,0.0,0.0,0.0,-1.5136,-1.8623,-2.1151,-2.183,-2.2787,-2.3146,-2.2559,-2.1859,-2.0535,-1.835,-1.6273,0.0,0.0,0.0,0.0,0.0,0.0,0.0,0.0,0.0,0.0,0.0,0.0,0.0,0.0,0.0,0.0,0.0,0.0,0.0,0.0,0.0,0.0,0.0,0.0,0.0,0.0,0.0,0.0,0.0,0.0,0.0,0.0,0.0,0.0,0.0,0.0,0.0,0.0,0.0,0.0,0.0,0.0,0.0,0.0,0.0,0.0,0.0,0.0,0.0,0.0,0.0,0.0,0.0,0.0,0.0,0.0,0.0,0.0,0.0,0.0,-1.7934,0.0,0.0,0.0,0.0,0.0,0.0,0.0,0.0,0.0,0.0,0.0,0.0,0.0,0.0,0.0,0.0,0.0,0.0,0.0,0.0,0.0,0.0,0.0,0.0,0.0,0.0,0.0,0.0,0.0,0.0,0.0,0.0,0.0,0.0,0.0,0.0,0.0,0.0,0.0,0.0,-1.7198,-1.976,-2.1765,-2.2978,-2.361,-2.3732,-2.3092,-2.2971,-2.1929,-1.9604,-1.8315,0.0,0.0,0.0,0.0,0.0,0.0,0.0,0.0,0.0,0.0,0.0,0.0,0.0,0.0,0.0,0.0,0.0,0.0,0.0,0.0,0.0,0.0,0.0,0.0,0.0,0.0,0.0,0.0,0.0,0.0,0.0,0.0,0.0,0.0,0.0,0.0,0.0,0.0,0.0,0.0,0.0,0.0,0.0,0.0,0.0,0.0,0.0,0.0,0.0,0.0,0.0,0.0,0.0,-2.2524,-2.3422,-2.4066,-2.4563,-2.5719,-2.7178,-2.4197,-2.2876,-2.2661,-2.0821,0.0,0.0,0.0,0.0,0.0,0.0,0.0,0.0,0.0,0.0,0.0,0.0,0.0,0.0,0.0,0.0,0.0,0.0,0.0,0.0,0.0,0.0,0.0,0.0,-2.1531,-2.0609,-1.7331,0.0,0.0,0.0,0.0,0.0,0.0,0.0,0.0,0.0,0.0,0.0,-1.9595,-2.1193,-2.2561,-2.4102,-2.4348,-2.4157,-2.3639,-2.3853,-2.3111,-2.0917,-2.0464,-1.9364,0.0,0.0,0.0,0.0,0.0,0.0,0.0,0.0,0.0,0.0,0.0,0.0,0.0,0.0,0.0,0.0,0.0,0.0,0.0,0.0,0.0,0.0,0.0,0.0,0.0,0.0,0.0,0.0,0.0,0.0,0.0,0.0,-1.0754,-1.176,0.0,0.0,0.0,0.0,0.0,0.0,0.0,0.0,0.0,0.0,0.0,0.0,0.0,-2.1142,-2.349,-2.4941,-2.5963,-2.6535,-2.7881,-2.885,-2.9386,-2.9469,-3.0236,-3.1486,-3.1021,0.0,-2.636,-2.4518,0.0,0.0,0.0,0.0,0.0,0.0,0.0,0.0,0.0,0.0,0.0,0.0,0.0,0.0,0.0,0.0,0.0,0.0,0.0,0.0,0.0,0.0,-2.443,-2.4718,-2.4804,-2.4639,0.0,-2.0334,-1.6833,-1.6211,-1.4825,-1.36,0.0,0.0,0.0,0.0,0.0,0.0,-1.9827,-2.1892,-2.3314,-2.3676,-2.4116,-2.4343,-2.4265,-2.3787,-2.3277,-2.2773,-2.1632,-2.054,-1.9581,-1.8294,0.0,0.0,0.0,0.0,0.0,0.0,0.0,0.0,0.0,0.0,0.0,0.0,0.0,0.0,0.0,0.0,0.0,0.0,0.0,0.0,0.0,0.0,0.0,0.0,0.0,0.0,0.0,0.0,0.0,-0.9976,-1.2312,-1.3613,-1.3769,-1.3875,0.0,0.0,0.0,0.0,0.0,0.0,0.0,0.0,0.0,-2.2399,-2.3802,-2.5392,-2.7257,-2.8303,-2.9155,-2.9704,-3.038,-3.1045,-3.171,-3.2027,-3.2956,-3.4359,-3.4705,-3.3963,-3.2362,-2.9185,-2.6983,-2.5578,0.0,0.0,0.0,0.0,-2.5112,-2.5528,-2.6236,-2.6195,-2.5651,-2.4543,0.0,0.0,0.0,0.0,0.0,0.0,0.0,-2.316,0.0,0.0,-2.6663,-2.7105,-2.6909,-2.654,-2.6168,-2.3866,-2.1584,0.0,-1.9412,-1.8068,-1.6382,0.0,0.0,0.0,0.0,-1.8943,-2.1611,-2.2816,-2.367,-2.4433,-2.4697,-2.4855,-2.4855,-2.4856,-2.4636,-2.4083,-2.3407,-2.2673,-2.193,-2.0332,-1.8985,0.0,0.0,0.0,0.0,0.0,0.0,0.0,0.0,0.0,0.0,0.0,0.0,0.0,0.0,0.0,0.0,0.0,0.0,0.0,0.0,0.0,0.0,0.0,0.0,0.0,0.0,0.0,0.0,-1.1622,-1.3907,-1.5278,-1.5825,-1.6143,0.0,0.0,0.0,0.0,0.0,0.0,-2.0774,-2.2747,-2.4585,-2.6142,-2.7547,-2.8967,-3.0416,-3.1254,-3.1929,-3.2469,-3.2987,-3.3501,-3.4056,-3.4504,-3.5324,-3.6437,-3.6902,-3.706,-3.6806,-3.3057,-3.051,-2.8928,-2.8099,-2.7597,-2.7478,-2.801,-2.8515,-2.9036,-2.9822,-3.0068,-2.9838,-2.8527,-2.777,-2.7089,-2.5524,0.0,0.0,0.0,0.0,-2.6365,-2.8223,-2.8731,-2.8918,-2.9659,-2.9428,-2.8971,-2.8467,-2.7595,-2.6317,0.0,-2.3417,-2.2305,-1.9999,0.0,0.0,0.0,0.0,-2.0753,-2.3391,-2.4089,-2.4563,-2.4988,-2.5298,-2.5413,-2.5237,-2.5577,-2.5576,-2.5044,-2.4674,-2.4154,-2.3427,-2.1881,-2.0733,-2.0097,0.0,0.0,0.0,0.0,0.0,0.0,0.0,0.0,0.0,0.0,0.0,0.0,0.0,0.0,0.0,0.0,0.0,0.0,0.0,0.0,0.0,0.0,0.0,0.0,0.0,0.0,0.0,0.0,0.0,-1.7066,-1.8745,0.0,0.0,0.0,0.0,-1.9923,-2.1438,-2.321,-2.5254,-2.6573,-2.8135,-3.0162,-3.0347,-3.1335,-3.3178,-3.406,-3.4792,-3.5425,-3.6865,-3.759,-3.7624,-3.7672,-3.7722,-3.779,-3.7855,-3.7838,-3.7669,-3.5301,-3.382,-3.2934,-3.154,-3.0965,-3.0931,-3.0965,-3.1461,-3.207,-3.2138,-3.2154,-3.2174,-3.221,-3.0952,-2.9447,-2.9334,-2.8715,0.0,0.0,-2.946,-3.0171,-3.1675,-3.2063,-3.2249,-3.2959,-3.3128,-3.3094,-3.3051,-3.1931,-2.9826,0.0,-2.5306,-2.4991,-2.4128,0.0,-2.3734,-2.3227,-2.3683,-2.4188,-2.4507,-2.6022,-2.6477,-2.4806,-2.5592,-2.5958,-2.5269,-2.5221,-2.5342,-2.5545,-2.4898,-2.4154,-2.3427,-2.2637,-2.186,-2.1143,-1.8973,0.0,0.0,0.0,0.0,0.0,0.0,0.0,0.0,0.0,0.0,0.0,0.0,0.0,0.0,0.0,0.0,0.0,0.0,0.0,0.0,0.0,0.0,0.0,0.0,0.0,0.0,0.0,0.0,-1.9376,-2.0259,0.0,-2.1588,-2.1968,-2.2727,-2.4208,-2.5217,-2.6646,-2.8726,-2.9648,-3.081,-3.2436,-3.335,-3.4387,-3.5571,-3.6384,-3.6872,-3.7094,-3.7652,-3.8159,-3.8616,-3.8616,-3.887,-3.9309,-3.9309,-3.9309,-3.9208,-3.7922,-3.6671,-3.552,-3.4996,-3.4489,-3.41,-3.4607,-3.4945,-3.525,-3.574,-3.5588,-3.5047,-3.4085,-3.2988,-3.2041,-3.2041,-3.1817,-3.1648,-3.19,-3.2083,-3.2459,-3.344,-3.3711,-3.3676,-3.3545,-3.3523,-3.33,-3.2413,-3.2144,-3.1636,-3.0266,-2.877,-2.7408,-2.6352,-2.6184,-2.5816,-2.4889,-2.4942,-2.5277,-2.5724,-2.6311,-2.6489,-2.5831,-2.6031,-2.6118,-2.5863,-2.5454,-2.5289,-2.5578,-2.4593,-2.3682,-2.2981,-2.2521,-2.2046,-2.147,-2.0033,-1.8098,0.0,0.0,0.0,0.0,0.0,0.0,0.0,0.0,0.0,0.0,0.0,0.0,0.0,0.0,0.0,0.0,0.0,0.0,0.0,0.0,0.0,0.0,0.0,0.0,0.0,0.0,-1.9033,-2.0994,-2.2061,-2.3125,-2.4485,-2.4915,-2.5895,-2.7813,-2.849,-2.9675,-3.1534,-3.2408,-3.3451,-3.4622,-3.5795,-3.6637,-3.7161,-3.7905,-3.8278,-3.8278,-3.8514,-3.8886,-3.936,-3.936,-3.9631,-4.007,-4.007,-4.007,-4.0037,-3.9546,-3.8785,-3.7838,-3.7347,-3.684,-3.6451,-3.6975,-3.7161,-3.7229,-3.7736,-3.7584,-3.6992,-3.5977,-3.5318,-3.4928,-3.4928,-3.4928,-3.4878,-3.4624,-3.4539,-3.459,-3.481,-3.4878,-3.4773,-3.4363,-3.4272,-3.4047,-3.3135,-3.3069,-3.319,-3.319,-3.1506,-2.9762,-2.8724,-2.8352,-2.7866,-2.6901,-2.6735,-2.6819,-2.707,-2.7283,-2.719,-2.6535,-2.6533,-2.6486,-2.6206,-2.549,-2.5252,-2.5698,-2.4249,-2.3211,-2.2867,-2.2217,-2.1721,-2.1399,-1.9939,-1.8042,-1.5728,0.0,0.0,0.0,0.0,0.0,0.0,0.0,0.0,0.0,0.0,0.0,0.0,0.0,0.0,0.0,0.0,0.0,0.0,0.0,0.0,0.0,0.0,0.0,-1.6981,-1.9376,-2.1305,-2.1946,-2.4177,-2.597,-2.6629,-2.7328,-2.8556,-3.0551,-3.1237,-3.2205,-3.3644,-3.4947,-3.6011,-3.6789,-3.755,-3.7939,-3.7939,-3.8667,-3.9022,-3.9039,-3.9766,-4.0104,-4.0121,-4.0138,-4.0155,-4.0155,-4.0155,-4.0155,-4.0155,-4.0155,-4.0155,-4.0003,-3.8531,-3.7973,-3.7973,-3.7973,-3.7973,-3.7973,-3.7939,-3.7939,-3.7939,-3.7922,-3.7905,-3.7905,-3.7905,-3.7905,-3.7753,-3.7026,-3.6823,-3.6637,-3.5814,-3.5611,-3.5549,-3.5577,-3.5577,-3.5577,-3.5577,-3.5047,-3.4523,-3.4523,-3.3339,-3.2121,-3.136,-3.0649,-2.995,-2.932,-2.9222,0.0,-2.8607,-2.9012,-2.8682,-2.6871,-2.7063,-2.7038,-2.6286,-2.5382,-2.5151,-2.5862,-2.3885,-2.2785,-2.3039,-2.1743,-2.0991,-2.0959,-1.8743,-1.6745,-1.507,0.0,0.0,0.0,0.0,0.0,0.0,0.0,0.0,0.0,0.0,0.0,0.0,0.0,0.0,0.0,0.0,0.0,0.0,0.0,0.0,0.0,-1.7255,-1.9223,-1.9223,-2.1339,-2.3302,-2.4461,-2.6456,-2.8029,-2.87,-3.0206,-3.1593,-3.2692,-3.3334,-3.4347,-3.5862,-3.6241,-3.6806,-3.7567,-3.8311,-3.87,-3.87,-3.9411,-3.9783,-3.9783,-4.0544,-4.0899,-4.0916,-4.1441,-4.1677,-4.1677,-4.1677,-4.1677,-4.1677,-4.1677,-4.1677,-4.1542,-4.0054,-3.9478,-3.9478,-3.9478,-3.9478,-3.9411,-3.887,-3.87,-3.8616,-3.8075,-3.7905,-3.7905,-3.7905,-3.7905,-3.7872,-3.7652,-3.7198,-3.6572,-3.5842,-3.5284,-3.4888,-3.4868,-3.4894,-3.5005,-3.5515,-3.5453,-3.5318,-3.5318,-3.4539,-3.3474,-3.2205,-3.1816,-3.1318,-3.0162,-2.9996,0.0,-2.9255,-2.8919,-2.8701,-2.8636,-2.8259,-2.7732,-2.707,-2.631,-2.533,-2.399,-2.2941,-2.2232,-2.1811,-2.1272,-2.0829,-2.0516,-1.8596,-1.7187,0.0,0.0,0.0,0.0,0.0,0.0,0.0,0.0,0.0,0.0,0.0,0.0,0.0,0.0,0.0,0.0,0.0,0.0,0.0,0.0,0.0,0.0,-1.9495,-2.1564,-2.2275,-2.3584,-2.4941,-2.6273,-2.7992,-2.9481,-3.0746,-3.2107,-3.3375,-3.4351,-3.5054,-3.5842,-3.6721,-3.7381,-3.7905,-3.8345,-3.9073,-3.9445,-3.9445,-4.0172,-4.0544,-4.0561,-4.1305,-4.166,-4.1677,-4.21,-4.2286,-4.2286,-4.2286,-4.2286,-4.2286,-4.2286,-4.2286,0.0,0.0,0.0,0.0,0.0,-4.0544,-4.0443,-3.9698,-3.9445,-3.9377,-3.8954,-3.8588,-3.8304,-3.8304,-3.8101,-3.776,-3.7498,-3.7072,-3.656,-3.586,-3.5126,-3.4579,-3.4572,-3.4595,-3.4688,-3.5098,-3.5407,-3.5622,-3.5622,-3.5267,0.0,-3.3406,-3.2696,-3.2039,-3.1258,-3.0659,-3.0166,-2.9805,-2.9012,-2.8654,-2.9012,-2.8365,-2.7627,-2.6977,-2.622,0.0,0.0,0.0,-2.1932,-2.1072,-2.0925,0.0,0.0,0.0,0.0,0.0,0.0,0.0,0.0,-1.4813,-1.4852,0.0,0.0,0.0,0.0,0.0,0.0,0.0,0.0,0.0,0.0,0.0,0.0,0.0,0.0,0.0,0.0,-2.141,-2.3772,-2.5493,-2.5854,-2.6378,-2.7545,-2.8978,-3.0555,-3.2414,-3.3336,-3.4368,-3.5718,-3.6503,-3.6961,-3.7148,0.0,0.0,0.0,0.0,-4.0121,-4.0206,-4.0865,-4.1238,-4.1339,-4.2066,-4.2422,-4.2422,-4.2506,-4.2557,-4.2557,-4.2557,-4.2557,-4.2557,-4.2557,-4.2486,-4.2416,-4.2354,-4.2233,-4.2078,-4.1437,-4.1096,-4.0942,-4.027,0.0,0.0,-3.9968,-3.9398,-3.8799,-3.8799,-3.8302,-3.7678,-3.6997,-3.6749,-3.6533,-3.5792,-3.5086,-3.4562,-3.451,-3.4503,-3.448,-3.4496,-3.5005,-3.547,-3.547,-3.556,-3.5402,-3.4742,-3.3389,-3.2374,-3.229,-3.1208,-3.0393,-3.0393,-2.9361,-2.8654,-2.8701,0.0,0.0,-2.6592,-2.5837,-2.506,-2.4364,-2.3055,-2.1881,-2.0857,-2.081,-2.0509,-1.981,-1.9225,-1.8919,-1.8989,-1.8474,-1.8267,-1.8329,-1.6233,-1.6082,0.0,0.0,0.0,0.0,0.0,0.0,0.0,0.0,0.0,0.0,0.0,0.0,0.0,0.0,0.0,-2.1061,-2.3452,-2.5401,-2.6288,-2.7335,-2.8113,-2.8368,-3.0071,-3.1566,-3.2512,-3.419,-3.5762,-3.7094,-3.737,-3.7948,-3.9174,-3.9474,-3.9705,-3.9901,-4.0003,-4.0375,-4.0984,-4.1136,-4.1508,-4.21,0.0,0.0,-4.3217,-4.3842,-4.4147,-4.4147,-4.4147,-4.4147,-4.4147,-4.4147,-4.3759,-4.3074,-4.2526,-4.1875,-4.1236,-4.112,-4.0656,-4.0038,-3.9909,-3.9473,-3.9062,-3.9062,-3.856,-3.8035,-3.8035,-3.7921,0.0,-3.7646,-3.7133,-3.6424,-3.5755,-3.5091,-3.4379,-3.381,-3.3701,-3.3723,-3.3797,-3.4333,-3.4783,-3.4783,-3.5207,-3.5571,-3.5419,-3.4167,-3.2983,-3.2374,-3.1567,-3.1015,-3.1015,-2.9978,-2.9406,-2.9892,-2.8978,-2.8031,-2.7364,-2.7143,-2.6112,-2.39,-2.3043,-2.2295,-2.153,-2.153,-2.1181,-2.0509,-1.9489,-1.9006,-1.8989,-1.8474,-1.8643,-1.9459,-1.8166,-1.7978,0.0,0.0,0.0,0.0,0.0,0.0,0.0,0.0,0.0,0.0,0.0,-1.605,-1.8172,0.0,-2.2002,-2.357,-2.5072,-2.6452,-2.7455,-2.8173,-2.8727,-2.9056,-3.0873,-3.2335,-3.3056,-3.4648,-3.6161,-3.7515,-3.7957,-3.8625,-3.9725,-4.0141,-4.0277,-4.0121,-4.0443,-4.0832,-4.1204,-4.1931,-4.2506,-4.2861,-4.3623,-4.3995,-4.4012,-4.4401,-4.4587,-4.4587,-4.4587,-4.4587,-4.457,-4.4138,-4.368,-4.3224,-4.2466,-4.1858,-4.1464,-4.1107,-4.0675,-4.0274,-3.9907,-3.9556,-3.9329,-3.9329,-3.8594,-3.7723,-3.7723,-3.7216,-3.6662,-3.6662,-3.6368,-3.5978,-3.5643,-3.5012,-3.4433,-3.4076,-3.3729,-3.351,-3.3536,-3.3822,-3.4186,-3.4528,-3.4894,-3.5207,-3.5515,-3.4692,-3.3694,-3.2949,-3.1984,-3.1157,-3.079,-2.9717,-2.9058,-2.9361,-2.8591,-2.7768,-2.713,-2.6764,-2.6001,-2.4672,-2.4313,-2.3849,-2.3191,-2.2819,-2.2309,-2.165,-2.0731,-2.0237,-2.0233,-1.999,-2.0321,-2.1185,-2.063,-2.0335,0.0,0.0,0.0,0.0,0.0,0.0,0.0,0.0,-1.49,-1.6834,-1.8212,-1.9629,-2.1362,-2.3024,-2.4523,-2.5642,-2.6467,-2.7365,-2.8442,-2.8816,-2.916,-2.9699,-3.1467,-3.2864,-3.3518,-3.4932,-3.6382,-3.7698,-3.8486,-3.925,-3.9967,-4.0574,-4.0724,-4.0341,-4.0882,-4.1339,-4.1627,-4.2828,-4.3504,-4.3656,-4.4282,-4.4587,-4.457,-4.4418,-4.435,-4.435,-4.435,-4.4294,-4.4051,-4.336,-4.2986,-4.2724,-4.1804,-4.1478,-4.1415,-4.0991,-4.0721,-4.0529,-3.9961,-3.9661,-3.955,-3.955,-3.8559,-3.7415,-3.7538,-3.6565,-3.5534,-3.5669,-3.5609,-3.5504,-3.5504,-3.51,-3.4637,-3.4502,-3.4091,-3.3602,-3.3341,-3.3443,-3.3742,-3.4317,-3.4528,-3.4783,-3.547,-3.5115,-3.4455,-3.3728,-3.2436,-3.1321,-3.0632,-2.9441,-2.8654,-2.8511,-2.8042,-2.7549,-2.7007,-2.6264,-2.5794,-2.5794,-2.5674,-2.5375,-2.4837,-2.4116,-2.3516,-2.3027,-2.2275,-2.1904,-2.1953,-2.1953,-2.2265,-2.2951,-2.2951,-2.2587,-1.505,-1.4639,-1.4486,-1.4683,-1.4621,-1.5256,0.0,0.0,-1.7856,-2.0664,-2.1383,-2.2047,-2.3852,-2.4865,-2.561,-2.6378,-2.7545,-2.8427,-2.8577,-2.9579,-3.0313,-3.0387,-3.168,-3.2864,-3.3518,-3.5461,-3.7183,-3.846,-3.9267,-3.9985,-4.0747,-4.0868,-4.0965,-4.1052,-4.117,-4.1847,-4.3166,-4.3335,-4.3775,-4.4451,-4.4536,-4.4587,-4.4553,-4.3859,-4.3538,-4.3538,-4.3538,-4.3132,-4.2442,-4.2245,-4.1674,-4.0878,-4.006,-3.9681,-3.9793,-4.0492,-4.0201,-3.9561,-3.9485,-3.9048,-3.8536,-3.8536,-3.7654,-3.67,-3.7256,-3.6514,-3.5624,-3.6207,-3.5953,-3.5504,-3.5504,-3.5444,-3.5235,-3.4622,-3.4415,-3.4042,-3.2871,-3.3077,-3.3568,-3.371,-3.4186,-3.4783,-3.547,-3.5554,-3.5233,-3.4489,-3.3128,-3.1976,-3.1335,-3.0105,-2.9088,-2.8559,-2.8415,-2.8384,-2.8307,-2.7182,-2.6482,-2.6482,-2.5929,-2.557,-2.5495,-2.4882,-2.4514,-2.448,-2.3806,-2.3427,-2.3444,-2.3444,-2.3719,-2.4295,-2.4295,-2.3865,-1.7462,-1.7242,-1.7184,0.0,-1.8463,-1.9427,-2.0839,-2.1318,-2.1912,-2.3542,-2.4519,-2.5327,-2.6137,-2.6841,-2.7248,0.0,-2.7979,-2.8742,-2.9116,-2.9624,-3.0103,-3.0462,-3.1389,-3.2424,-3.3518,-3.5544,-3.732,-3.8581,-3.9388,-4.0123,-4.0868,-4.0868,-4.0731,-4.045,-4.1316,-4.2082,-4.2682,-4.3132,-4.3762,-4.457,-4.4064,-4.4138,-4.4553,-4.3775,-4.3183,-4.276,-4.2289,-4.2128,-4.2068,-4.0688,-4.0125,-3.9988,-3.8711,-3.8257,-3.8332,-3.9506,-3.9737,-3.9424,-3.9424,-3.923,-3.899,-3.899,-3.8362,-3.7644,-3.7898,-3.709,-3.6133,-3.6417,-3.6013,-3.5504,-3.5504,-3.5504,-3.5429,-3.5145,-3.4771,-3.4322,-3.3769,-3.3261,-3.3161,-3.4043,-3.4111,-3.4333,-3.5424,-3.5622,-3.552,-3.5199,-3.3604,-3.2164,-3.15,-3.0243,-2.9316,-2.9042,-2.8996,-2.8996,-2.8996,-2.82,-2.7727,-2.7727,-2.7082,-2.6752,-2.6752,-2.6126,-2.5755,-2.5755,-2.505,-2.4678,-2.4678,-2.4678,-2.4803,-2.4997,-2.4997,-2.4626,-1.9081,-1.9354,0.0,-2.0423,-2.1488,-2.2557,-2.3116,-2.3936,-2.4814,-2.5686,-2.6534,-2.7169,-2.7176,-2.7612,-2.7817,-2.739,-2.8363,-2.9312,-2.9796,-3.0038,-3.031,-3.0779,-3.1144,-3.1795,-3.2938,-3.4955,-3.6693,-3.7806,-3.8554,-3.9302,-4.0,-3.9981,-3.9847,-3.9625,-4.0687,-4.1498,-4.189,-4.267,-4.3405,-4.4253,-4.3873,-4.4006,-4.4553,-4.3555,-4.2466,-4.1325,-4.1017,-4.0927,-4.0836,-3.9345,-3.8824,-3.8959,-3.7843,-3.7404,-3.7524,-3.8512,-3.8975,-3.917,-3.9349,-3.9424,-3.9394,-3.92,-3.8676,-3.8153,-3.8332,-3.7494,-3.6522,-3.6686,-3.6267,-3.5729,-3.5549,-3.5504,-3.5504,-3.5504,-3.513,-3.4711,-3.4517,-3.3724,-3.3319,-3.4109,-3.3905,-3.396,-3.5131,-3.5316,-3.5362,-3.5577,-3.3984,-3.2484,-3.1565,-3.0087,-2.9271,-2.9629,-2.9496,-2.9406,-2.9406,-2.8826,-2.8415,-2.8286,-2.786,-2.7625,-2.7625,-2.71,-2.6826,-2.6826,-2.6269,-2.6,-2.6,-2.6,-2.5892,-2.5673,-2.5673,-2.5175,-1.9609,0.0,-2.2131,-2.2681,-2.3,-2.3634,-2.5475,-2.5582,-2.5621,-2.6976,-2.6882,-2.6494,-2.6452,-2.6579,-2.6666,-2.6617,-2.8813,-3.0545,-3.0561,-3.1114,-3.1548,-3.1564,-3.1011,-3.0923,0.0,-3.3541,-3.5048,-3.5754,-3.6483,-3.7191,-3.7889,-3.7879,-3.82,-3.8932,-3.8996,-3.9686,-4.1004,-4.1907,-4.264,-4.3366,-4.4196,-4.457,-4.4536,-4.3014,-4.1104,-3.9077,-3.9803,-3.9231,-3.7794,-3.8446,-3.8233,-3.7503,-3.7419,-3.7404,-3.7404,-3.7464,-3.7868,-3.8512,-3.9185,-3.9424,-3.9305,-3.8631,-3.7973,-3.7554,-3.8197,-3.7494,-3.6611,-3.721,-3.6941,-3.6312,-3.5669,-3.5504,-3.5504,-3.5504,-3.5489,-3.5295,-3.4622,-3.4442,-3.4256,-3.364,-3.3531,-3.3724,-3.4497,-3.4624,-3.4847,-3.5515,-3.4447,-3.3069,-3.1742,-2.9801,-2.8966,-3.0166,-2.9761,-2.9406,-2.9406,-2.8826,-2.8238,-2.766,-2.7625,-2.7625,-2.7625,-2.7575,-2.7575,-2.7575,-2.756,-2.7509,-2.7509,-2.7509,-2.7152,-2.6457,-2.6457,-2.5673,-2.115,0.0,-2.3567,-2.4726,-2.5258,-2.5807,-2.694,-2.7475,-2.7653,-2.7257,-2.7046,-2.6856,-2.6533,-2.6132,-2.6152,-2.7041,-2.8347,-2.9725,-3.1033,-3.0994,-3.0875,-3.0928,-3.0715,0.0,0.0,0.0,0.0,-3.5614,-3.6389,-3.7094,-3.7774,-3.7705,-3.7746,-3.8043,-3.8936,-3.9642,-4.0112,-4.1469,-4.2525,-4.329,-4.3618,-4.3555,-4.3031,-4.2033,-4.0601,-3.887,-3.8674,-3.8221,-3.7544,-3.688,-3.6652,-3.6746,-3.6312,-3.6148,-3.6193,-3.6641,-3.6941,-3.7225,-3.7868,-3.8078,-3.8048,-3.7823,-3.7584,-3.7449,-3.7674,-3.715,-3.6537,-3.6746,-3.6327,-3.5789,-3.5564,-3.5504,-3.5504,-3.5504,-3.5504,-3.5444,-3.5205,-3.4801,-3.4437,-3.4183,-3.38,-3.3591,-3.3899,-3.3937,-3.3987,-3.4252,-3.3819,-3.2967,-3.163,-3.08,-3.0293,-3.0293,-3.0123,-2.9848,-2.9451,-2.8826,-2.8415,-2.8189,-2.781,-2.7625,-2.7625,-2.7625,-2.7625,-2.7625,-2.7625,-2.7625,-2.7625,-2.71,-2.6496,-2.5728,-2.5287,-2.4509,-2.2851,-2.4011,-2.5212,-2.6395,-2.7102,-2.7674,-2.811,-2.8653,-2.8565,-2.7065,-2.6632,-2.6205,-2.5227,-2.4755,-2.4909,-2.6259,-2.7661,-2.9189,-3.097,-3.0994,-3.0929,-3.0944,-3.0715,-3.0447,0.0,0.0,0.0,-3.4851,-3.5556,-3.6244,-3.6904,-3.7109,-3.7238,-3.7238,-3.8295,-3.8984,-3.9213,-4.0812,-4.2194,-4.334,-4.3401,-4.277,-4.1527,-4.1003,-3.9797,-3.8044,-3.7557,-3.7169,-3.6776,-3.5834,-3.5893,-3.6447,-3.6028,-3.5863,-3.5908,-3.6327,-3.6342,-3.6252,-3.712,-3.7404,-3.7375,-3.715,-3.7075,-3.7075,-3.7075,-3.6806,-3.6492,-3.6492,-3.6178,-3.5804,-3.5564,-3.5504,-3.5504,-3.5504,-3.5504,-3.5504,-3.5504,-3.516,-3.4811,-3.4576,-3.3949,-3.349,-3.3549,-3.3587,-3.3582,-3.3582,-3.3304,-3.2862,-3.2232,-3.1658,-3.1223,-3.1025,-3.0584,-3.0081,-2.9451,-2.8826,-2.8415,-2.8189,-2.781,-2.7625,-2.7625,-2.7625,-2.7625,-2.7625,-2.7625,-2.7625,-2.7625,-2.7137,-2.639,-2.5398,-2.4894,-2.4223,-2.4679,-2.5916,-2.6994,-2.7729,-2.8461,-2.901,-2.9009,-2.8928,-2.8313,-2.6402,-2.5517,-2.4547,0.0,0.0,-2.3098,-2.4402,-2.6826,-2.9057,-3.0476,-3.1213,-3.1626,0.0,0.0,0.0,0.0,0.0,0.0,-3.3499,0.0,-3.4771,-3.5474,-3.6133,-3.6492,-3.6492,-3.712,-3.7764,-3.8377,-4.0047,-4.1722,-4.3242,-4.3192,-4.2071,-4.0028,-3.9995,-3.8762,-3.6615,-3.6615,-3.618,-3.5549,-3.5519,-3.5893,-3.6492,-3.6492,-3.6462,-3.6432,-3.6477,-3.6073,-3.5684,-3.6896,-3.7315,-3.721,-3.6626,-3.6432,-3.6432,-3.6432,-3.6432,-3.6432,-3.6432,-3.6432,-3.6297,-3.5669,-3.5504,-3.5504,-3.5504,-3.5504,-3.5504,-3.5504,-3.5504,-3.5295,-3.4607,-3.3918,-3.3457,-3.3444,-3.3464,-3.3479,-3.3479,-3.2937,-3.2755,-3.3397,-3.2253,-3.158,-3.2092,-3.1033,-2.9995,-2.9361,-2.8779,-2.8189,-2.7625,-2.7625,-2.7575,-2.7575,-2.756,-2.756,-2.756,-2.756,-2.756,-2.7625,-2.7509,-2.6759,-2.5398,-2.537,-2.4856,-2.6034,-2.7334,-2.8579,-2.9336,-2.9252,-2.9019,-2.8996,-2.79,-2.6432,-2.4977,-2.349,-2.2212,0.0,0.0,0.0,-2.4261,-2.6382,0.0,-3.094,-3.1404,0.0,-3.2284,0.0,-3.2078,-3.2243,-3.3305,0.0,0.0,-3.4382,-3.4771,-3.5474,-3.6133,-3.6492,-3.6492,-3.7569,-3.8227,-3.8392,-3.9483,-4.0277,-4.0847,-4.0326,-3.9771,-3.9182,-3.8666,-3.7732,-3.6615,-3.6615,-3.644,-3.6207,-3.5714,-3.5893,-3.6492,-3.6492,-3.6193,-3.5818,-3.6312,-3.6073,-3.5549,-3.5878,-3.5983,-3.5968,-3.5804,-3.5744,-3.5744,-3.5744,-3.5744,-3.5744,-3.5744,-3.5744,-3.5714,-3.5549,-3.5504,-3.5504,-3.5504,-3.5504,-3.5504,-3.5504,-3.5504,-3.5295,-3.4607,-3.3544,-3.2766,-3.2749,-3.2319,-3.2048,-3.2048,-3.2322,-3.2599,-3.2721,-3.1936,-3.1038,-3.0306,-2.9868,-2.921,-2.8174,-2.7894,-2.776,-2.7625,-2.7625,-2.7357,-2.6826,-2.6774,-2.6774,-2.6774,-2.6774,-2.7034,-2.7625,-2.6481,-2.5783,-2.5356,-2.4669,-2.4211,-2.6981,-2.8328,-2.9493,-2.9593,-2.955,-2.9238,-2.8218,-2.7023,-2.5464,-2.3296,-2.1903,0.0,-1.9602,-2.0168,0.0,0.0,0.0,0.0,-3.0297,-3.0882,-3.1456,0.0,-3.2764,0.0,-3.335,-3.4322,-3.4921,0.0,-3.4921,-3.522,-3.5893,-3.6552,-3.703,-3.7315,-3.8302,-3.8888,-3.8971,-3.9175,-3.9376,-3.9526,-3.9081,-3.8551,-3.7891,-3.7452,-3.6859,-3.6117,0.0,-3.6107,-3.6028,-3.5654,-3.5893,-3.6492,-3.6492,-3.6267,-3.5983,-3.6357,-3.6073,-3.5504,-3.5504,-3.5504,-3.5504,-3.5504,-3.5504,-3.5504,-3.5504,-3.5504,-3.5504,-3.5504,-3.5504,-3.5504,-3.5504,-3.5504,-3.5504,-3.5504,-3.5504,-3.5504,-3.5504,-3.5504,-3.5295,-3.4607,-3.3873,-3.3185,-3.2617,-3.2213,-3.1869,-3.1511,-3.1853,-3.2244,-3.2521,-3.2111,-3.1565,-3.0903,-3.0005,-2.9185,-2.8484,-2.7926,-2.7458,-2.7137,-2.71,-2.693,-2.651,-2.651,-2.6669,-2.6982,-2.6982,-2.7336,-2.8023,-2.6831,-2.6204,-2.6142,-2.5253,-2.457,-2.7783,-2.9081,-3.0085,-2.9343,-2.9479,-2.9245,-2.7182,-2.6031,-2.4607,-2.1714,0.0,-1.961,-1.799,-1.8723,-2.0296,-2.2353,0.0,-2.6479,-2.9205,-3.0118,-3.1031,-3.2467,-3.3155,-3.3784,-3.4547,-3.516,-3.5504,-3.5504,-3.5504,-3.5744,-3.6327,-3.6941,-3.7584,-3.8242,-3.8841,-3.9149,-3.9287,-3.87,-3.8434,-3.8464,-3.8464,-3.7726,-3.6446,-3.6446,-3.6117,-3.5504,-3.5504,-3.5549,-3.5624,-3.5549,-3.5893,-3.6492,-3.6492,-3.6432,-3.6372,-3.6298,-3.5844,-3.5279,-3.5148,-3.5148,-3.5148,-3.5279,-3.5294,-3.5294,-3.5294,-3.5294,-3.5359,-3.5439,-3.5504,-3.5504,-3.5504,-3.5504,-3.5504,-3.5504,-3.5504,-3.5504,-3.5504,-3.5424,-3.51,-3.4362,-3.4184,-3.3739,-3.266,-3.2377,-3.2154,-3.1571,-3.1482,-3.1739,-3.2382,-3.239,-3.2358,-3.2374,-3.072,-2.9623,-2.9524,-2.85,-2.7573,-2.6929,-2.6929,-2.6862,-2.6755,-2.6755,-2.7074,-2.7712,-2.7712,-2.801,-2.8553,-2.7712,-2.7187,-2.7015,-2.6233,-2.5266,-2.8749,-2.9861,-3.0825,-3.0085,-2.9039,-2.7932,-2.6944,-2.4265,0.0,0.0,-1.956,-1.8082,-1.776,-1.8414,-1.985,-2.2297,0.0,0.0,0.0,0.0,-3.121,0.0,0.0,0.0,0.0,-3.5429,0.0,0.0,-3.5504,-3.5549,-3.5669,-3.6297,-3.6926,-3.7554,-3.7704,-3.7518,-3.7074,-3.6953,-3.6627,-3.6076,-3.6076,-3.5952,-3.5668,-3.5668,-3.5619,-3.5504,-3.5504,0.0,-3.6267,-3.5729,-3.5893,-3.6492,-3.6492,-3.6148,-3.5663,-3.5371,-3.4864,-3.4177,-3.3394,-3.3101,-3.3255,-3.4027,-3.4245,-3.4245,-3.4245,-3.4245,-3.4394,-3.5279,-3.5504,-3.5504,-3.5504,-3.5504,-3.5504,-3.5504,-3.5504,-3.5504,-3.5504,-3.4839,-3.3998,-3.31,-3.2457,-3.21,-3.2176,-3.1691,-3.1387,-3.1498,-3.1482,-3.1539,-3.1682,-3.1643,-3.1622,-3.1721,-3.0902,-3.013,-2.9652,-2.9402,-2.9182,-2.9059,-2.9059,-2.8758,-2.8078,-2.8078,-2.8134,-2.8245,-2.8245,-2.8318,-2.8351,-2.7567,-2.6845,-2.6105,-2.5794,-2.5153,-2.8871,-2.9799,-3.0465,-2.9724,-2.8357,-2.6782,-2.5122,0.0,0.0,0.0,-1.8115,-1.7007,-1.6463,-1.7475,0.0,0.0,0.0,0.0,0.0,0.0,0.0,0.0,0.0,0.0,0.0,-3.5504,-3.5504,-3.5504,-3.5504,-3.5654,-3.5998,-3.6611,-3.7105,-3.7404,-3.7105,-3.6791,-3.6492,-3.6148,-3.5818,-3.5504,-3.5504,-3.5504,-3.5504,-3.5504,-3.5504,-3.5439,-3.492,-3.4934,-3.5131,-3.4307,-3.416,-3.4502,-3.4502,-3.4246,-3.3934,-3.3789,-3.3564,-3.3241,-3.2749,-3.2593,-3.2593,-3.2522,-3.289,-3.3241,-3.3241,-3.3241,-3.338,-3.3837,-3.4341,-3.4691,-3.4691,-3.4691,-3.4691,-3.4691,-3.4341,-3.3973,-3.3973,-3.3602,-3.3171,-3.2678,-3.2358,-3.2263,-3.2563,-3.2048,-3.1681,-3.1961,-3.1691,-3.164,-3.2007,-3.1703,-3.1506,-3.1521,-3.0913,-3.041,-3.0113,-2.9759,-2.9441,-2.9013,-2.8958,-2.8832,-2.8396,-2.8396,-2.8579,-2.9028,-2.8594,-2.8526,-2.8814,-2.7528,-2.689,-2.6828,-2.5795,-2.4764,-2.8535,-2.9303,-2.966,-2.8938,-2.7588,-2.5832,-2.3455,-2.1622,0.0,0.0,-1.6741,-1.5979,-1.541,0.0,-1.7486,0.0,0.0,0.0,0.0,0.0,0.0,0.0,0.0,0.0,0.0,-3.5504,0.0,-3.5504,-3.5504,-3.5729,-3.6252,-3.6746,-3.7,-3.7,-3.6522,-3.6282,-3.6282,-3.5759,-3.5504,-3.5504,-3.5504,-3.5504,-3.5504,-3.5279,-3.5213,-3.5133,-3.4109,-3.3671,-3.3671,-3.289,-3.2593,-3.2593,-3.2593,-3.2593,-3.2593,-3.2393,-3.2321,-3.2249,-3.2046,-3.1974,-3.1901,-3.1119,-3.1536,-3.2321,-3.2321,-3.2321,-3.2321,-3.2522,-3.3101,-3.3671,-3.3671,-3.3671,-3.3671,-3.3671,-3.3171,-3.2522,-3.2321,-3.2321,-3.2249,-3.2046,-3.1974,-3.2143,-3.267,-3.2345,-3.2083,-3.2437,-3.2078,-3.1847,-3.2302,-3.1853,-3.1482,-3.1482,-3.1046,-3.0717,-3.0717,-3.0283,-2.9748,-2.9114,-2.9042,-2.9042,-2.9042,-2.9042,-2.9369,-2.9998,-2.9157,-2.8914,-2.9223,-2.7647,-2.7079,-2.7417,-2.5767,-2.448,-2.772,-2.8474,-2.8912,-2.8106,-2.6805,-2.5202,-2.3328,0.0,0.0,-1.7509,-1.5767,-1.4688,-1.5814,-1.5454,-1.5928,0.0,0.0,-2.044,0.0,0.0,0.0,0.0,0.0,0.0,0.0,-3.5504,-3.5504,-3.5504,-3.5504,-3.5534,-3.5594,-3.5654,-3.5684,-3.5684,-3.5624,-3.5594,-3.5594,-3.5534,-3.5504,-3.5504,-3.5504,-3.5504,-3.5439,-3.4543,-3.4163,-3.4095,-3.3171,-3.2749,0.0,-3.2664,-3.2593,-3.2593,-3.2593,-3.2593,-3.2536,-3.1683,-3.1315,-3.118,-3.0355,-3.0075,-3.0075,-2.9934,-3.0558,-3.1315,-3.1315,-3.1315,-3.1536,-3.2393,-3.2664,-3.2749,-3.2749,-3.2749,-3.2749,-3.2749,-3.2664,-3.2393,-3.1536,-3.1315,-3.1119,-3.0216,-3.0075,-3.039,-3.1527,-3.1654,-3.1833,-3.2436,-3.2467,-3.2213,-3.1657,-3.1524,-3.1482,-3.1482,-3.1422,-3.1377,-3.1377,-3.139,-3.1287,-3.123,-3.123,-3.123,-3.123,-3.123,-3.123,-3.1302,-3.0528,-2.9746,-2.9045,-2.8101,-2.7232,-2.6589,-2.5511,-2.448,-2.6928,-2.7703,-2.8091,-2.7352,-2.6019,-2.4275,-2.1771,0.0,-1.7695,-1.6653,-1.5181,-1.4299,-1.5012,-1.4884,-1.5112,0.0,-1.6996,-1.8615,-2.2441,0.0,0.0,0.0,0.0,0.0,0.0,0.0,-3.5504,-3.5504,-3.5504,-3.5504,-3.5504,-3.5504,-3.5504,-3.5504,-3.5504,-3.5504,-3.5504,-3.5504,-3.5504,-3.5504,-3.5504,-3.5213,-3.461,-3.4177,-3.3671,-3.3101,-3.2177,-3.1742,0.0,-3.1132,-3.0921,-3.0921,-3.0921,-3.0921,-3.0846,-3.0495,-3.0343,-3.0279,-2.9934,-2.9792,-2.9792,-2.9792,-3.0075,-3.0343,-3.0343,-3.0343,-3.0419,-3.0771,-3.1328,-3.1742,-3.1742,-3.1742,-3.1609,-3.1057,-3.0921,-3.0771,-3.0419,-3.0343,-3.0279,-2.9856,-2.9792,-3.0279,-3.1935,-3.1874,-3.1963,-3.2971,-3.2766,-3.2273,-3.1556,-3.1482,-3.1482,-3.1482,-3.1482,-3.1482,-3.1482,-3.1482,-3.1482,-3.1482,-3.1482,-3.1482,-3.1482,-3.1482,-3.1482,-3.1482,-3.0208,-2.938,-2.9002,-2.767,-2.6483,-2.5581,-2.4564,-2.3588,-2.5744,-2.6421,-2.6691,-2.6175,-2.5023,-2.3298,0.0,-1.8756,-1.7124,-1.5788,-1.4499,-1.3741,-1.4114,-1.4246,-1.4369,0.0,-1.5415,-1.717,-2.0422,-2.1908,0.0,0.0,0.0,0.0,0.0,-3.4876,-3.5504,-3.5504,-3.5504,-3.5504,-3.5504,-3.5504,-3.5504,-3.5504,-3.5504,-3.5504,-3.5504,-3.5504,-3.5504,-3.5504,-3.5504,-3.4986,-3.4027,-3.3739,-3.3101,-3.2105,-3.118,-3.0758,0.0,-3.0075,-2.9792,-2.9792,-2.9792,-2.9792,-2.9792,-2.9792,-2.9792,-2.9792,-2.9792,-2.9792,-2.9792,-2.9792,-2.9792,-2.9792,-2.9792,-2.9792,-2.9792,-2.9792,-3.0279,-3.0758,-3.0758,-3.0758,-3.062,-2.9934,-2.9792,-2.9792,-2.9792,-2.9792,-2.9792,-2.9792,-2.9792,-3.0432,-3.2249,-3.2177,-3.2258,-3.3357,-3.3095,-3.2497,-3.1586,-3.1482,-3.1482,-3.1482,-3.1482,-3.1482,-3.1482,-3.1482,-3.1482,-3.1482,-3.1482,-3.1482,-3.1482,-3.1482,-3.1409,-3.1161,-2.9752,-2.8876,-2.862,-2.7162,-2.5955,-2.5016,-2.3963,-2.2776,-2.4036,-2.454,-2.454,-2.4523,-2.3608,-2.2273,-2.0499,-1.819,-1.6111,-1.5026,-1.3598,-1.2717,-1.3375,-1.3337,-1.3421,-1.4009,-1.4563,-1.6192,-1.9782,-2.1355,0.0,0.0,0.0,0.0,-3.2347,-3.4337,-3.5504,-3.5504,-3.5504,0.0,-3.5504,-3.5504,-3.5504,-3.5504,-3.5504,-3.5504,-3.5504,-3.5504,-3.5504,-3.5504,-3.5504,-3.4986,-3.3959,-3.3031,-3.2105,-3.118,-3.0203,-2.9792,0.0,-2.9792,-2.9792,-2.9792,-2.9792,-2.9792,-2.9792,-2.9792,-2.9792,-2.9792,-2.9792,-2.9792,-2.9792,-2.9792,-2.9792,-2.9792,-2.9792,-2.9792,-2.9792,-2.9792,-2.9792,-2.9792,-2.9792,-2.9792,-2.9792,-2.9792,-2.9792,-2.9792,-2.9792,-2.9792,-2.9792,-2.9792,-2.9792,-3.0432,-3.2249,-3.2593,-3.2818,-3.3416,-3.3484,-3.3021,-3.1646,-3.1482,-3.1482,-3.1482,-3.1482,-3.1482,-3.1482,-3.1482,-3.1482,-3.1482,-3.1482,-3.1482,-3.1482,-3.1482,-3.1146,-3.0329,-2.9442,-2.8556,-2.7736,-2.6905,-2.5955,-2.5016,-2.3963,-2.2489,-2.1729,-2.2547,-2.3095,-2.2423,-2.1752,-2.0809,-1.8986,-1.7098,-1.5485,-1.4633,-1.3403,-1.2633,-1.3078,-1.3181,-1.3624,-1.4965,-1.5711,0.0,0.0,0.0,0.0,0.0,0.0,0.0,0.0,0.0,-3.5733,-3.6228,-3.5782,-3.5504,-3.5504,-3.5504,-3.5504,-3.5504,-3.5504,-3.5504,-3.5504,-3.5504,-3.5504,-3.5504,-3.4839,-3.3959,-3.3031,-3.2105,-3.1119,-3.0203,-2.9934,-2.9792,-2.9792,-2.9792,-2.9792,-2.9792,-2.9792,-2.9792,-2.9792,-2.9792,-2.9792,-2.9792,-2.9792,-2.9792,-2.9792,-2.9792,-2.9792,-2.9792,-2.9792,-2.9792,-2.9792,-2.9792,-2.9792,-2.9792,-2.9792,-2.9792,-2.9792,-2.9792,-2.9792,-2.9792,-2.9792,-2.9792,-2.9792,-2.9792,-3.0355,-3.1119,-3.2393,-3.3101,-3.3671,-3.4088,-3.3784,-3.3185,-3.2317,-3.175,-3.1482,-3.1482,-3.1482,-3.1482,-3.1482,-3.1482,-3.1482,-3.1482,-3.1482,-3.1482,-3.1482,-3.1482,-3.1087,-3.0329,-2.9442,-2.8556,-2.767,-2.6905,-2.5955,-2.4933,-2.3294,-2.2357,-1.946,-2.045,-2.1149,-2.0527,-2.009,-1.9328,-1.7704,-1.6118,-1.4705,-1.3753,-1.2732,-1.2195,-1.2772,-1.2903,-1.3424,-1.4987,-1.6045,0.0,0.0,0.0,0.0,0.0,0.0,0.0,0.0,-3.548,-3.5668,-3.6165,-3.5782,-3.5504,-3.5504,-3.5504,-3.5504,-3.5504,-3.5504,-3.5504,-3.5504,-3.5504,-3.5504,-3.5504,-3.4461,-3.3518,-3.2593,-3.1609,-3.0696,-2.9792,-2.9792,-2.9792,0.0,-2.9792,-2.9792,-2.9792,-2.9792,-2.9792,-2.9792,-2.9792,-2.9792,-2.9792,-2.9792,-2.9792,-2.9792,-2.9792,-2.9792,-2.9792,-2.9792,-2.9792,-2.9792,-2.9792,-2.9792,-2.9792,-2.9792,-2.9792,-2.9792,-2.9792,-2.9792,-2.9792,-2.9792,-3.0075,-3.0355,-3.0355,-3.1119,-3.2033,-3.2961,-3.3602,-3.4095,-3.4435,-3.4128,-3.3529,-3.2632,-3.2153,-3.1925,-3.1925,-3.191,-3.2007,-3.2256,-3.1781,-3.1482,-3.1482,-3.1482,-3.1482,-3.1482,-3.1482,-3.1087,-3.0329,-2.9442,-2.8556,-2.767,-2.6483,-2.5581,-2.4945,-2.3557,-2.3048,0.0,-1.8161,-1.8716,-1.869,-1.839,-1.777,-1.6519,-1.5188,0.0,-1.2563,-1.1753,-1.1562,-1.2581,-1.265,-1.3013,-1.4511,-1.5991,0.0,0.0,0.0,0.0,0.0,0.0,0.0,-3.3683,-3.482,-3.5504,-3.5554,-3.5504,-3.5504,-3.5504,-3.5504,-3.5504,-3.5504,-3.5504,-3.5504,-3.5504,-3.5439,-3.5359,-3.5359,-3.4327,-3.331,-3.2464,-3.1536,-3.062,0.0,-2.9792,-2.9792,-2.9792,-2.9792,-2.9792,-2.9792,-2.9792,-2.9792,-2.9792,-2.9792,-2.9792,-2.9792,-2.9792,-2.9792,-2.9792,-2.9792,-2.9792,-2.9792,-2.9792,-2.9792,-2.9792,-2.9792,-2.9792,-2.9792,-2.9792,-2.9792,-2.9792,-2.9792,-2.9792,-2.9792,-2.9869,-3.0558,-3.1254,-3.1315,-3.2033,-3.2961,-3.3876,-3.4095,-3.4176,-3.4494,-3.4565,-3.4147,-3.2856,-3.2676,-3.2652,-3.2726,-3.2726,-3.2949,-3.3547,-3.2407,-3.164,-3.1582,-3.1582,-3.1524,-3.1482,-3.1482,-3.1087,-3.0329,-2.938,-2.8492,-2.767,-2.5963,-2.5087,-2.5099,-2.4625,-2.4416,-1.389,0.0,-1.6105,-1.5845,-1.5518,-1.5168,0.0,-1.3937,-1.3006,0.0,0.0,-1.2269,-1.3275,-1.3758,-1.4713,-1.6895,-1.8426,-1.9709,0.0,0.0,0.0,0.0,0.0,-3.4,-3.6546,-3.6012,-3.5718,-3.6275,-3.5846,-3.5504,-3.5504,-3.5504,-3.5504,-3.5504,-3.5504,-3.5504,-3.5504,-3.4758,-3.4327,-3.4312,-3.2678,-3.1742,-3.1536,-3.0558,-2.9998,-2.9792,-2.9792,-2.9792,-2.9792,-2.9792,-2.9792,-2.9792,-2.9792,-2.9792,-2.9792,-2.9792,-2.9792,-2.9792,-2.9792,-2.9792,-2.9792,-2.9792,-2.9792,-2.9792,-2.9792,-2.9792,-2.9792,-2.9792,-2.9792,-2.9792,-2.9792,-2.9792,-2.9792,-2.9792,-2.9792,-2.9998,-3.0696,-3.1044,-3.1389,-3.2105,-3.3031,-3.3739,-3.3959,-3.461,-3.5154,-3.528,-3.5322,-3.526,-3.4937,-3.4498,-3.4162,-3.4218,-3.3709,-3.3443,-3.3582,-3.3287,-3.2879,-3.2382,-3.2327,-3.2064,-3.1524,-3.1482,-3.1087,-3.0329,-2.8812,-2.792,-2.767,-2.6688,-2.6164,-2.6107,-2.566,-2.5671,-1.2336,-1.3912,-1.5496,-1.5286,-1.5119,-1.4903,-1.4582,0.0,0.0,0.0,0.0,0.0,-1.3728,-1.43,0.0,-1.7941,-1.9344,0.0,0.0,0.0,0.0,0.0,0.0,-3.4364,0.0,-3.5973,-3.5668,-3.6054,-3.5733,-3.5504,-3.5504,-3.5504,-3.5504,-3.5504,-3.5504,-3.5504,-3.5504,-3.4476,-3.4027,-3.3959,-3.2105,-3.118,-3.118,-3.0203,-2.9792,-2.9792,-2.9792,-2.9792,-2.9792,-2.9792,-2.9792,-2.9792,-2.9792,-2.9792,-2.9792,-2.9792,-2.9792,-2.9792,-2.9792,-2.9792,-2.9792,-2.9792,-2.9792,-2.9792,-2.9792,-3.0075,-3.0343,-2.9934,-2.9792,-2.9934,-3.0355,-3.0419,-3.0558,-3.0983,-3.1057,-3.1193,-3.1756,-3.2177,-3.2593,-3.3171,-3.4041,-3.4691,-3.4691,-3.5415,-3.6006,-3.6006,-3.6321,-3.6468,-3.6195,-3.5856,-3.5519,-3.5188,-3.4818,-3.4544,-3.4529,-3.4235,-3.3633,-3.2641,-3.2272,-3.191,-3.1539,-3.1482,-3.1087,-3.0329,-2.9002,-2.8117,-2.767,-2.6905,-2.6659,-2.6854,-2.6855,-2.7102,-1.2066,-1.3899,-1.5724,-1.5424,-1.5499,-1.5484,-1.4863,0.0,0.0,0.0,0.0,0.0,0.0,0.0,0.0,0.0,0.0,0.0,0.0,0.0,0.0,0.0,0.0,0.0,-3.5548,-3.5569,-3.5504,-3.5504,-3.5504,-3.5504,-3.5504,-3.5504,-3.5504,-3.5504,-3.5504,-3.5439,-3.5279,-3.4245,-3.3739,-3.3518,-3.1829,-3.097,-3.097,-3.0139,-2.9792,-2.9792,0.0,0.0,-2.9792,-2.9792,-2.9792,-2.9792,-2.9792,-2.9792,-2.9792,-2.9792,-2.9792,-2.9792,-2.9792,-2.9792,-2.9792,-2.9792,-2.9792,-2.9869,-3.0011,-3.0558,-3.1044,-3.0432,-3.0216,-3.0432,-3.118,-3.1389,-3.1609,-3.2393,-3.2593,-3.2664,-3.282,-3.3449,-3.4027,-3.4177,-3.4905,-3.5569,-3.5668,-3.6165,-3.6661,-3.6783,-3.744,-3.7753,-3.7182,-3.7132,-3.6885,-3.6257,-3.6125,-3.6021,-3.5982,-3.5127,-3.4149,-3.2998,-3.2109,-3.164,-3.1524,-3.1482,-3.1161,-3.0524,-2.9504,-2.862,-2.792,-2.7062,-2.6829,-2.7293,-2.7934,-2.8486,-1.3253,-1.4618,-1.5394,-1.3685,-1.412,-1.486,-1.4477,0.0,0.0,0.0,0.0,0.0,0.0,0.0,0.0,0.0,0.0,0.0,0.0,0.0,0.0,0.0,0.0,-3.4287,-3.6245,-3.5894,-3.5504,-3.5504,-3.5504,-3.5504,-3.5504,-3.5504,-3.5504,-3.5504,-3.5504,-3.5067,-3.4245,-3.331,-3.2393,-3.1609,-3.057,-2.9998,-2.9998,-2.9869,-2.9792,-2.9792,0.0,-2.9792,-2.9792,-2.9792,-2.9792,-2.9792,-2.9792,-2.9792,-2.9792,-2.9792,-2.9792,-2.9792,-2.9792,-2.9792,-2.9792,-2.9792,-2.9792,-2.9934,-3.0758,-3.1106,-3.1328,-3.1974,-3.2177,-3.2177,-3.2321,-3.2393,-3.2393,-3.2593,-3.2593,-3.282,-3.3602,-3.3876,-3.4245,-3.5133,-3.5359,-3.5733,-3.6337,-3.6554,-3.6843,-3.7515,-3.8246,-3.8696,-3.8581,-3.8633,-3.8622,-3.8503,-3.793,-3.7573,-3.7567,-3.5793,-3.4599,-3.4388,-3.3154,-3.216,-3.1524,-3.1482,-3.1409,-3.1351,-2.9766,-2.8939,-2.8812,-2.7708,-2.7205,-2.7306,-2.8335,-2.885,-1.2607,-1.3959,-1.5049,-1.412,-1.5126,-1.6397,-1.649,0.0,0.0,0.0,0.0,0.0,0.0,0.0,0.0,0.0,0.0,0.0,0.0,0.0,0.0,0.0,0.0,-3.4802,-3.6414,-3.6275,-3.6117,-3.6117,-3.5733,-3.5504,-3.5504,-3.5504,-3.5504,-3.5504,-3.5504,-3.4773,-3.3241,-3.282,-3.2105,-3.118,-3.0279,-2.9792,-2.9792,-2.9792,-2.9792,-2.9792,0.0,-2.9792,-2.9792,-2.9792,-2.9792,-2.9792,-2.9792,-2.9792,-2.9792,-2.9792,-2.9792,-2.9792,-2.9792,-2.9792,-2.9792,-2.9792,-3.0139,-3.062,-3.1031,-3.1888,-3.282,-3.3241,-3.2961,-3.2749,-3.3241,-3.338,-3.3463,-3.4056,-3.4192,-3.4274,-3.4706,-3.4839,-3.5088,-3.5928,-3.6117,-3.6352,-3.71,-3.76,-3.8003,-3.8358,-3.9032,-3.9542,-3.9542,-3.9564,-3.9428,-3.9039,-3.87,-3.8166,-3.7303,-3.6007,-3.4571,-3.3082,-3.2384,-3.1853,-3.1524,-3.1482,-3.1278,-3.0837,-2.9628,-2.8899,-2.8756,-2.7734,-2.7595,-2.8185,-2.8687,-2.9089,-1.256,-1.369,-1.4884,-1.5282,0.0,-1.782,-1.8594,0.0,0.0,0.0,0.0,0.0,0.0,0.0,0.0,0.0,0.0,0.0,0.0,-3.0791,-3.1671,-3.4234,-3.4467,-3.4965,-3.6266,-3.6335,-3.6322,-3.6322,-3.5804,-3.5504,-3.5504,-3.5504,-3.5504,-3.5504,-3.5504,-3.4706,-3.2961,-3.2961,-3.2249,-3.0833,-3.0139,-2.9792,-2.9792,-2.9792,-2.9792,-2.9792,-2.9792,-2.9792,-2.9792,-2.9792,-2.9792,-2.9792,-2.9792,-2.9792,-2.9792,-2.9792,-2.9792,-2.9792,-2.9792,-2.9792,-2.9869,-3.0075,-3.062,-3.1241,-3.1742,-3.289,-3.4027,-3.4312,-3.3822,-3.3463,-3.4177,-3.4327,-3.4543,-3.5294,-3.5504,-3.5504,-3.5504,-3.5619,-3.5943,-3.6492,-3.6722,-3.7144,-3.7905,-3.8525,-3.8962,-3.9139,-3.9731,-4.007,-4.007,-4.007,-3.9868,-3.9309,-3.9242,-3.8556,-3.6856,-3.6098,-3.4591,-3.2122,-3.1795,-3.1824,-3.1988,-3.1589,-3.119,-3.0701,-2.9672,-2.8998,-2.8697,-2.7997,-2.8109,-2.8925,-2.9063,-2.9365,-1.4607,-1.4927,-1.5176,-1.6745,0.0,0.0,-1.9493,-1.9569,0.0,0.0,0.0,0.0,0.0,0.0,0.0,0.0,0.0,0.0,0.0,0.0,-3.2205,-3.434,-3.4015,-3.4145,-3.553,-3.5607,-3.5581,-3.5581,-3.5546,-3.5504,-3.5504,-3.5504,-3.5504,-3.5504,-3.5504,-3.4986,-3.3876,-3.3876,-3.255,-2.9934,-2.9869,-2.9792,-2.9792,-2.9792,-2.9792,-2.9792,-2.9792,-2.9792,-2.9792,-2.9792,-2.9792,-2.9792,-2.9792,-2.9792,-2.9792,-2.9792,-2.9792,-2.9792,-2.9792,-2.9792,-2.9934,-3.0833,-3.1106,-3.1536,-3.3241,-3.3876,-3.4177,-3.5133,-3.5359,-3.5294,-3.5359,-3.5359,-3.5424,-3.5504,-3.5504,-3.5504,-3.5504,-3.6054,-3.6554,-3.6615,-3.7203,-3.7978,-3.869,-3.8854,-3.9139,-3.9901,-4.007,-4.007,-4.007,-4.007,-4.0054,-4.0003,-4.0003,-3.9122,-3.698,-3.6085,-3.4939,-3.3456,-3.2781,-3.2721,-3.332,-3.19,-3.1406,-3.1933,-3.0269,-2.9346,-2.9315,-2.8966,-2.885,-2.8938,-2.9478,-2.9754,-1.3479,-1.4499,-1.5685,-1.6738,0.0,0.0,0.0,0.0,0.0,0.0,0.0,0.0,0.0,0.0,0.0,0.0,0.0,0.0,-3.2059,-3.2213,-3.2779,-3.4399,-3.478,-3.5211,-3.6166,-3.6244,-3.6419,-3.6869,-3.6035,-3.5675,-3.615,-3.5718,-3.5504,-3.5504,-3.5504,-3.4986,-3.4027,-3.4027,-3.3171,-3.1549,-3.0983,-3.0343,-2.9792,-2.9792,-2.9792,-2.9792,-2.9792,-2.9792,-2.9792,-2.9792,-2.9792,-2.9792,-2.9792,-2.9792,-2.9792,-2.9792,-2.9792,-2.9792,-2.9792,-3.0216,-3.0771,-3.1106,-3.196,-3.3101,-3.3808,-3.4461,-3.4986,-3.5359,-3.5504,-3.5504,-3.5504,-3.5504,-3.5504,-3.5504,-3.5831,-3.6165,-3.6165,-3.6814,-3.7499,-3.793,-3.8286,-3.8745,-3.9489,-3.9662,-3.9731,-4.007,-4.007,-4.007,-4.007,-4.007,-3.9901,-3.9437,-3.8509,-3.7588,-3.6766,-3.5968,-3.5299,-3.4756,-3.3724,-3.3245,-3.3484,-3.2382,-3.1575,-3.1331,-3.0063,-2.9295,-2.9103,-2.8962,-2.9114,-2.9478,-2.9691,-2.9792,-1.3378,-1.4523,-1.5854,0.0,0.0,0.0,0.0,0.0,0.0,0.0,0.0,0.0,0.0,0.0,0.0,0.0,0.0,-3.1073,-3.2692,-3.2895,-3.3319,-3.4446,-3.5019,-3.563,-3.629,-3.6339,-3.6584,-3.7094,-3.6119,-3.5661,-3.5933,-3.569,-3.5416,-3.5175,-3.5385,-3.5133,-3.4461,-3.4461,-3.3959,-3.3031,-3.2393,-3.1609,-3.0709,-3.0709,-3.0709,-3.0633,-3.0355,-3.0203,-3.0203,-2.9934,-2.9792,-2.9792,-2.9792,-2.9792,-2.9792,-2.9792,-3.0011,-3.0203,-3.0203,-3.0833,-3.1669,-3.196,-3.2961,-3.4095,-3.4394,-3.4986,-3.5504,-3.5504,-3.5504,-3.5554,-3.5782,-3.5668,-3.5554,-3.5782,-3.6228,-3.6676,-3.6904,-3.7616,-3.8302,-3.8799,-3.9086,-3.9437,-4.002,-4.007,-4.007,-4.007,-4.007,-4.002,-3.9782,-3.9731,-3.9437,-3.8635,-3.7365,-3.6615,-3.6615,-3.5943,-3.5504,-3.5504,-3.4352,-3.3627,-3.3627,-3.2544,-3.1657,-3.0951,-3.0006,-2.9369,-2.9202,-2.9202,-2.9402,-2.9792,-2.9792,-2.9792,-1.4899,-1.5254,-1.5663,0.0,0.0,0.0,0.0,0.0,0.0,0.0,0.0,0.0,0.0,0.0,0.0,-3.0261,-3.1551,-3.2684,-3.3492,-3.3582,-3.3836,-3.4528,-3.4624,-3.4894,-3.5532,-3.5575,-3.5596,-3.5596,-3.5577,-3.5252,-3.4554,-3.5118,-3.5217,-3.4535,-3.513,-3.5504,-3.5504,-3.5504,-3.4986,-3.4027,-3.4027,-3.3518,-3.2593,-3.2593,-3.2593,-3.2522,-3.1609,-3.118,-3.1106,-3.0216,-2.9792,-2.9869,-2.9792,-2.9792,-2.9869,-2.9869,-3.0419,-3.118,-3.118,-3.1815,-3.2749,-3.3671,-3.4027,-3.4177,-3.5213,-3.5504,-3.5504,-3.5504,-3.5504,-3.5668,-3.6446,-3.6054,-3.5733,-3.6446,-3.6615,-3.6843,-3.7632,-3.8414,-3.8908,-3.8908,-3.9542,-4.007,-4.007,-4.007,-4.007,-4.007,-4.007,-3.9782,-3.9016,-3.8908,-3.8635,-3.7863,-3.71,-3.6615,-3.6615,-3.5958,-3.5504,-3.5504,-3.4543,-3.4027,-3.4027,-3.2443,-3.1507,-3.1241,-3.0279,-2.9792,-2.9792,-2.9792,-2.9792,-2.9792,-2.9792,-2.9792,-1.4634,-1.5854,0.0,0.0,0.0,0.0,0.0,0.0,0.0,0.0,0.0,0.0,0.0,0.0,0.0,-2.9653,-3.0842,-3.219,-3.3371,-3.3974,-3.4544,-3.5207,-3.5316,-3.5362,-3.5577,-3.5609,-3.5823,-3.6407,-3.591,-3.5501,-3.5332,-3.5018,-3.4712,-3.4523,-3.4669,-3.5026,-3.5504,-3.5504,-3.5359,-3.5067,-3.5067,-3.4192,-3.2593,-3.2593,-3.2593,-3.2593,-3.2321,-3.2177,-3.2105,-3.1193,-3.1193,-3.1696,-3.1044,-3.1193,-3.1756,-3.1756,-3.1974,-3.2177,-3.2177,-3.282,-3.3602,-3.3876,-3.4461,-3.5133,-3.5424,-3.5831,-3.6275,-3.6275,-3.6707,-3.7175,-3.7397,-3.7294,-3.7175,-3.7397,-3.7831,-3.827,-3.8525,-3.9209,-3.9714,-3.9714,-3.9952,-4.007,-4.007,-4.007,-4.007,-4.007,-4.007,-3.9782,-3.9016,-3.8469,-3.7847,-3.7024,-3.6722,-3.6384,-3.5894,-3.5619,-3.5213,-3.4461,-3.4177,-3.4027,-3.4027,-3.2286,-3.1289,-3.1167,-3.0279,-2.9792,-2.9792,-2.9792,-2.9792,-2.9792,-2.9792,-2.9792,-1.5539,0.0,0.0,0.0,0.0,0.0,0.0,0.0,0.0,0.0,0.0,0.0,0.0,0.0,0.0,-3.0455,-3.1254,-3.2307,-3.3711,-3.4289,-3.4827,-3.5543,-3.5622,-3.5622,-3.5622,-3.5622,-3.5808,-3.6282,-3.5894,-3.5498,-3.5302,-3.4793,-3.441,-3.4121,-3.4337,-3.4669,-3.51,-3.537,-3.5504,-3.5504,-3.5504,-3.492,-3.3754,-3.3754,-3.3754,-3.3754,-3.331,-3.2961,-3.2522,-3.196,-3.2105,-3.2522,-3.196,-3.2105,-3.2593,-3.2593,-3.282,-3.3171,-3.3171,-3.3822,-3.461,-3.461,-3.4986,-3.5554,-3.5831,-3.6275,-3.6676,-3.6964,-3.7456,-3.7879,-3.8133,-3.8246,-3.8246,-3.8246,-3.858,-3.8978,-3.9315,-3.9782,-4.007,-4.007,-4.007,-4.007,-4.007,-4.007,-4.007,-4.007,-3.9575,-3.8995,-3.8541,-3.7515,-3.6707,-3.6228,-3.6165,-3.6006,-3.5569,-3.5133,-3.4624,-3.4027,-3.331,-3.289,-3.289,-3.1815,-3.1044,-3.062,-3.0075,-2.9792,-2.9792,-2.9792,-2.9792,-2.9792,-2.9792,-2.9792,-1.7031,0.0,0.0,0.0,0.0,0.0,0.0,0.0,0.0,0.0,0.0,0.0,0.0,0.0,-3.0632,-3.1968,-3.2239,-3.2747,-3.41,-3.4404,-3.4742,-3.5436,-3.5571,-3.5622,-3.5622,-3.5622,-3.5622,-3.5622,-3.5622,-3.5316,-3.464,-3.4605,-3.4298,-3.3603,-3.4196,-3.4512,-3.4619,-3.5232,-3.5529,-3.5529,-3.5474,-3.5504,-3.5504,-3.5504,-3.5504,-3.5439,-3.4543,-3.3671,-3.289,-3.2749,-3.282,-3.289,-3.2749,-3.282,-3.289,-3.289,-3.338,-3.4177,-3.4216,-3.481,-3.5619,-3.5683,-3.5748,-3.5846,-3.6508,-3.6783,-3.6964,-3.769,-3.7921,-3.8149,-3.8854,-3.9032,-3.9032,-3.9032,-3.9032,-3.9193,-3.9952,-4.007,-4.007,-4.007,-4.007,-4.007,-4.007,-4.007,-4.007,-4.007,-3.8778,-3.7806,-3.7863,-3.6538,-3.5619,-3.5619,-3.5619,-3.5554,-3.5504,-3.461,-3.3959,-3.3876,-3.2177,-3.118,-3.1106,-3.1031,-3.0696,-2.9792,-2.9792,-2.9792,-2.9792,-2.9792,-2.9792,-2.9792,-2.9792,-2.9792,0.0,-1.7833,0.0,0.0,0.0,0.0,0.0,0.0,0.0,0.0,0.0,0.0,0.0,-3.1072,-3.1072,-3.1376,-3.1901,-3.2391,-3.2713,-3.3761,-3.4556,-3.4726,-3.5267,-3.5622,-3.5622,-3.5622,-3.5622,-3.5622,-3.5622,-3.5316,-3.464,-3.4601,-3.453,-3.4349,-3.4514,-3.4829,-3.5358,-3.5416,-3.5508,-3.5508,-3.5477,-3.5504,-3.5504,-3.5504,-3.5504,-3.5504,-3.5279,-3.5067,-3.4854,-3.4027,-3.4177,-3.4787,-3.4027,-3.4177,-3.4854,-3.4854,-3.4986,-3.5249,-3.5867,-3.6166,-3.6446,-3.7115,-3.7294,-3.7354,-3.7515,-3.7962,-3.8453,-3.8619,-3.9102,-3.961,-3.9782,-3.9833,-3.9833,-3.9833,-3.9833,-3.9901,-4.007,-4.007,-4.007,-4.007,-4.007,-4.007,-4.007,-4.007,-4.007,-4.007,-3.8778,-3.8035,-3.858,-3.7306,-3.6384,-3.6384,-3.6384,-3.6117,-3.5554,-3.461,-3.3671,-3.2961,-3.1815,-3.0908,-3.0139,-3.0075,-2.9998,-2.9792,-2.9792,-2.9792,-2.9792,-2.9792,-2.9792,-2.9792,-2.9792,-2.9792,0.0,0.0,0.0,0.0,0.0,0.0,0.0,0.0,0.0,0.0,0.0,0.0,0.0,-3.119,-3.119,-3.119,-3.1512,-3.1884,-3.2263,-3.2949,-3.3575,-3.3931,-3.4624,-3.5081,-3.5081,-3.5402,-3.5622,-3.5622,-3.5622,-3.547,-3.5098,-3.4755,-3.4574,-3.4621,-3.4626,-3.4784,-3.513,-3.5033,-3.5164,-3.5519,-3.518,-3.519,-3.5504,-3.5504,-3.5504,-3.5504,-3.5504,-3.5504,-3.5439,-3.492,-3.5052,-3.5439,-3.4905,-3.5285,-3.6006,-3.6006,-3.6243,-3.6662,-3.704,-3.7144,-3.7263,-3.7632,-3.7822,-3.7879,-3.8189,-3.858,-3.8962,-3.9368,-3.9489,-3.9542,-3.9542,-3.9279,-3.9102,-3.9437,-3.9833,-4.007,-4.007,-4.007,-4.007,-4.007,-4.007,-4.007,-4.007,-4.007,-4.007,-4.007,-3.9102,-3.8469,-3.8854,-3.7526,-3.6615,-3.6615,-3.6275,-3.5737,-3.4839,-3.3891,-3.2961,-3.196,-3.1044,-3.0279,-2.9792,-2.9792,-2.9792,-2.9792,-2.9792,-2.9792,-2.9792,-2.9792,-2.9792,-2.9792,-2.9792,-2.9792,0.0,0.0,0.0,0.0,0.0,0.0,0.0,0.0,0.0,0.0,0.0,0.0,-3.119,-3.119,-3.119,-3.119,-3.119,-3.1433,-3.2106,-3.2332,-3.2655,-3.3243,-3.3973,-3.4389,-3.4303,-3.4979,-3.5419,-3.5419,-3.5537,-3.5622,-3.5622,-3.5052,-3.4783,-3.4783,-3.4756,-3.4759,-3.4759,-3.4699,-3.4909,-3.5326,-3.4652,-3.4666,-3.5325,-3.5325,-3.5385,-3.5504,-3.5504,-3.5504,-3.5504,-3.5504,-3.5554,-3.5668,-3.5668,-3.6117,-3.6783,-3.6783,-3.7219,-3.7822,-3.7921,-3.7978,-3.8035,-3.8149,-3.8092,-3.8092,-3.869,-3.8799,-3.887,-3.9506,-3.9209,-3.869,-3.869,-3.8246,-3.7978,-3.858,-3.9315,-3.9952,-4.007,-4.007,-4.007,-4.007,-4.007,-4.007,-4.007,-4.007,-4.007,-4.007,-3.9437,-3.8908,-3.8908,-3.7526,-3.6615,-3.6615,-3.5943,-3.5067,-3.4095,-3.3171,-3.2177,-3.1241,-3.0355,-2.9792,-2.9792,-2.9792,-2.9792,-2.9792,-2.9792,-2.9792,-2.9792,-2.9792,-2.9792,-2.9792,-2.9792,-2.9792,0.0,0.0,0.0,0.0,0.0,0.0,0.0,0.0,0.0,0.0,0.0,-3.119,-3.119,-3.119,-3.119,-3.119,-3.119,-3.1346,-3.178,-3.2475,-3.2942,-3.3045,-3.368,-3.4003,-3.3584,-3.4201,-3.4641,-3.4641,-3.525,-3.5622,-3.5622,-3.5515,-3.547,-3.547,-3.5463,-3.5467,-3.5467,-3.5465,-3.5198,-3.4711,-3.3951,-3.3963,-3.4607,-3.4607,-3.4936,-3.5504,-3.5504,-3.5504,-3.5504,-3.5504,-3.5894,-3.6446,-3.6446,-3.6919,-3.7632,-3.7632,-3.769,-3.7863,-3.8525,-3.8745,-3.8854,-3.9558,-3.9315,-3.8745,-3.8854,-3.8469,-3.7978,-3.8092,-3.8035,-3.7921,-3.7921,-3.7863,-3.7806,-3.7921,-3.8525,-3.9262,-3.9952,-4.007,-4.007,-4.007,-4.007,-4.007,-4.007,-4.007,-4.007,-4.007,-3.9437,-3.8908,-3.8908,-3.7526,-3.6615,-3.6615,-3.5943,-3.5067,-3.4095,-3.3171,-3.2177,-3.1241,-3.0355,-2.9792,-2.9792,-2.9792,-2.9792,-2.9792,-2.9792,-2.9792,-2.9792,-2.9792,-2.9792,-2.9792,-2.9792,-2.9792,-1.5088,-1.8364,0.0,0.0,0.0,0.0,0.0,0.0,0.0,0.0,0.0,-3.0717,-3.1123,-3.119,-3.119,-3.119,-3.119,-3.1351,-3.1752,-3.2119,-3.2345,-3.2345,-3.3,-3.3291,-3.2805,-3.3457,-3.388,-3.388,-3.4573,-3.4979,-3.4979,-3.5402,-3.5622,-3.5622,-3.5622,-3.5622,-3.5622,-3.5226,-3.4702,-3.3991,-3.4029,-3.4031,-3.3918,-3.3918,-3.4502,-3.5504,-3.5504,-3.5718,-3.6117,-3.6117,-3.6569,-3.7263,-3.7263,-3.7732,-3.8414,-3.8414,-3.8707,-3.9119,-3.9437,-3.9262,-3.8962,-3.9315,-3.8924,-3.8302,-3.8302,-3.8035,-3.7822,-3.7822,-3.7456,-3.716,-3.716,-3.6814,-3.66,-3.704,-3.7365,-3.7815,-3.8652,-3.9156,-3.9332,-3.8887,-3.9506,-3.9952,-3.9489,-3.9782,-4.007,-4.007,-3.9782,-3.9437,-3.8962,-3.7946,-3.7084,-3.6676,-3.5434,-3.4259,-3.331,-3.2393,-3.1402,-3.0482,-2.9998,-2.9792,-2.9792,-2.9792,-2.9792,-2.9792,-2.9792,-2.9792,-2.9792,-2.9792,-2.9792,-2.9792,-2.9792,-2.9792,-1.5798,-1.8374,-2.0355,-2.2343,0.0,0.0,0.0,0.0,0.0,0.0,-2.8685,-2.9753,-3.0497,-3.0937,-3.119,-3.119,-3.119,-3.1389,-3.1897,-3.1897,-3.1844,-3.1951,-3.2418,-3.2538,-3.2083,-3.2679,-3.3119,-3.3119,-3.3795,-3.4303,-3.4472,-3.503,-3.5419,-3.556,-3.5622,-3.5622,-3.5622,-3.4941,-3.423,-3.3505,-3.3867,-3.3719,-3.3245,-3.3245,-3.3873,-3.5011,-3.5175,-3.5679,-3.6322,-3.6492,-3.7084,-3.7822,-3.7822,-3.8246,-3.8854,-3.869,-3.8978,-3.9506,-3.9506,-3.9102,-3.8635,-3.8635,-3.8133,-3.7515,-3.7515,-3.7338,-3.7251,-3.7251,-3.6753,-3.6337,-3.6337,-3.5879,-3.5619,-3.6165,-3.643,-3.6783,-3.7632,-3.8358,-3.869,-3.7921,-3.9065,-3.9833,-3.9032,-3.9558,-4.007,-4.007,-3.9901,-3.9489,-3.869,-3.7962,-3.7084,-3.6026,-3.4802,-3.3518,-3.2321,-3.1609,-3.0833,-2.9869,-2.9792,-2.9792,-2.9792,-2.9792,-2.9792,-2.9792,-2.9792,-2.9792,-2.9792,-2.9792,-2.9792,-2.9792,-2.9534,-2.9365,-1.365,-1.4766,0.0,0.0,0.0,0.0,0.0,0.0,0.0,0.0,-2.7857,-2.818,-2.8958,-3.0243,-3.119,-3.119,-3.119,-3.1504,-3.235,-3.2057,-3.1968,-3.2417,-3.2109,-3.1691,-3.128,-3.1901,-3.2341,-3.2341,-3.3034,-3.3761,-3.4455,-3.4523,-3.4878,-3.5605,-3.5622,-3.5622,-3.5622,-3.4941,-3.4252,-3.3594,-3.2973,-3.266,-3.2557,-3.2557,-3.2946,-3.3634,-3.4262,-3.4955,-3.5619,-3.6337,-3.7084,-3.7822,-3.7822,-3.8246,-3.8799,-3.8149,-3.7863,-3.7921,-3.7921,-3.7863,-3.7863,-3.7863,-3.7338,-3.6661,-3.6661,-3.6165,-3.5619,-3.5619,-3.5554,-3.5554,-3.5554,-3.5504,-3.5504,-3.5569,-3.6117,-3.6783,-3.7632,-3.8358,-3.869,-3.7921,-3.9065,-3.9833,-3.9032,-3.9558,-4.007,-4.007,-3.9437,-3.869,-3.7978,-3.7144,-3.6026,-3.4351,-3.4013,-3.3241,-3.1462,-3.1254,-3.0833,-2.9869,-2.9792,-2.9792,-2.9792,-2.9792,-2.9792,-2.9792,-2.9792,-2.9792,-2.9792,-2.9792,-2.9792,-2.9792,-2.8688,-2.8176,-1.272,-1.4462,0.0,0.0,0.0,0.0,0.0,0.0,0.0,0.0,-2.6776,-2.7334,-2.8095,-2.9482,-3.0497,-3.0497,-3.0886,-3.1389,-3.1968,-3.1933,-3.1861,-3.2022,-3.188,-3.1623,-3.123,-3.1427,-3.1579,-3.1579,-3.2273,-3.2797,-3.3051,-3.3541,-3.4134,-3.4878,-3.4895,-3.5131,-3.5622,-3.5362,-3.4704,-3.3582,-3.3339,-3.2749,-3.1884,-3.1884,-3.2243,-3.2886,-3.311,-3.4106,-3.5569,-3.5843,-3.6692,-3.7822,-3.7822,-3.8246,-3.8799,-3.8092,-3.8092,-3.8414,-3.7978,-3.7456,-3.7024,-3.7024,-3.6508,-3.5894,-3.5894,-3.5733,-3.5504,-3.5504,-3.5504,-3.5504,-3.5504,-3.5504,-3.5619,-3.6117,-3.6384,-3.6783,-3.7632,-3.8358,-3.8509,-3.7247,-3.8286,-3.9262,-3.8962,-3.9558,-3.9901,-3.9437,-3.9086,-3.8453,-3.7203,-3.6783,-3.5963,-3.4216,-3.3449,-3.2593,-3.1315,-3.062,-3.0139,-2.9792,-2.9792,-2.9792,-2.9792,-2.9792,-2.9792,-2.9792,-2.9792,-2.9792,-2.9792,-2.9792,-2.9792,-2.9792,-2.9365,-2.9197,-1.1823,0.0,0.0,0.0,0.0,0.0,0.0,0.0,0.0,0.0,-2.5909,-2.6604,-2.6979,-2.8315,-2.9516,-3.0023,-3.0514,-3.1079,-3.1718,-3.1696,-3.166,-3.1789,-3.1696,-3.1507,-3.123,-3.119,-3.119,-3.119,-3.1647,0.0,-3.2313,-3.2747,-3.3372,-3.4117,-3.437,-3.4742,-3.5233,-3.5227,-3.4704,-3.3582,-3.3391,-3.261,-3.1482,-3.1482,-3.1764,-3.2183,-3.2183,-3.32,-3.494,-3.538,-3.6154,-3.7065,-3.7302,-3.7716,-3.806,-3.7279,-3.7338,-3.7674,-3.7175,-3.6707,-3.6228,-3.6228,-3.5894,-3.5504,-3.5504,-3.5504,-3.5504,-3.5504,-3.5504,-3.5504,-3.5504,-3.5668,-3.607,-3.6798,-3.7188,-3.7424,-3.7748,-3.8189,-3.8246,-3.7203,-3.823,-3.9209,-3.8962,-3.9558,-3.985,-3.9032,-3.869,-3.793,-3.6353,-3.5869,-3.5035,-3.3227,-3.2536,-3.1756,-3.0833,-3.0139,-2.9792,-2.9792,-2.9792,-2.9792,-2.9792,-2.9792,-2.9792,-2.9792,-2.9792,-2.9792,-2.9792,-2.9792,-2.9792,-2.9792,-2.9443,-2.904,0.0,0.0,0.0,0.0,0.0,0.0,0.0,0.0,0.0,-2.4024,-2.5227,-2.5863,-2.5622,-2.6776,-2.8212,-2.9753,-3.004,-3.0445,-3.156,-3.1397,-3.1317,-3.1681,-3.1432,-3.119,-3.119,-3.119,-3.119,-3.119,-3.119,-3.1495,-3.2246,-3.2313,-3.2611,-3.3339,-3.41,-3.4489,-3.4489,-3.4529,-3.4235,-3.3531,-3.2895,-3.2216,-3.1482,-3.1482,-3.1482,-3.1482,-3.1482,-3.2258,-3.3546,-3.494,-3.5577,-3.5654,-3.6291,-3.6615,-3.6492,-3.5782,-3.5504,-3.5504,-3.5504,-3.5504,-3.5504,-3.5504,-3.5504,-3.5504,-3.5504,-3.5504,-3.5504,-3.5504,-3.5504,-3.5504,-3.5504,-3.6117,-3.6843,-3.7632,-3.8358,-3.869,-3.8035,-3.7879,-3.7806,-3.7806,-3.9049,-3.9833,-3.9086,-3.9594,-3.9833,-3.8962,-3.8246,-3.7156,-3.5383,-3.4493,-3.331,-3.1389,-3.118,-3.0833,-2.9856,-2.9792,-2.9792,-2.9792,-2.9792,-2.9792,-2.9792,-2.9792,-2.9792,-2.9792,-2.9792,-2.9792,-2.9792,-2.9792,-2.9792,-2.9792,-2.8688,-2.7614,-1.2195,0.0,0.0,0.0,0.0,0.0,0.0,0.0,0.0,-2.2383,-2.2794,-2.3144,-2.4554,-2.5575,-2.6522,-2.7486,-2.8569,-2.942,-2.9753,-3.0133,-3.0434,-3.0568,-3.093,-3.119,-3.119,-3.119,-3.119,0.0,-3.119,-3.1275,-3.1478,-3.1985,-3.2374,-3.2594,-3.3362,-3.3769,-3.3769,-3.3828,-3.3531,-3.2895,-3.2695,-3.2216,-3.1482,-3.1482,-3.1482,-3.1482,-3.1482,-3.1676,-3.2168,-3.3517,-3.4379,-3.4878,-3.5574,-3.6117,-3.6492,-3.5782,-3.5846,-3.6228,-3.5668,-3.5504,-3.5504,-3.5504,-3.5504,-3.5504,-3.5504,-3.5504,-3.5504,-3.5504,-3.5504,-3.5619,-3.6165,-3.7247,-3.8342,-3.8525,-3.8745,-3.9016,-3.9385,-3.8995,-3.858,-3.858,-3.8924,-3.9368,-3.9731,-3.9952,-3.9627,-3.8318,-3.7921,-3.6977,-3.4626,-3.4134,-3.331,-3.1389,-3.118,-3.0833,-2.9856,-2.9792,-2.9792,-2.9792,-2.9792,-2.9792,-2.9792,-2.9792,-2.9792,-2.9792,-2.9792,-2.9792,-2.9792,-2.9792,-2.9792,-2.9792,-2.9456,-2.9197,-1.3532,0.0,0.0,0.0,0.0,0.0,-1.816,-1.8202,0.0,0.0,-2.1883,-2.2365,-2.3774,-2.4628,-2.527,-2.5693,-2.6776,-2.7892,-2.8856,-2.9364,-2.9634,-2.9634,-3.0006,-3.0395,-3.0717,-3.0734,-3.0869,-3.1173,-3.119,-3.119,-3.119,-3.1596,-3.1833,-3.1833,-3.2347,-3.2615,-3.2615,-3.2704,-3.2562,-3.2168,-3.2133,-3.191,-3.1482,-3.1482,-3.1482,-3.1482,-3.1482,-3.1482,-3.1556,-3.2662,-3.3469,-3.4128,-3.4816,-3.5525,-3.6117,-3.5683,-3.5782,-3.6054,-3.5668,-3.5504,-3.5504,-3.5504,-3.5504,-3.5504,-3.5504,-3.5504,-3.5504,-3.5504,-3.5733,-3.6243,-3.7306,-3.823,-3.8962,-3.9315,-3.9368,-3.9542,-4.002,-3.9731,-3.9368,-3.9368,-3.9368,-3.9542,-4.002,-3.9833,-3.9209,-3.7978,-3.7156,-3.5934,-3.3711,-3.3101,-3.2249,-3.0758,-3.0633,-3.0419,-2.9869,-2.9792,-2.9792,-2.9792,-2.9792,-2.9792,-2.9792,-2.9792,-2.9792,-2.9792,-2.9792,-2.9792,-2.9792,-2.9792,-2.9792,-2.9792,-2.9792,-2.9792,-1.5172,-1.5477,0.0,0.0,-1.6319,0.0,-1.8802,-1.8297,-1.7861,0.0,0.0,-2.2367,-2.2909,-2.3697,-2.4235,-2.4167,-2.4881,-2.6218,-2.8315,-2.8738,-2.8856,-2.8856,-2.896,-2.9245,-2.9922,-2.9989,-3.0277,-3.1021,-3.114,-3.119,-3.119,-3.119,-3.119,-3.119,-3.1257,-3.1303,-3.1303,-3.141,-3.1473,-3.1473,-3.1479,-3.1482,-3.1482,-3.1482,-3.1482,-3.1482,-3.1482,-3.1482,-3.1526,-3.2153,-3.2841,-3.3559,-3.4218,-3.4906,-3.5504,-3.5504,-3.5504,-3.5504,-3.5504,-3.5504,-3.5504,-3.5504,-3.5504,-3.5504,-3.5504,-3.5504,-3.5504,-3.5619,-3.6228,-3.7188,-3.8564,-3.8978,-3.9193,-3.9952,-4.007,-4.007,-4.007,-4.007,-4.007,-4.007,-4.007,-4.007,-3.9952,-3.9368,-3.8635,-3.7806,-3.6245,-3.4604,-3.2792,-3.1742,-3.0833,-2.9934,-2.9792,-2.9792,-2.9792,-2.9792,-2.9792,-2.9792,-2.9792,-2.9792,-2.9792,-2.9792,-2.9792,-2.9792,-2.9792,-2.9792,-2.9792,-2.9792,-2.9792,-2.9792,-2.9792,-2.9792,-1.8082,-1.8149,-1.8183,-1.7896,0.0,0.0,-1.6576,-1.6764,-1.7311,0.0,-1.8739,-1.9327,-2.0458,-2.1803,-2.253,-2.1949,-2.3473,-2.5067,-2.6116,-2.73,-2.8044,-2.8044,-2.8602,-2.9042,-2.9194,-2.9194,-2.9516,-3.026,-3.0869,-3.119,-3.119,-3.119,-3.119,-3.119,-3.0811,-3.0585,-3.0585,-3.0643,-3.0714,-3.0729,-3.1252,-3.1482,-3.1482,-3.1482,-3.1482,-3.1482,-3.1482,-3.1482,-3.1482,-3.1616,-3.2422,-3.3559,-3.4218,-3.4906,-3.5504,-3.5504,-3.5504,-3.5504,-3.5504,-3.5504,-3.5504,-3.5504,-3.5504,-3.5504,-3.5504,-3.5504,-3.5619,-3.6228,-3.7365,-3.8509,-3.8854,-3.9368,-3.9901,-4.007,-4.007,-4.007,-4.007,-4.007,-4.007,-4.007,-4.007,-3.9901,-3.9262,-3.9016,-3.8453,-3.7024,-3.5872,-3.4604,-3.2792,-3.1742,-3.0833,-2.9934,-2.9792,-2.9792,-2.9792,-2.9792,-2.9792,-2.9792,-2.9792,-2.9792,-2.9792,-2.9792,-2.9792,-2.9792,-2.9792,-2.9792,-2.9792,-2.9792,-2.9792,-2.9792,-2.9792,-2.9792,-1.957,-1.9452,-1.9367,-1.8988,0.0,0.0,0.0,-1.7054,-1.7249,-1.8606,-1.8387,-1.8484,-2.0272,0.0,-2.1177,-2.1177,-2.2762,-2.3934,-2.3968,-2.522,-2.615,-2.615,-2.6826,-2.7435,-2.7807,-2.818,-2.8721,-2.9482,-3.0226,-3.0649,-3.0649,-3.1004,-3.119,-3.119,-3.0655,-3.0206,-2.9888,-2.9964,-3.0008,-3.0058,-3.0717,-3.121,-3.1482,-3.1482,-3.1482,-3.1482,-3.1482,-3.1697,-3.2064,-3.2064,-3.2854,-3.4094,-3.4467,-3.4988,-3.555,-3.5932,-3.5846,-3.5504,-3.5504,-3.5504,-3.5504,-3.5504,-3.5504,-3.5504,-3.5504,-3.5782,-3.629,-3.7424,-3.827,-3.8962,-3.9368,-3.9782,-4.007,-4.007,-4.007,-4.007,-4.007,-3.9782,-3.9489,-3.9489,-3.9209,-3.8941,-3.8908,-3.827,-3.7318,-3.6075,-3.4765,-3.3433,-3.2092,-3.1044,-3.0355,-2.9869,-2.9792,-2.9792,-2.9792,-2.9792,-2.9792,-2.9792,-2.9792,-2.9792,-2.9792,-2.9792,-2.9792,-2.9792,-2.9792,-2.9792,-2.9792,-2.9792,-2.9792,-2.9792,-2.9792,-2.9792,0.0,-2.0542,-2.0542,0.0,0.0,-1.864,0.0,0.0,0.0,-1.9224,-1.8735,0.0,0.0,0.0,0.0,0.0,0.0,0.0,0.0,-2.2919,0.0,-2.4269,-2.4932,-2.5625,-2.6218,-2.681,-2.7621,-2.8687,-2.9194,-2.9651,-3.0091,-3.0666,-3.0999,-3.1015,-3.0559,-3.0038,-2.9406,-2.9596,-2.9689,-2.978,-3.0398,-3.0964,-3.1482,-3.1482,-3.1582,-3.1682,-3.1682,-3.2104,-3.2788,-3.2788,-3.3514,-3.4599,-3.4643,-3.5027,-3.5566,-3.6167,-3.5995,-3.5504,-3.5504,-3.5504,-3.5504,-3.5504,-3.5619,-3.5733,-3.5733,-3.6352,-3.7291,-3.8564,-3.9016,-3.9262,-3.9952,-4.007,-4.007,-4.007,-3.9952,-3.985,-3.985,-3.9262,-3.869,-3.869,-3.8076,-3.7732,-3.8342,-3.7408,-3.626,-3.5155,-3.3654,-3.2249,-3.1315,-3.0343,-2.9792,-2.9792,-2.9792,-2.9792,-2.9792,-2.9792,-2.9792,-2.9792,-2.9792,-2.9792,-2.9792,-2.9792,-2.9792,-2.9792,-2.9792,-2.9792,-2.9792,-2.9792,-2.9792,-2.9792,-2.9792,-2.9792,0.0,0.0,0.0,0.0,-2.0897,0.0,0.0,0.0,-1.8538,-1.8132,0.0,0.0,0.0,0.0,0.0,0.0,0.0,0.0,-1.9486,-2.0602,-2.2067,-2.3359,-2.4171,-2.4675,-2.476,-2.4814,-2.5727,-2.7755,-2.7418,-2.7977,-3.0006,-3.0192,-3.0264,-3.0418,-3.0351,-3.0038,-2.9406,-3.0018,-3.0336,-3.0402,-3.0997,-3.1363,-3.1482,-3.1482,-3.1853,-3.2492,-3.2492,-3.2841,-3.3495,-3.3495,-3.3935,-3.4628,-3.4635,-3.4974,-3.5519,-3.5581,-3.5552,-3.5504,-3.5504,-3.5504,-3.5504,-3.5504,-3.5943,-3.6508,-3.6508,-3.7467,-3.8674,-3.8854,-3.942,-3.9952,-4.007,-4.007,-4.007,-4.007,-3.9558,-3.9032,-3.9032,-3.8469,-3.7921,-3.7921,-3.7263,-3.6783,-3.6843,-3.6722,-3.6026,-3.4389,-3.3227,-3.2249,-3.1315,-3.0343,-2.9792,-2.9792,-2.9792,-2.9792,-2.9792,-2.9792,-2.9792,-2.9792,-2.9792,-2.9792,-2.9792,-2.9792,-2.9792,-2.9792,-2.9792,-2.9792,-2.9792,-2.9792,-2.9792,-2.9792,-2.9792,-2.9792,0.0,0.0,0.0,0.0,0.0,0.0,-1.8521,0.0,-1.8927,0.0,0.0,0.0,0.0,0.0,0.0,0.0,-2.0094,0.0,0.0,0.0,-2.0247,0.0,0.0,0.0,-2.3765,-2.3849,-2.4315,-2.5447,-2.558,-2.6247,-2.7684,-2.897,-2.9805,-3.0162,-3.062,-3.0518,-2.9951,-3.0201,-3.039,-3.0431,-3.1142,-3.1699,-3.2104,-3.2531,-3.2879,-3.3198,-3.3198,-3.3531,-3.4186,-3.4186,-3.4592,-3.5178,-3.5195,-3.5328,-3.563,-3.6052,-3.6209,-3.6119,-3.5661,-3.5782,-3.6165,-3.6165,-3.6337,-3.6783,-3.7642,-3.8398,-3.9016,-3.9489,-3.9833,-4.007,-4.007,-3.9782,-3.9368,-3.9368,-3.8816,-3.8246,-3.8246,-3.7674,-3.7084,-3.7084,-3.6461,-3.5943,-3.5943,-3.5499,-3.4655,-3.3366,-3.2393,-3.1476,-3.0482,-3.0075,-2.9792,-2.9792,-2.9792,-2.9792,-2.9792,-2.9792,-2.9792,-2.9792,-2.9792,-2.9792,-2.9792,-2.9792,-2.9792,-2.9792,-2.9792,-2.9792,-2.9792,-2.9792,-2.9792,-2.9792,-2.9792,-2.9792,-2.2665,0.0,0.0,0.0,0.0,0.0,0.0,0.0,0.0,0.0,0.0,0.0,0.0,0.0,0.0,0.0,0.0,-1.9478,0.0,0.0,0.0,0.0,0.0,0.0,0.0,-2.2445,-2.2538,-2.3803,-2.3637,-2.4176,-2.5786,-2.7476,-2.8787,-2.9599,-3.0443,-3.0734,-3.0293,-3.0477,-3.057,-3.0647,-3.1386,-3.2015,-3.254,-3.3278,-3.3684,-3.3887,-3.3887,-3.4235,-3.4894,-3.4894,-3.5144,-3.5622,-3.5622,-3.5605,-3.5679,-3.6421,-3.6574,-3.6348,-3.5951,-3.6165,-3.6615,-3.6615,-3.6904,-3.7408,-3.8564,-3.9016,-3.9368,-3.9952,-4.007,-4.007,-3.9833,-3.9315,-3.8854,-3.8635,-3.8019,-3.7456,-3.7456,-3.6859,-3.6275,-3.6275,-3.5894,-3.5504,-3.5504,-3.4905,-3.4109,-3.3101,-3.2393,-3.1536,-3.0355,-3.0216,-3.0075,-2.9869,-2.9792,-2.9792,-2.9792,-2.9792,-2.9792,-2.9792,-2.9792,-2.9792,-2.9792,-2.9792,-2.9792,-2.9792,-2.9792,-2.9792,-2.9792,-2.9792,-2.9792,-2.9792,-2.9792,-2.9792,0.0,0.0,0.0,-2.0762,0.0,0.0,0.0,0.0,-2.017,0.0,0.0,0.0,0.0,0.0,0.0,0.0,0.0,0.0,0.0,0.0,0.0,0.0,0.0,0.0,0.0,-2.0044,-2.0025,0.0,-2.1566,-2.1681,-2.5137,-2.5897,-2.688,-2.8426,-2.9553,-3.0174,-3.0293,-3.0878,-3.1206,-3.1292,-3.2032,-3.2413,-3.254,-3.3278,-3.3937,-3.4576,-3.4576,-3.4941,-3.5577,-3.5577,-3.5577,-3.5622,-3.5622,-3.5594,-3.5689,-3.6423,-3.6197,-3.5656,-3.6322,-3.6615,-3.6615,-3.6615,-3.7584,-3.8854,-3.8908,-3.9437,-4.007,-4.007,-4.007,-3.9901,-3.9139,-3.8908,-3.8745,-3.8035,-3.7203,-3.6676,-3.6676,-3.6054,-3.5569,-3.5569,-3.5504,-3.5504,-3.5504,-3.5504,-3.5133,-3.4095,-3.3945,-3.3241,-3.1389,-3.118,-3.0833,-2.9856,-2.9792,-2.9792,-2.9792,-2.9792,-2.9792,-2.9792,-2.9792,-2.9792,-2.9792,-2.9792,-2.9792,-2.9792,-2.9792,-2.9792,-2.9792,-2.9792,-2.9792,-2.9792,-2.9792,-2.9792,-2.4218,-2.5017,-2.5236,-2.2276,0.0,0.0,0.0,0.0,0.0,0.0,0.0,0.0,0.0,0.0,0.0,0.0,0.0,0.0,0.0,0.0,0.0,0.0,0.0,0.0,0.0,0.0,0.0,-2.0193,-2.0176,0.0,-2.3077,-2.4689,-2.6335,-2.7952,-2.9362,-3.0369,-3.0878,-3.1112,-3.123,-3.1264,-3.1985,-3.2593,-3.3134,-3.3848,-3.4601,-3.5253,-3.5253,-3.5407,-3.5622,-3.5622,-3.5362,-3.4941,-3.4941,-3.464,-3.4415,-3.5554,-3.6126,-3.63,-3.6557,-3.6275,-3.607,-3.704,-3.7732,-3.8358,-3.9385,-3.9901,-4.002,-3.9437,-3.9315,-3.9139,-3.8374,-3.7774,-3.7306,-3.7084,-3.6399,-3.5894,-3.5894,-3.5668,-3.5504,-3.5504,-3.5504,-3.5504,-3.5504,-3.5504,-3.5133,-3.4177,-3.3449,-3.282,-3.2249,-3.1609,-3.1106,-3.0758,-3.0139,-2.9792,-2.9792,-2.9792,-2.9792,-2.9792,-2.9792,-2.9792,-2.9792,-2.9792,-2.9792,-2.9792,-2.9792,-2.9792,-2.9792,-2.9792,-2.9792,-2.9792,-2.9792,-2.9792,-2.527,-2.5964,-2.6184,-2.4019,-2.4188,0.0,-2.1786,0.0,-2.2868,0.0,0.0,0.0,0.0,0.0,0.0,0.0,0.0,0.0,0.0,-1.5933,0.0,0.0,0.0,0.0,0.0,0.0,-1.8019,-1.9014,-1.8989,0.0,0.0,-2.3567,-2.5326,-2.7088,-2.8834,-3.0057,-3.0801,-3.1072,-3.119,-3.1207,-3.1935,-3.2679,-3.344,-3.4167,-3.4912,-3.5622,-3.5622,-3.5622,-3.5622,-3.5622,-3.5362,-3.4941,-3.4688,-3.4333,-3.4083,-3.4963,-3.57,-3.6316,-3.6228,-3.6054,-3.607,-3.704,-3.7573,-3.7994,-3.8995,-3.9279,-3.9156,-3.8635,-3.8525,-3.8358,-3.7557,-3.6964,-3.6554,-3.6275,-3.5846,-3.5504,-3.5504,-3.5504,-3.5504,-3.5504,-3.5504,-3.5504,-3.5504,-3.5504,-3.5279,-3.461,-3.4041,-3.3533,-3.3171,-3.2321,-3.1609,-3.1254,-3.0343,-2.9792,-2.9792,-2.9792,-2.9792,-2.9792,-2.9792,-2.9792,-2.9792,-2.9792,-2.9792,-2.9792,-2.9792,-2.9792,-2.9792,-2.9792,-2.9792,-2.9792,-2.9792,-2.9611]},{"header":{"parameterUnit":"m.s-1","parameterCategory":1,"la1":30.6,"la2":29.2853,"lo1":-89.7004,"lo2":-87.6739,"dy":0.0162,"dx":0.0183,"nx":112,"ny":82,"refTime":"2026-04-30T00:00:00:Z","depth":0,"parameterNumber":3,"parameterNumberName":"V-component_of_WINDS"},"data":[0.0,0.0,0.0,0.0,0.0,0.0,0.0,0.0,0.0,0.0,0.0,0.0,0.0,0.0,0.0,0.0,0.0,0.0,0.0,0.0,0.0,0.0,0.0,0.0,0.0,0.0,0.0,0.0,0.0,0.0,0.0,0.0,0.0,0.0,0.0,0.0,0.0,0.0,0.0,0.0,0.0,0.0,0.0,0.0,0.0,0.0,0.0,0.0,0.0,0.0,0.0,0.0,0.0,0.0,0.0,0.0,0.0,0.0,0.0,0.0,0.0,0.0,0.0,0.0,0.0,0.0,0.0,0.0,0.0,0.0,0.0,0.0,0.0,0.0,0.0,0.0,0.0,0.0,0.0,0.0,0.0,0.0,0.0,0.0,0.0,0.0,0.0,0.0,0.0,0.0,-1.4736,-1.6056,-1.6777,-1.6993,-1.6552,-1.6522,-1.6239,-1.5625,0.0,0.0,0.0,0.0,0.0,0.0,0.0,0.0,0.0,0.0,0.0,0.0,0.0,0.0,0.0,0.0,0.0,0.0,0.0,0.0,0.0,0.0,0.0,0.0,0.0,0.0,0.0,0.0,0.0,0.0,0.0,0.0,0.0,0.0,0.0,0.0,0.0,0.0,0.0,0.0,0.0,0.0,0.0,0.0,0.0,0.0,0.0,0.0,0.0,0.0,0.0,0.0,0.0,0.0,0.0,0.0,0.0,0.0,0.0,0.0,0.0,0.0,0.0,0.0,0.0,0.0,0.0,0.0,0.0,0.0,0.0,0.0,0.0,0.0,0.0,0.0,0.0,0.0,0.0,0.0,0.0,0.0,0.0,0.0,0.0,0.0,0.0,0.0,0.0,0.0,0.0,0.0,0.0,0.0,0.0,0.0,0.0,0.0,0.0,0.0,0.0,0.0,0.0,0.0,-1.4814,-1.6875,-1.6796,-1.6595,-1.6522,-1.6522,-1.635,-1.6018,0.0,0.0,0.0,0.0,0.0,0.0,0.0,0.0,0.0,0.0,0.0,0.0,0.0,0.0,0.0,0.0,0.0,0.0,0.0,0.0,0.0,0.0,0.0,0.0,0.0,0.0,0.0,0.0,0.0,0.0,0.0,0.0,0.0,0.0,0.0,0.0,0.0,0.0,0.0,0.0,0.0,0.0,0.0,0.0,0.0,0.0,0.0,0.0,0.0,0.0,0.0,0.0,0.0,0.0,0.0,0.0,0.0,0.0,0.0,0.0,0.0,0.0,0.0,0.0,0.0,0.0,0.0,0.0,0.0,0.0,0.0,0.0,0.0,0.0,0.0,0.0,0.0,0.0,0.0,0.0,0.0,0.0,0.0,0.0,0.0,0.0,0.0,0.0,0.0,0.0,0.0,0.0,0.0,0.0,0.0,0.0,0.0,0.0,0.0,0.0,0.0,0.0,0.0,-1.4239,-1.5002,-1.6677,-1.6637,-1.6522,-1.6522,-1.6522,-1.6281,-1.5811,-1.4917,0.0,0.0,0.0,0.0,0.0,0.0,0.0,0.0,0.0,0.0,0.0,0.0,0.0,0.0,0.0,0.0,0.0,0.0,0.0,0.0,0.0,0.0,0.0,0.0,0.0,0.0,0.0,0.0,0.0,0.0,0.0,0.0,0.0,0.0,0.0,0.0,0.0,0.0,0.0,0.0,0.0,0.0,0.0,0.0,0.0,0.0,0.0,0.0,0.0,0.0,0.0,0.0,0.0,0.0,0.0,0.0,0.0,0.0,0.0,0.0,0.0,0.0,0.0,0.0,0.0,0.0,0.0,0.0,0.0,0.0,0.0,0.0,0.0,0.0,0.0,0.0,0.0,0.0,0.0,0.0,0.0,0.0,0.0,0.0,0.0,0.0,0.0,0.0,0.0,0.0,0.0,0.0,0.0,0.0,0.0,0.0,0.0,0.0,0.0,0.0,0.0,0.0,-1.5339,-1.5479,-1.6426,-1.6522,-1.6522,-1.6522,-1.6396,-1.61,-1.5687,-1.4919,0.0,0.0,0.0,0.0,0.0,0.0,0.0,0.0,0.0,0.0,0.0,0.0,0.0,0.0,0.0,0.0,0.0,0.0,0.0,0.0,0.0,0.0,0.0,0.0,0.0,0.0,0.0,0.0,0.0,0.0,0.0,0.0,0.0,0.0,0.0,0.0,0.0,0.0,0.0,0.0,0.0,0.0,0.0,0.0,0.0,0.0,0.0,0.0,0.0,0.0,0.0,0.0,0.0,0.0,0.0,0.0,0.0,0.0,0.0,0.0,0.0,0.0,0.0,0.0,0.0,0.0,0.0,0.0,0.0,0.0,0.0,0.0,0.0,0.0,0.0,0.0,0.0,0.0,0.0,0.0,0.0,0.0,0.0,0.0,0.0,0.0,0.0,0.0,0.0,0.0,0.0,0.0,0.0,0.0,0.0,0.0,0.0,0.0,0.0,0.0,0.0,0.0,-1.5543,-1.6426,-1.6509,-1.6522,-1.6522,-1.6522,-1.6045,-1.5839,-1.6064,-1.4842,0.0,0.0,0.0,0.0,0.0,0.0,0.0,0.0,0.0,0.0,0.0,0.0,0.0,0.0,0.0,0.0,0.0,0.0,0.0,0.0,0.0,0.0,0.0,0.0,0.0,0.0,0.0,0.0,0.0,0.0,0.0,0.0,0.0,0.0,0.0,0.0,0.0,0.0,0.0,0.0,0.0,0.0,0.0,0.0,0.0,0.0,0.0,0.0,0.0,0.0,0.0,0.0,0.0,0.0,0.0,0.0,0.0,0.0,0.0,0.0,0.0,0.0,0.0,0.0,0.0,0.0,0.0,0.0,0.0,0.0,0.0,0.0,0.0,0.0,0.0,0.0,0.0,0.0,0.0,0.0,0.0,0.0,0.0,0.0,0.0,0.0,0.0,0.0,0.0,0.0,0.0,0.0,0.0,0.0,0.0,0.0,0.0,0.0,0.0,0.0,0.0,0.0,-1.5254,-1.6136,0.0,-1.6522,-1.6522,-1.6522,-1.6321,-1.6173,-1.6114,0.0,0.0,0.0,0.0,0.0,0.0,0.0,0.0,0.0,0.0,0.0,0.0,0.0,0.0,0.0,0.0,0.0,0.0,0.0,0.0,0.0,0.0,0.0,0.0,0.0,0.0,0.0,0.0,0.0,0.0,0.0,0.0,0.0,0.0,0.0,0.0,0.0,0.0,0.0,0.0,0.0,0.0,0.0,0.0,0.0,0.0,0.0,0.0,0.0,0.0,0.0,0.0,0.0,0.0,0.0,0.0,0.0,0.0,0.0,0.0,0.0,0.0,0.0,0.0,0.0,0.0,0.0,0.0,0.0,0.0,0.0,0.0,0.0,0.0,0.0,0.0,0.0,0.0,0.0,0.0,0.0,0.0,0.0,0.0,0.0,0.0,0.0,0.0,0.0,0.0,0.0,0.0,0.0,0.0,0.0,0.0,0.0,0.0,0.0,0.0,0.0,0.0,-1.4287,-1.5649,-1.6652,0.0,-1.6872,-1.6798,-1.6798,-1.6459,-1.6134,-1.5842,0.0,0.0,0.0,0.0,0.0,0.0,0.0,0.0,0.0,0.0,0.0,0.0,0.0,0.0,0.0,0.0,0.0,0.0,0.0,0.0,0.0,0.0,0.0,0.0,0.0,0.0,0.0,0.0,0.0,0.0,0.0,0.0,0.0,0.0,0.0,0.0,0.0,0.0,0.0,0.0,0.0,0.0,0.0,0.0,0.0,0.0,0.0,0.0,0.0,0.0,0.0,0.0,0.0,0.0,0.0,0.0,0.0,0.0,0.0,0.0,0.0,0.0,0.0,0.0,0.0,0.0,0.0,0.0,0.0,0.0,0.0,0.0,0.0,0.0,0.0,0.0,0.0,0.0,0.0,0.0,0.0,0.0,0.0,0.0,0.0,0.0,0.0,0.0,0.0,0.0,0.0,0.0,0.0,0.0,0.0,0.0,0.0,0.0,0.0,0.0,0.0,0.0,-1.4871,-1.6864,-1.8222,-1.8222,-1.7721,-1.7388,-1.7388,-1.6358,-1.5569,0.0,0.0,0.0,0.0,0.0,0.0,0.0,0.0,0.0,0.0,0.0,0.0,0.0,0.0,0.0,0.0,0.0,0.0,0.0,0.0,0.0,0.0,0.0,0.0,0.0,0.0,0.0,0.0,0.0,0.0,0.0,0.0,0.0,0.0,0.0,0.0,0.0,0.0,0.0,0.0,0.0,0.0,0.0,0.0,0.0,0.0,0.0,0.0,0.0,0.0,0.0,0.0,0.0,0.0,0.0,0.0,0.0,0.0,0.0,0.0,0.0,0.0,0.0,0.0,0.0,0.0,0.0,0.0,0.0,0.0,0.0,0.0,0.0,0.0,0.0,0.0,0.0,0.0,0.0,0.0,0.0,0.0,0.0,0.0,0.0,0.0,0.0,0.0,0.0,0.0,0.0,0.0,0.0,0.0,0.0,0.0,0.0,0.0,0.0,0.0,0.0,0.0,0.0,-1.5169,-1.7274,-1.8569,-1.8266,-1.8067,-1.7802,-1.7413,-1.7074,-1.6306,-1.4915,0.0,0.0,0.0,0.0,0.0,0.0,0.0,0.0,0.0,0.0,0.0,0.0,0.0,0.0,0.0,0.0,0.0,0.0,0.0,0.0,0.0,0.0,0.0,0.0,0.0,0.0,0.0,0.0,0.0,0.0,0.0,0.0,0.0,0.0,0.0,0.0,0.0,0.0,0.0,0.0,0.0,0.0,0.0,0.0,0.0,0.0,0.0,0.0,0.0,0.0,0.0,0.0,0.0,0.0,0.0,0.0,0.0,0.0,0.0,0.0,0.0,0.0,0.0,0.0,0.0,0.0,0.0,0.0,0.0,0.0,0.0,0.0,0.0,0.0,0.0,0.0,0.0,0.0,0.0,0.0,0.0,0.0,0.0,0.0,0.0,0.0,0.0,0.0,0.0,0.0,0.0,0.0,0.0,0.0,0.0,0.0,0.0,0.0,0.0,0.0,0.0,0.0,-1.5779,-1.7713,-1.8926,-1.8837,-1.8648,-1.8304,-1.7752,-1.7501,-1.6591,-1.4742,0.0,0.0,0.0,0.0,0.0,0.0,0.0,0.0,0.0,0.0,0.0,0.0,0.0,0.0,0.0,0.0,0.0,0.0,0.0,0.0,0.0,0.0,0.0,0.0,0.0,0.0,0.0,0.0,0.0,0.0,0.0,0.0,0.0,0.0,0.0,0.0,0.0,0.0,0.0,0.0,0.0,0.0,0.0,0.0,0.0,0.0,0.0,0.0,0.0,0.0,0.0,0.0,0.0,0.0,0.0,0.0,0.0,0.0,0.0,0.0,0.0,0.0,0.0,0.0,0.0,0.0,0.0,0.0,0.0,0.0,0.0,0.0,0.0,0.0,0.0,0.0,0.0,0.0,0.0,0.0,0.0,0.0,0.0,0.0,0.0,0.0,0.0,0.0,0.0,0.0,0.0,0.0,0.0,0.0,0.0,0.0,0.0,0.0,0.0,0.0,0.0,0.0,-1.6575,-1.8113,-1.9212,-1.9743,-1.9341,-1.8882,-1.8329,-1.7777,-1.665,-1.4717,0.0,0.0,0.0,0.0,0.0,0.0,0.0,0.0,0.0,0.0,0.0,0.0,0.0,0.0,0.0,0.0,0.0,0.0,0.0,0.0,0.0,0.0,0.0,0.0,0.0,0.0,0.0,0.0,0.0,0.0,0.0,0.0,0.0,0.0,0.0,0.0,0.0,0.0,0.0,0.0,0.0,0.0,0.0,0.0,0.0,0.0,0.0,0.0,0.0,0.0,0.0,0.0,0.0,0.0,0.0,0.0,0.0,0.0,0.0,0.0,-1.4238,-1.3902,0.0,0.0,0.0,0.0,0.0,0.0,0.0,0.0,0.0,0.0,0.0,0.0,0.0,0.0,0.0,0.0,0.0,0.0,0.0,0.0,0.0,0.0,0.0,0.0,0.0,0.0,0.0,0.0,0.0,0.0,0.0,0.0,0.0,0.0,0.0,0.0,0.0,0.0,0.0,0.0,-1.6884,-1.8221,-1.9212,-1.9743,-1.9722,-1.9422,-1.8845,-1.8342,-1.7307,-1.5535,-1.4146,0.0,0.0,0.0,0.0,0.0,0.0,0.0,0.0,0.0,0.0,0.0,0.0,0.0,0.0,0.0,0.0,0.0,0.0,0.0,0.0,0.0,0.0,0.0,0.0,0.0,0.0,0.0,0.0,0.0,0.0,0.0,0.0,0.0,0.0,0.0,0.0,0.0,0.0,0.0,0.0,0.0,0.0,0.0,0.0,0.0,0.0,0.0,0.0,0.0,0.0,0.0,0.0,0.0,0.0,0.0,0.0,0.0,0.0,0.0,0.0,-1.4784,0.0,0.0,0.0,0.0,0.0,0.0,0.0,0.0,0.0,0.0,0.0,0.0,0.0,0.0,0.0,0.0,0.0,0.0,0.0,0.0,0.0,0.0,0.0,0.0,0.0,0.0,0.0,0.0,0.0,0.0,0.0,0.0,0.0,0.0,0.0,0.0,0.0,0.0,0.0,0.0,-1.7273,-1.8186,-1.8754,-1.9196,-1.929,-1.9047,-1.8533,-1.7867,-1.6979,-1.5734,-1.4373,0.0,0.0,0.0,0.0,0.0,0.0,0.0,0.0,0.0,0.0,0.0,0.0,0.0,0.0,0.0,0.0,0.0,0.0,0.0,0.0,0.0,0.0,0.0,0.0,0.0,0.0,0.0,0.0,0.0,0.0,0.0,0.0,0.0,0.0,0.0,0.0,0.0,0.0,0.0,0.0,0.0,0.0,0.0,0.0,0.0,0.0,0.0,0.0,0.0,0.0,0.0,0.0,0.0,-1.7836,-1.8714,-1.8972,-1.8258,-1.8092,-1.8246,-1.6168,-1.6092,-1.731,-1.5761,0.0,0.0,0.0,0.0,0.0,0.0,0.0,0.0,0.0,0.0,0.0,0.0,0.0,0.0,0.0,0.0,0.0,0.0,0.0,0.0,0.0,0.0,0.0,0.0,-1.7358,-1.6913,-1.5132,0.0,0.0,0.0,0.0,0.0,0.0,0.0,0.0,0.0,0.0,0.0,-1.7643,-1.8101,-1.8351,-1.8831,-1.8768,-1.8536,-1.8057,-1.741,-1.6637,-1.5762,-1.453,-1.3308,0.0,0.0,0.0,0.0,0.0,0.0,0.0,0.0,0.0,0.0,0.0,0.0,0.0,0.0,0.0,0.0,0.0,0.0,0.0,0.0,0.0,0.0,0.0,0.0,0.0,0.0,0.0,0.0,0.0,0.0,0.0,0.0,-1.2209,-1.2722,0.0,0.0,0.0,0.0,0.0,0.0,0.0,0.0,0.0,0.0,0.0,0.0,0.0,-1.6592,-1.5994,-1.8371,-1.9124,-1.8322,-1.9432,-1.9643,-1.9084,-1.8955,-1.8802,-1.8547,-1.8182,0.0,-1.7037,-1.646,0.0,0.0,0.0,0.0,0.0,0.0,0.0,0.0,0.0,0.0,0.0,0.0,0.0,0.0,0.0,0.0,0.0,0.0,0.0,0.0,0.0,0.0,-1.7345,-1.7308,-1.7288,-1.7252,0.0,-1.6102,-1.5425,-1.5518,-1.4254,-1.3133,0.0,0.0,0.0,0.0,0.0,0.0,-1.7852,-1.7966,-1.8379,-1.9517,-1.9097,-1.8679,-1.8619,-1.8088,-1.7303,-1.6169,-1.5007,-1.4183,-1.3647,-1.2691,0.0,0.0,0.0,0.0,0.0,0.0,0.0,0.0,0.0,0.0,0.0,0.0,0.0,0.0,0.0,0.0,0.0,0.0,0.0,0.0,0.0,0.0,0.0,0.0,0.0,0.0,0.0,0.0,0.0,-1.2654,-1.3855,-1.4598,-1.5092,-1.5075,0.0,0.0,0.0,0.0,0.0,0.0,0.0,0.0,0.0,-1.665,-1.7612,-1.7946,-1.7448,-1.9543,-2.0131,-1.9382,-2.0588,-2.1138,-2.0989,-2.0502,-2.0494,-2.0747,-2.0239,-1.9807,-1.9253,-1.8237,-1.7691,-1.7334,0.0,0.0,0.0,0.0,-1.554,-1.572,-1.6394,-1.6608,-1.6658,-1.7185,0.0,0.0,0.0,0.0,0.0,0.0,0.0,-1.5992,0.0,0.0,-1.8411,-1.9513,-1.9551,-1.946,-1.9989,-1.8815,-1.7323,0.0,-1.503,-1.4244,-1.393,0.0,0.0,0.0,0.0,-1.676,-1.7815,-1.7906,-1.808,-1.8496,-1.8274,-1.8058,-1.8058,-1.7486,-1.6774,-1.6092,-1.4912,-1.4099,-1.3703,-1.3015,-1.2329,0.0,0.0,0.0,0.0,0.0,0.0,0.0,0.0,0.0,0.0,0.0,0.0,0.0,0.0,0.0,0.0,0.0,0.0,0.0,0.0,0.0,0.0,0.0,0.0,0.0,0.0,0.0,0.0,-1.4162,-1.531,-1.617,-1.6459,-1.6284,0.0,0.0,0.0,0.0,0.0,0.0,-1.7509,-1.7454,-1.7699,-1.8475,-1.9021,-1.9082,-1.8548,-2.0296,-2.0834,-2.0093,-2.132,-2.2069,-2.2328,-2.1665,-2.1753,-2.2329,-2.1629,-2.1396,-2.125,-1.9765,-1.9065,-1.8786,-1.8161,-1.7496,-1.6838,-1.7165,-1.7049,-1.6933,-1.8096,-1.8516,-1.8555,-1.8614,-1.8555,-1.8272,-1.7135,0.0,0.0,0.0,0.0,-1.6958,-1.8328,-1.8658,-1.905,-2.0671,-2.0797,-2.0665,-2.1354,-2.0234,-1.8599,0.0,-1.6169,-1.5545,-1.5002,0.0,0.0,0.0,0.0,-1.726,-1.844,-1.8401,-1.8258,-1.8406,-1.8045,-1.7712,-1.7589,-1.709,-1.6451,-1.5649,-1.468,-1.3945,-1.3525,-1.3148,-1.2705,-1.2135,0.0,0.0,0.0,0.0,0.0,0.0,0.0,0.0,0.0,0.0,0.0,0.0,0.0,0.0,0.0,0.0,0.0,0.0,0.0,0.0,0.0,0.0,0.0,0.0,0.0,0.0,0.0,0.0,0.0,-1.6991,-1.7557,0.0,0.0,0.0,0.0,-1.7627,-1.7129,-1.749,-1.903,-1.878,-1.8711,-1.8847,-2.0182,-2.0349,-1.9252,-2.0974,-2.1425,-2.0556,-2.1499,-2.1922,-2.1942,-2.186,-2.1889,-2.1928,-2.1855,-2.1846,-2.1748,-2.0381,-1.9625,-1.9206,-1.8301,-1.7968,-1.7948,-1.7968,-1.8164,-1.8516,-1.8555,-1.8564,-1.8764,-2.0029,-2.0293,-2.005,-1.9973,-1.8826,0.0,0.0,-1.7789,-1.7507,-1.838,-1.8605,-1.8713,-1.9318,-1.9416,-1.9397,-1.9469,-1.8715,-1.8277,0.0,-1.8134,-1.7016,-1.6583,0.0,-1.6773,-1.7662,-1.8255,-1.9069,-2.0382,-1.9698,-1.9414,-2.0449,-1.9198,-1.8092,-1.7611,-1.7578,-1.6774,-1.4972,-1.4375,-1.3945,-1.3525,-1.3135,-1.2684,-1.2207,-1.2204,0.0,0.0,0.0,0.0,0.0,0.0,0.0,0.0,0.0,0.0,0.0,0.0,0.0,0.0,0.0,0.0,0.0,0.0,0.0,0.0,0.0,0.0,0.0,0.0,0.0,0.0,0.0,0.0,-1.8227,-1.9141,0.0,-1.8601,-1.8516,-1.8734,-1.917,-1.849,-1.8744,-2.0301,-1.9717,-1.9723,-2.0367,-2.0637,-2.0662,-2.0537,-2.1432,-2.1719,-2.1416,-2.1738,-2.2031,-2.2295,-2.2295,-2.2441,-2.2695,-2.2695,-2.2695,-2.2637,-2.1894,-2.1172,-2.0508,-2.0205,-1.9912,-1.9687,-1.998,-2.0176,-2.0352,-2.0635,-2.0547,-2.0234,-2.0178,-1.9919,-1.9634,-1.9634,-1.9212,-1.8735,-1.8884,-1.8804,-1.874,-1.9307,-1.9463,-1.9639,-2.0356,-2.0543,-2.0607,-2.0949,-2.0281,-1.9768,-2.0128,-1.8417,-1.6878,-1.6869,-1.6842,-1.7331,-1.867,-1.9053,-1.9483,-2.037,-2.0189,-2.0052,-2.0455,-1.9262,-1.8373,-1.8194,-1.7823,-1.6818,-1.4916,-1.4777,-1.4584,-1.4083,-1.3332,-1.2986,-1.3222,-1.3259,-1.2322,0.0,0.0,0.0,0.0,0.0,0.0,0.0,0.0,0.0,0.0,0.0,0.0,0.0,0.0,0.0,0.0,0.0,0.0,0.0,0.0,0.0,0.0,0.0,0.0,0.0,0.0,-1.822,-1.9153,-2.0215,-2.064,-1.9916,-1.9818,-1.996,-2.03,-1.9581,-1.9641,-2.0971,-2.0448,-2.0398,-2.1216,-2.1085,-2.1152,-2.1455,-2.1885,-2.21,-2.21,-2.2236,-2.2451,-2.2725,-2.2725,-2.2881,-2.3135,-2.3135,-2.3135,-2.3115,-2.2832,-2.2393,-2.1846,-2.1562,-2.1269,-2.1045,-2.1348,-2.1455,-2.1494,-2.1787,-2.1699,-2.1357,-2.0771,-2.0391,-2.0166,-2.0166,-2.0166,-2.0137,-1.999,-1.9941,-1.9971,-2.0098,-2.0137,-2.0279,-2.0852,-2.1002,-2.1069,-2.1415,-2.0865,-2.0339,-2.0339,-1.8744,-1.7357,-1.7345,-1.7205,-1.7582,-1.8924,-1.9158,-1.9575,-2.0772,-2.0653,-2.0582,-2.1013,-1.9634,-1.8632,-1.852,-1.7601,-1.6556,-1.5441,-1.5079,-1.493,-1.4992,-1.4018,-1.3705,-1.4097,-1.4157,-1.3411,-1.1744,0.0,0.0,0.0,0.0,0.0,0.0,0.0,0.0,0.0,0.0,0.0,0.0,0.0,0.0,0.0,0.0,0.0,0.0,0.0,0.0,0.0,0.0,0.0,-1.7432,-1.8227,-1.91,-1.976,-2.0832,-2.1124,-2.0158,-2.0593,-2.0938,-2.0997,-2.0286,-2.0222,-2.1125,-2.0791,-2.0791,-2.124,-2.168,-2.1904,-2.1904,-2.2324,-2.2529,-2.2539,-2.2959,-2.3154,-2.3164,-2.3174,-2.3184,-2.3184,-2.3184,-2.3184,-2.3184,-2.3184,-2.3184,-2.3096,-2.2246,-2.1924,-2.1924,-2.1924,-2.1924,-2.1924,-2.1904,-2.1904,-2.1904,-2.1894,-2.1885,-2.1885,-2.1885,-2.1885,-2.1797,-2.1377,-2.126,-2.1152,-2.0781,-2.0664,-2.0731,-2.0644,-2.0644,-2.0644,-2.0644,-2.0234,-1.9932,-1.9932,-1.9248,-1.8545,-1.8105,-1.7695,-1.773,-1.8499,-1.8617,0.0,-2.1557,-2.1175,-2.1031,-2.2151,-2.0393,-1.8932,-1.8577,-1.696,-1.61,-1.6476,-1.5216,-1.501,-1.6132,-1.5224,-1.4698,-1.4744,-1.4776,-1.4556,-1.4053,0.0,0.0,0.0,0.0,0.0,0.0,0.0,0.0,0.0,0.0,0.0,0.0,0.0,0.0,0.0,0.0,0.0,0.0,0.0,0.0,0.0,-1.6883,-1.7847,-1.7847,-1.8797,-1.9902,-2.0891,-2.1424,-2.1703,-2.1824,-2.1151,-2.0812,-2.1129,-2.0327,-2.0232,-2.1124,-2.1135,-2.125,-2.1689,-2.2119,-2.2344,-2.2344,-2.2754,-2.2969,-2.2969,-2.3408,-2.3613,-2.3623,-2.3926,-2.4062,-2.4062,-2.4062,-2.4062,-2.4062,-2.4062,-2.4062,-2.3984,-2.3125,-2.2793,-2.2793,-2.2793,-2.2793,-2.2754,-2.2441,-2.2344,-2.2295,-2.1982,-2.1885,-2.1885,-2.1885,-2.1885,-2.1865,-2.1738,-2.2241,-2.2742,-2.2288,-2.2696,-2.2982,-2.1894,-2.1593,-2.1451,-2.0712,-2.0469,-2.0391,-2.0391,-1.9941,-1.9326,-1.8594,-1.8369,-1.8448,-1.9031,-1.911,0.0,-2.0771,-2.1302,-2.1432,-2.1093,-2.025,-1.9508,-1.8955,-1.8167,-1.7247,-1.6334,-1.6439,-1.6451,-1.6361,-1.5314,-1.4926,-1.532,-1.4992,-1.4941,0.0,0.0,0.0,0.0,0.0,0.0,0.0,0.0,0.0,0.0,0.0,0.0,0.0,0.0,0.0,0.0,0.0,0.0,0.0,0.0,0.0,0.0,-1.81,-1.9162,-1.9448,-2.0054,-2.0928,-2.2046,-2.2067,-2.2215,-2.2544,-2.1555,-2.0855,-2.0947,-2.0648,-2.0693,-2.1201,-2.1582,-2.1885,-2.2139,-2.2559,-2.2773,-2.2773,-2.3193,-2.3408,-2.3418,-2.3848,-2.4053,-2.4062,-2.4307,-2.4414,-2.4414,-2.4414,-2.4414,-2.4414,-2.4414,-2.4414,0.0,0.0,0.0,0.0,0.0,-2.3408,-2.335,-2.292,-2.2773,-2.2734,-2.249,-2.273,-2.313,-2.313,-2.3463,-2.3825,-2.3545,-2.396,-2.4313,-2.3848,-2.4029,-2.41,-2.321,-2.2466,-2.1886,-2.1298,-2.0857,-2.0566,-2.0566,-2.0361,0.0,-1.9287,-1.8877,-1.8685,-1.8968,-1.9158,-1.9497,-2.0009,-2.1175,-2.169,-2.1175,-2.0703,-2.0257,-1.969,-1.8703,0.0,0.0,0.0,-1.7135,-1.6837,-1.6202,0.0,0.0,0.0,0.0,0.0,0.0,0.0,0.0,-1.704,-1.7161,0.0,0.0,0.0,0.0,0.0,0.0,0.0,0.0,0.0,0.0,0.0,0.0,0.0,0.0,0.0,0.0,-1.9363,-2.094,-2.1486,-2.1694,-2.2133,-2.3113,-2.2742,-2.2506,-2.2697,-2.1752,-2.0958,-2.0518,-2.0758,-2.1018,-2.1124,0.0,0.0,0.0,0.0,-2.3164,-2.3213,-2.3594,-2.3809,-2.3867,-2.4287,-2.4492,-2.4492,-2.4541,-2.457,-2.457,-2.457,-2.457,-2.457,-2.457,-2.4653,-2.4736,-2.4453,-2.4506,-2.4539,-2.4165,-2.4207,-2.4237,-2.3839,0.0,0.0,-2.3543,-2.4262,-2.4957,-2.4957,-2.5714,-2.6382,-2.6026,-2.5971,-2.5939,-2.553,-2.5142,-2.4767,-2.4503,-2.3382,-2.2392,-2.2188,-2.1451,-2.0789,-2.0789,-2.0634,-2.0439,-2.0059,-1.9277,-1.8691,-1.8643,-1.8937,-1.9177,-1.9177,-2.0655,-2.169,-2.1628,0.0,0.0,-2.0497,-1.9031,-1.8374,-1.878,-1.8013,-1.7483,-1.7501,-1.7617,-1.7907,-1.8392,-1.8975,-1.985,-2.0905,-2.144,-2.1769,-2.1844,-1.9346,-1.9166,0.0,0.0,0.0,0.0,0.0,0.0,0.0,0.0,0.0,0.0,0.0,0.0,0.0,0.0,0.0,-1.8963,-2.0386,-2.1504,-2.2058,-2.2937,-2.359,-2.3803,-2.2763,-2.2205,-2.2659,-2.1468,-2.044,-1.9723,-1.9661,-2.0071,-2.072,-2.0989,-2.1671,-2.2921,-2.3096,-2.331,-2.3662,-2.375,-2.3965,-2.4307,0.0,0.0,-2.4951,-2.5312,-2.5488,-2.5488,-2.5488,-2.5488,-2.5488,-2.5488,-2.6034,-2.6785,-2.505,-2.5037,-2.5892,-2.582,-2.6402,-2.7261,-2.7173,-2.6876,-2.6472,-2.6472,-2.6378,-2.6141,-2.6141,-2.6307,0.0,-2.636,-2.6978,-2.7573,-2.7066,-2.7416,-2.7592,-2.5944,-2.528,-2.4726,-2.3446,-2.2403,-2.1735,-2.1735,-2.1155,-2.0537,-2.0449,-1.9727,-1.9043,-1.8691,-1.8409,-1.8269,-1.8269,-1.9748,-2.059,-1.9879,-2.0957,-2.1509,-2.0902,-2.0547,-2.0127,-1.9614,-1.8995,-1.846,-1.8066,-1.8965,-1.9324,-1.8959,-2.0006,-2.0651,-2.0905,-2.144,-2.2218,-2.3191,-2.165,-2.1425,0.0,0.0,0.0,0.0,0.0,0.0,0.0,0.0,0.0,0.0,0.0,-1.6404,-1.7396,0.0,-1.9551,-2.0399,-2.1319,-2.2196,-2.3037,-2.364,-2.4104,-2.4381,-2.3159,-2.2536,-2.3039,-2.1546,-2.0251,-1.9425,-1.9549,-2.0,-2.0679,-2.0896,-2.1641,-2.3047,-2.335,-2.3574,-2.3789,-2.4209,-2.4541,-2.4746,-2.5185,-2.54,-2.541,-2.5635,-2.5742,-2.5742,-2.5742,-2.5742,-2.5732,-2.639,-2.703,-2.7537,-2.7054,-2.7313,-2.7836,-2.7597,-2.7955,-2.8463,-2.8203,-2.7955,-2.7667,-2.7667,-2.7656,-2.766,-2.766,-2.7917,-2.8131,-2.8131,-2.8542,-2.8876,-2.8607,-2.8733,-2.8637,-2.7594,-2.659,-2.5597,-2.4815,-2.3682,-2.2627,-2.2103,-2.1593,-2.1155,-2.0712,-2.0029,-1.9453,-1.9023,-1.8934,-1.8907,-1.8684,-2.0139,-2.1112,-2.0655,-2.1741,-2.2286,-2.1677,-2.1384,-2.1055,-2.0702,-2.0401,-2.0012,-1.9459,-2.0367,-2.0895,-2.0908,-2.1846,-2.2673,-2.3275,-2.3509,-2.3792,-2.4051,-2.3421,-2.3496,0.0,0.0,0.0,0.0,0.0,0.0,0.0,0.0,-1.4515,-1.6615,-1.7664,-1.8385,-1.9066,-2.0459,-2.1506,-2.1612,-2.2209,-2.2962,-2.3866,-2.418,-2.4469,-2.4921,-2.3604,-2.2905,-2.347,-2.1828,-2.0375,-1.9624,-1.9928,-2.0323,-2.0806,-2.1121,-2.1882,-2.3174,-2.3603,-2.3867,-2.4033,-2.4727,-2.5117,-2.5205,-2.5566,-2.5742,-2.5732,-2.5644,-2.5605,-2.5605,-2.5605,-2.5702,-2.6078,-2.7358,-2.8049,-2.8412,-2.9681,-3.0135,-3.0089,-2.9509,-2.945,-2.9581,-2.9166,-2.8948,-2.8867,-2.8867,-2.9056,-2.9232,-2.9328,-2.961,-2.9817,-2.993,-2.988,-2.9792,-2.9792,-2.9453,-2.9063,-2.895,-2.7606,-2.6371,-2.6166,-2.4973,-2.3626,-2.2499,-2.2103,-2.1735,-2.0789,-2.0273,-1.9893,-1.9473,-1.9586,-1.9572,-1.9421,-2.0711,-2.169,-2.1877,-2.2506,-2.271,-2.2263,-2.1843,-2.1644,-2.1644,-2.1543,-2.1292,-2.084,-2.1524,-2.2121,-2.2629,-2.337,-2.4221,-2.5143,-2.5143,-2.4946,-2.4505,-2.4505,-2.4867,-1.5929,-1.7369,-1.8375,-1.6451,-1.4685,-1.4226,0.0,0.0,-1.6506,-1.8935,-1.9509,-1.9764,-2.0371,-2.1049,-2.168,-2.2133,-2.3113,-2.3853,-2.3979,-2.482,-2.5435,-2.5498,-2.3873,-2.2905,-2.347,-2.2051,-2.0824,-2.0021,-2.0332,-2.0815,-2.1212,-2.1275,-2.2011,-2.3701,-2.3769,-2.416,-2.4922,-2.5019,-2.5273,-2.5664,-2.5713,-2.5742,-2.5723,-2.5322,-2.5137,-2.5137,-2.5137,-2.5789,-2.6909,-2.8495,-2.9863,-3.0944,-3.2152,-3.2711,-3.2513,-3.1352,-3.1692,-3.2611,-3.2549,-3.2189,-3.1767,-3.1767,-3.1178,-3.0523,-3.0985,-3.0503,-2.9892,-3.0382,-3.0168,-2.9792,-2.9792,-2.9741,-2.9566,-2.9051,-2.875,-2.8313,-2.7338,-2.6311,-2.5066,-2.3604,-2.2627,-2.1735,-2.0789,-2.0527,-2.0342,-1.9912,-1.9223,-1.9024,-1.9771,-2.0402,-2.1037,-2.1815,-2.2002,-2.1978,-2.1918,-2.211,-2.2221,-2.2221,-2.1757,-2.1455,-2.1393,-2.2014,-2.2365,-2.2432,-2.309,-2.3529,-2.365,-2.365,-2.3927,-2.4401,-2.4401,-2.4822,-1.6499,-1.622,-1.6024,0.0,-1.4752,-1.373,-1.6502,-1.7186,-1.7507,-1.831,-1.8899,-1.961,-2.0698,-2.135,-2.1967,0.0,-2.3477,-2.4117,-2.4431,-2.4858,-2.5259,-2.5561,-2.4414,-2.3557,-2.347,-2.2102,-2.09,-2.0084,-2.0395,-2.0887,-2.1275,-2.219,-2.3397,-2.4788,-2.5319,-2.5788,-2.6155,-2.6431,-2.6295,-2.5732,-2.6476,-2.639,-2.5723,-2.5273,-2.4932,-2.4687,-2.541,-2.6197,-2.7059,-2.8756,-2.9963,-3.0823,-3.1769,-3.2102,-3.2164,-3.2278,-3.2612,-3.3081,-3.3081,-3.2918,-3.2717,-3.2717,-3.219,-3.1587,-3.18,-3.1122,-3.0319,-3.0557,-3.0218,-2.9792,-2.9792,-2.9792,-2.9729,-2.949,-2.9176,-2.88,-2.8335,-2.7418,-2.6142,-2.4283,-2.3334,-2.2403,-2.0867,-2.0566,-2.0508,-2.0322,-1.9992,-1.9807,-1.9875,-2.0303,-2.0719,-2.1101,-2.1164,-2.1164,-2.1164,-2.1737,-2.2055,-2.2055,-2.2325,-2.2447,-2.2447,-2.3114,-2.3497,-2.3497,-2.4191,-2.4571,-2.4571,-2.4571,-2.4695,-2.4997,-2.4997,-2.539,-1.6514,-1.5326,0.0,-1.525,-1.4562,-1.4027,-1.5813,-1.6995,-1.7781,-1.7902,-1.8666,-1.9559,-2.0665,-2.1476,-2.2226,-2.278,-2.3381,-2.3949,-2.4344,-2.4542,-2.4764,-2.5148,-2.4442,-2.385,-2.3712,-2.27,-2.183,-2.139,-2.1813,-2.2236,-2.2746,-2.3904,-2.502,-2.598,-2.6676,-2.7078,-2.7334,-2.7315,-2.6991,-2.6197,-2.6754,-2.6572,-2.5723,-2.5146,-2.4766,-2.4586,-2.5506,-2.6451,-2.7545,-2.8981,-3.0061,-3.0713,-3.1195,-3.1386,-3.1486,-3.2315,-3.2704,-3.2867,-3.3018,-3.3081,-3.3056,-3.2893,-3.2453,-3.2014,-3.2164,-3.1461,-3.0645,-3.0783,-3.0432,-2.998,-2.9829,-2.9792,-2.9792,-2.9792,-2.9478,-2.9126,-2.8963,-2.8298,-2.7102,-2.5124,-2.4408,-2.3449,-2.1318,-2.1011,-2.0934,-2.0644,-2.0724,-2.0694,-2.0498,-2.0775,-2.0782,-2.0268,-2.0462,-2.059,-2.059,-2.1428,-2.2002,-2.2199,-2.2763,-2.3078,-2.3078,-2.3662,-2.3943,-2.3943,-2.4496,-2.4781,-2.4781,-2.4781,-2.4894,-2.5119,-2.5119,-2.5618,-1.6527,0.0,-1.5859,-1.3561,-1.4164,-1.5569,-1.6464,-1.6693,-1.72,-1.8714,-1.9621,-2.0238,-2.0389,-2.1427,-2.2276,-2.2334,-2.2919,-2.3333,-2.3344,-2.3875,-2.4208,-2.422,-2.3688,-2.3514,0.0,-2.4146,-2.4314,-2.4804,-2.5192,-2.568,-2.6284,-2.64,-2.6624,-2.7008,-2.7053,-2.7531,-2.8578,-2.7345,-2.7034,-2.7494,-2.6294,-2.5732,-2.5713,-2.4834,-2.4576,-2.4775,-2.5236,-2.6711,-2.8869,-2.9367,-3.0276,-3.1329,-3.1399,-3.1386,-3.1386,-3.1436,-3.1775,-3.2315,-3.288,-3.3081,-3.298,-3.2416,-3.1863,-3.1512,-3.2051,-3.1461,-3.0721,-3.1223,-3.0997,-3.047,-2.993,-2.9792,-2.9792,-2.9792,-2.9779,-2.9616,-2.9051,-2.89,-2.8238,-2.6164,-2.573,-2.4955,-2.2402,-2.1952,-2.1669,-2.0712,-2.0903,-2.1373,-2.1815,-2.1851,-2.1239,-1.9497,-2.0074,-2.059,-2.059,-2.1428,-2.2261,-2.3005,-2.3078,-2.3078,-2.3078,-2.3138,-2.3138,-2.3138,-2.3125,-2.3185,-2.3185,-2.3185,-2.3603,-2.435,-2.435,-2.5119,-1.4536,0.0,-1.5599,-1.4784,-1.586,-1.692,-1.6028,-1.6427,-1.7112,-1.7701,-1.7986,-1.8544,-1.9994,-2.0325,-2.0616,-2.1318,-2.2751,-2.3434,-2.2547,-2.3998,-2.478,-2.3732,-2.4323,0.0,0.0,0.0,0.0,-2.4937,-2.5362,-2.5853,-2.6449,-2.752,-2.8187,-2.8279,-2.8943,-2.9467,-2.9817,-2.8902,-2.8147,-2.7579,-2.6079,-2.5146,-2.4844,-2.4268,-2.4275,-2.4882,-2.5719,-2.7137,-2.8939,-2.9468,-3.0214,-3.0834,-3.047,-3.0331,-3.0369,-3.0746,-3.0997,-3.1235,-3.1775,-3.1951,-3.1926,-3.1738,-3.1537,-3.1424,-3.1612,-3.1173,-3.0658,-3.0834,-3.0482,-3.003,-2.9842,-2.9792,-2.9792,-2.9792,-2.9792,-2.9741,-2.9541,-2.9202,-2.8387,-2.6707,-2.6053,-2.5198,-2.3298,-2.2999,-2.2925,-2.2563,-2.103,-2.0103,-2.0541,-1.9811,-1.9299,-1.9299,-1.9562,-1.9944,-2.0526,-2.1428,-2.2002,-2.2322,-2.2823,-2.3078,-2.3078,-2.3078,-2.3078,-2.3078,-2.3078,-2.3078,-2.3078,-2.3662,-2.4279,-2.5063,-2.5508,-2.6283,-1.4072,-1.457,-1.5526,-1.6175,-1.7183,-1.763,-1.6311,-1.6543,-1.7079,-1.6912,-1.7048,-1.7592,-1.8838,-1.9168,-1.9637,-2.0701,-2.2201,-2.301,-2.2501,-2.3998,-2.4713,-2.3744,-2.4762,-2.5548,0.0,0.0,0.0,-2.6025,-2.6551,-2.7065,-2.7683,-2.8862,-2.9488,-2.9488,-3.0325,-3.087,-3.1052,-2.9788,-2.8326,-2.6689,-2.5565,-2.4943,-2.4706,-2.4516,-2.4989,-2.6025,-2.6789,-2.7882,-2.9253,-2.9671,-3.0118,-3.0583,-3.0231,-3.0093,-3.0131,-3.0482,-3.0495,-3.0419,-3.1148,-3.1386,-3.1361,-3.1173,-3.111,-3.111,-3.111,-3.0884,-3.062,-3.062,-3.0357,-3.0043,-2.9842,-2.9792,-2.9792,-2.9792,-2.9792,-2.9792,-2.9792,-2.9503,-2.8824,-2.7627,-2.7004,-2.6166,-2.4599,-2.3847,-2.3514,-2.3514,-2.1835,-2.0534,-2.0435,-1.94,-1.8761,-1.9012,-1.9204,-1.9628,-2.0526,-2.1428,-2.2002,-2.2322,-2.2823,-2.3078,-2.3078,-2.3078,-2.3078,-2.3078,-2.3078,-2.3078,-2.3078,-2.359,-2.4394,-2.5398,-2.5892,-2.6785,-1.4975,-1.5419,-1.5822,-1.758,-1.7957,-1.7777,-1.7173,-1.704,-1.6928,-1.6498,-1.697,-1.7348,0.0,0.0,-1.9296,-2.0385,-2.1243,-2.2096,-2.3069,-2.3842,-2.4267,0.0,0.0,0.0,0.0,0.0,0.0,-2.8109,0.0,-2.9176,-2.9767,-3.0319,-3.062,-3.062,-3.1148,-3.1687,-3.2202,-2.9904,-2.7484,-2.5218,-2.5189,-2.5279,-2.5501,-2.548,-2.6392,-2.8096,-2.8096,-2.8779,-2.9829,-2.9804,-3.0118,-3.062,-3.062,-3.0595,-3.057,-3.0608,-3.0269,-2.9942,-3.0959,-3.1311,-3.1223,-3.0733,-3.057,-3.057,-3.057,-3.057,-3.057,-3.057,-3.057,-3.0457,-2.993,-2.9792,-2.9792,-2.9792,-2.9792,-2.9792,-2.9792,-2.9792,-2.9616,-2.9038,-2.8461,-2.758,-2.6129,-2.4649,-2.3661,-2.3661,-2.3277,-2.2617,-2.1585,-2.0547,-1.9637,-1.8904,-1.911,-1.9759,-2.0655,-2.1491,-2.2322,-2.3078,-2.3078,-2.3138,-2.3138,-2.3125,-2.3125,-2.3125,-2.3125,-2.3125,-2.3078,-2.3185,-2.3989,-2.5398,-2.5481,-2.6654,-1.5259,-1.5386,-1.5841,-1.754,-1.749,-1.6924,-1.6573,-1.6516,-1.6597,-1.6689,-1.6678,-1.6738,0.0,0.0,0.0,-1.904,-2.1174,0.0,-2.2376,-2.4426,0.0,-2.4885,0.0,-2.6917,-2.7055,-2.7946,0.0,0.0,-2.885,-2.9176,-2.9767,-3.0319,-3.062,-3.062,-3.1524,-3.2077,-3.2215,-3.0709,-2.8996,-2.7036,-2.6691,-2.6574,-2.6678,-2.6326,-2.6914,-2.8096,-2.8096,-2.8986,-3.0382,-2.9967,-3.0118,-3.062,-3.062,-3.0369,-3.0055,-3.047,-3.0269,-2.9829,-3.0105,-3.0193,-3.0181,-3.0043,-2.9993,-2.9993,-2.9993,-2.9993,-2.9993,-2.9993,-2.9993,-2.9967,-2.9829,-2.9792,-2.9792,-2.9792,-2.9792,-2.9792,-2.9792,-2.9792,-2.9616,-2.9038,-2.8147,-2.7373,-2.6996,-2.6288,-2.5721,-2.5721,-2.5027,-2.4012,-2.27,-2.1038,-2.0447,-2.1517,-2.0817,-2.0835,-2.231,-2.2689,-2.2884,-2.3078,-2.3078,-2.3365,-2.3943,-2.4002,-2.4002,-2.4002,-2.4002,-2.3708,-2.3078,-2.4266,-2.5007,-2.5467,-2.7039,-2.8098,-1.6453,-1.652,-1.6687,-1.7258,-1.7061,-1.6542,-1.6046,-1.6157,-1.63,-1.5862,-1.5841,0.0,-1.623,-1.6923,0.0,0.0,0.0,0.0,-2.3143,-2.4896,-2.6046,0.0,-2.7008,0.0,-2.7984,-2.88,-2.9302,0.0,-2.9302,-2.9553,-3.0118,-3.067,-3.1072,-3.1311,-3.2139,-3.2199,-3.1418,-3.0469,-2.9137,-2.742,-2.7238,-2.7245,-2.7529,-2.7336,-2.7775,-2.8858,0.0,-2.9369,-3.0231,-2.9917,-3.0118,-3.062,-3.062,-3.0432,-3.0193,-3.0507,-3.0269,-2.9792,-2.9792,-2.9792,-2.9792,-2.9792,-2.9792,-2.9792,-2.9792,-2.9792,-2.9792,-2.9792,-2.9792,-2.9792,-2.9792,-2.9792,-2.9792,-2.9792,-2.9792,-2.9792,-2.9792,-2.9792,-2.9616,-2.9038,-2.8423,-2.7846,-2.7369,-2.703,-2.6741,-2.6559,-2.6025,-2.5192,-2.3954,-2.238,-2.1694,-2.2659,-2.2001,-2.1893,-2.2861,-2.3021,-2.3245,-2.359,-2.3662,-2.3826,-2.4292,-2.4292,-2.4118,-2.3767,-2.3767,-2.3658,-2.3514,-2.4694,-2.5638,-2.6256,-2.7801,-2.9024,-1.7785,-1.7996,-1.781,-1.7027,-1.6593,-1.6211,-1.5536,-1.5796,-1.5828,-1.4715,0.0,-1.5253,-1.4962,-1.585,-1.7106,-1.8756,0.0,-2.2317,-2.4506,-2.5272,-2.6038,-2.7243,-2.7821,-2.8348,-2.8988,-2.9503,-2.9792,-2.9792,-2.9792,-2.9993,-3.0482,-3.0997,-3.1537,-3.2089,-3.2591,-3.2128,-3.0419,-2.9965,-2.8962,-2.7436,-2.7436,-2.7788,-2.8347,-2.8347,-2.8858,-2.9792,-2.9792,-2.9829,-2.9892,-2.9829,-3.0118,-3.062,-3.062,-3.057,-3.052,-3.0729,-3.0479,-2.9998,-3.0152,-3.0152,-3.0152,-2.9998,-3.0011,-3.0011,-3.0011,-3.0011,-2.9934,-2.9869,-2.9792,-2.9792,-2.9792,-2.9792,-2.9792,-2.9792,-2.9792,-2.9792,-2.9792,-2.9856,-2.9846,-2.9478,-2.9325,-2.8944,-2.7771,-2.7531,-2.722,-2.6609,-2.6533,-2.6164,-2.53,-2.3967,-2.3081,-2.3092,-2.294,-2.2834,-2.2963,-2.3182,-2.3653,-2.4354,-2.4354,-2.44,-2.4516,-2.4516,-2.4164,-2.346,-2.346,-2.3712,-2.4279,-2.5061,-2.614,-2.7371,-2.8254,-2.9714,-1.7791,-1.8031,-1.7976,-1.781,-1.6179,-1.4696,-1.5244,-1.5089,0.0,0.0,-1.474,-1.4972,-1.4902,-1.6149,-1.7562,-1.8792,0.0,0.0,0.0,0.0,-2.6189,0.0,0.0,0.0,0.0,-2.9729,0.0,0.0,-2.9792,-2.9829,-2.993,-3.0457,-3.0984,-3.1512,-3.1637,-3.1342,-3.0562,-3.0462,-3.0059,-2.9345,-2.9345,-2.9374,-2.9534,-2.9534,-2.9624,-2.9792,-2.9792,0.0,-3.0432,-2.998,-3.0118,-3.062,-3.062,-3.0331,-3.0058,-3.1293,-3.1392,-3.1044,-3.1829,-3.2105,-3.1974,-3.118,-3.097,-3.097,-3.097,-3.097,-3.0833,-2.9998,-2.9792,-2.9792,-2.9792,-2.9792,-2.9792,-2.9792,-2.9792,-2.9792,-2.9792,-3.0419,-3.1154,-3.1825,-3.1619,-3.0864,-2.9355,-2.8786,-2.8014,-2.6665,-2.6533,-2.6465,-2.6233,-2.4945,-2.4046,-2.4013,-2.3605,-2.3646,-2.4335,-2.4453,-2.4595,-2.4709,-2.4709,-2.4999,-2.5616,-2.5616,-2.5555,-2.5432,-2.5432,-2.5497,-2.5752,-2.6505,-2.7318,-2.824,-2.9542,-3.0649,-1.7176,-1.7641,-1.7856,-1.7421,-1.5718,-1.424,-1.4651,0.0,0.0,0.0,-1.4153,-1.4461,-1.4374,-1.5735,0.0,0.0,0.0,0.0,0.0,0.0,0.0,0.0,0.0,0.0,0.0,-2.9792,-2.9792,-2.9792,-2.9792,-2.9917,-3.0206,-3.0721,-3.1135,-3.1386,-3.1135,-3.0871,-3.062,-3.0331,-3.0055,-2.9792,-2.9792,-2.9792,-2.9792,-2.9792,-2.9792,-2.9869,-3.0355,-3.0636,-3.0945,-3.1163,-3.1439,-3.1615,-3.1615,-3.1519,-3.1368,-3.2065,-3.2131,-3.196,-3.2464,-3.2593,-3.2593,-3.2664,-3.2321,-3.196,-3.196,-3.196,-3.1815,-3.1415,-3.0921,-3.0558,-3.0558,-3.0558,-3.0558,-3.0558,-3.0921,-3.1267,-3.1267,-3.1609,-3.2033,-3.2536,-3.2358,-3.1705,-3.0233,-2.9495,-2.8651,-2.7177,-2.671,-2.6314,-2.5804,-2.5558,-2.5399,-2.5411,-2.4921,-2.4735,-2.5156,-2.4971,-2.4924,-2.5332,-2.5395,-2.5508,-2.5906,-2.5906,-2.5733,-2.5345,-2.5746,-2.6139,-2.6519,-2.7769,-2.871,-2.9406,-3.0878,-3.1983,-1.6475,-1.7175,-1.7646,-1.6792,-1.5292,-1.4026,-1.4093,-1.4041,0.0,0.0,-1.3496,-1.389,-1.4059,0.0,-1.6813,0.0,0.0,0.0,0.0,0.0,0.0,0.0,0.0,0.0,0.0,-2.9792,0.0,-2.9792,-2.9792,-2.998,-3.0419,-3.0834,-3.1047,-3.1047,-3.0645,-3.0444,-3.0444,-3.0005,-2.9792,-2.9792,-2.9792,-2.9792,-2.9792,-2.9998,-3.0075,-3.0139,-3.1119,-3.1536,-3.1536,-3.2321,-3.2593,-3.2593,-3.2593,-3.2593,-3.2593,-3.282,-3.289,-3.2961,-3.3185,-3.3255,-3.3325,-3.4109,-3.3671,-3.289,-3.289,-3.289,-3.289,-3.2664,-3.2105,-3.1536,-3.1536,-3.1536,-3.1536,-3.1536,-3.2033,-3.2664,-3.289,-3.289,-3.2961,-3.3185,-3.3255,-3.2709,-3.1003,-3.0294,-2.9399,-2.7582,-2.6917,-2.637,-2.5465,-2.6025,-2.6533,-2.6533,-2.605,-2.5774,-2.5774,-2.541,-2.5407,-2.5985,-2.6035,-2.6035,-2.6035,-2.6035,-2.5756,-2.5172,-2.6024,-2.6728,-2.737,-2.888,-2.9942,-3.0584,-3.1962,-3.2933,-1.6166,-1.6773,-1.703,-1.6473,-1.5012,-1.3755,-1.381,0.0,0.0,-1.3015,-1.3113,-1.3401,-1.4427,-1.5454,-1.6711,0.0,0.0,-2.044,0.0,0.0,0.0,0.0,0.0,0.0,0.0,-2.9792,-2.9792,-2.9792,-2.9792,-2.9817,-2.9867,-2.9917,-2.9942,-2.9942,-2.9892,-2.9867,-2.9867,-2.9817,-2.9792,-2.9792,-2.9792,-2.9792,-2.9869,-3.0696,-3.1031,-3.1106,-3.2033,-3.2464,0.0,-3.2522,-3.2593,-3.2593,-3.2593,-3.2593,-3.2678,-3.3533,-3.3876,-3.4027,-3.492,-3.5213,-3.5213,-3.5359,-3.4691,-3.3876,-3.3876,-3.3876,-3.3671,-3.282,-3.2522,-3.2464,-3.2464,-3.2464,-3.2464,-3.2464,-3.2522,-3.282,-3.3671,-3.3876,-3.4109,-3.5067,-3.5213,-3.4501,-3.2082,-3.1654,-3.0607,-2.7703,-2.7243,-2.703,-2.6446,-2.6452,-2.6533,-2.6533,-2.6483,-2.6445,-2.6445,-2.6339,-2.637,-2.6438,-2.6438,-2.6438,-2.6438,-2.6438,-2.6438,-2.6382,-2.7128,-2.7983,-2.8793,-2.9742,-3.0645,-3.1409,-3.2216,-3.2933,-1.5625,-1.6156,-1.6382,-1.5475,-1.4497,-1.3734,-1.3736,0.0,-1.239,-1.3011,-1.3081,-1.3334,-1.437,-1.5412,-1.6564,0.0,-1.8387,-1.9276,-2.1296,0.0,0.0,0.0,0.0,0.0,0.0,0.0,-2.9792,-2.9792,-2.9792,-2.9792,-2.9792,-2.9792,-2.9792,-2.9792,-2.9792,-2.9792,-2.9792,-2.9792,-2.9792,-2.9792,-2.9792,-3.0075,-3.062,-3.1044,-3.1536,-3.2105,-3.3031,-3.3449,0.0,-3.4124,-3.4341,-3.4341,-3.4341,-3.4341,-3.4409,-3.4773,-3.4905,-3.4986,-3.5359,-3.5504,-3.5504,-3.5504,-3.5213,-3.4905,-3.4905,-3.4905,-3.4839,-3.4476,-3.3891,-3.3449,-3.3449,-3.3449,-3.3602,-3.4192,-3.4341,-3.4476,-3.4839,-3.4905,-3.4986,-3.5424,-3.5504,-3.4832,-3.264,-3.2014,-3.0866,-2.816,-2.7494,-2.708,-2.6596,-2.6533,-2.6533,-2.6533,-2.6533,-2.6533,-2.6533,-2.6533,-2.6533,-2.6533,-2.6533,-2.6533,-2.6533,-2.6533,-2.6533,-2.6533,-2.7802,-2.862,-2.9002,-3.0329,-3.1422,-3.216,-3.2895,-3.3531,-1.4863,-1.5331,-1.5488,-1.4659,-1.4157,-1.3861,0.0,-1.2951,-1.2384,-1.2842,-1.294,-1.3212,-1.4114,-1.521,-1.6312,0.0,-1.7655,-1.8412,-2.0069,-2.0609,0.0,0.0,0.0,0.0,0.0,-2.9264,-2.9792,-2.9792,-2.9792,-2.9792,-2.9792,-2.9792,-2.9792,-2.9792,-2.9792,-2.9792,-2.9792,-2.9792,-2.9792,-2.9792,-2.9792,-3.0279,-3.118,-3.1462,-3.2105,-3.3101,-3.4027,-3.4461,0.0,-3.5213,-3.5504,-3.5504,-3.5504,-3.5504,-3.5504,-3.5504,-3.5504,-3.5504,-3.5504,-3.5504,-3.5504,-3.5504,-3.5504,-3.5504,-3.5504,-3.5504,-3.5504,-3.5504,-3.4986,-3.4461,-3.4461,-3.4461,-3.461,-3.5359,-3.5504,-3.5504,-3.5504,-3.5504,-3.5504,-3.5504,-3.5504,-3.4854,-3.2961,-3.2318,-3.1151,-2.8489,-2.777,-2.7268,-2.6622,-2.6533,-2.6533,-2.6533,-2.6533,-2.6533,-2.6533,-2.6533,-2.6533,-2.6533,-2.6533,-2.6533,-2.6533,-2.6533,-2.6589,-2.685,-2.8233,-2.9129,-2.938,-3.0837,-3.191,-3.2602,-3.3287,-3.4087,-1.3877,-1.4097,-1.4097,-1.4087,-1.4255,-1.4258,-1.3827,-1.2975,-1.2307,-1.2386,-1.2625,-1.2997,-1.361,-1.4877,-1.5994,-1.6622,-1.7279,-1.8141,-1.9439,-2.0623,0.0,0.0,0.0,0.0,-2.7143,-2.8812,-2.9792,-2.9792,-2.9792,0.0,-2.9792,-2.9792,-2.9792,-2.9792,-2.9792,-2.9792,-2.9792,-2.9792,-2.9792,-2.9792,-2.9792,-3.0279,-3.1254,-3.2177,-3.3101,-3.4027,-3.5052,-3.5504,0.0,-3.5504,-3.5504,-3.5504,-3.5504,-3.5504,-3.5504,-3.5504,-3.5504,-3.5504,-3.5504,-3.5504,-3.5504,-3.5504,-3.5504,-3.5504,-3.5504,-3.5504,-3.5504,-3.5504,-3.5504,-3.5504,-3.5504,-3.5504,-3.5504,-3.5504,-3.5504,-3.5504,-3.5504,-3.5504,-3.5504,-3.5504,-3.5504,-3.4854,-3.2961,-3.2593,-3.1554,-2.854,-2.8097,-2.7708,-2.6672,-2.6533,-2.6533,-2.6533,-2.6533,-2.6533,-2.6533,-2.6533,-2.6533,-2.6533,-2.6533,-2.6533,-2.6533,-2.6533,-2.6837,-2.767,-2.8556,-2.9442,-3.0269,-3.1087,-3.191,-3.2602,-3.3287,-3.4301,-1.2482,-1.2821,-1.32,-1.2881,-1.3135,-1.332,-1.2927,-1.2252,-1.1936,-1.2609,-1.2775,-1.3025,-1.3842,-1.4964,-1.6308,-1.7834,-1.7915,0.0,0.0,0.0,0.0,0.0,0.0,0.0,0.0,0.0,-2.9456,-2.8688,-2.9365,-2.9792,-2.9792,-2.9792,-2.9792,-2.9792,-2.9792,-2.9792,-2.9792,-2.9792,-2.9792,-2.9792,-3.0419,-3.1254,-3.2177,-3.3101,-3.4109,-3.5052,-3.5359,-3.5504,-3.5504,-3.5504,-3.5504,-3.5504,-3.5504,-3.5504,-3.5504,-3.5504,-3.5504,-3.5504,-3.5504,-3.5504,-3.5504,-3.5504,-3.5504,-3.5504,-3.5504,-3.5504,-3.5504,-3.5504,-3.5504,-3.5504,-3.5504,-3.5504,-3.5504,-3.5504,-3.5504,-3.5504,-3.5504,-3.5504,-3.5504,-3.5504,-3.492,-3.4109,-3.282,-3.2105,-3.099,-2.8986,-2.8348,-2.7846,-2.7118,-2.676,-2.6533,-2.6533,-2.6533,-2.6533,-2.6533,-2.6533,-2.6533,-2.6533,-2.6533,-2.6533,-2.6533,-2.6533,-2.6905,-2.767,-2.8556,-2.9442,-3.0329,-3.1087,-3.191,-3.2641,-3.3735,-3.4758,-1.2637,-1.2717,-1.2583,-1.2518,-1.2922,-1.3222,-1.2512,-1.2201,-1.2068,-1.2221,-1.2457,-1.2795,-1.3459,-1.4584,-1.5787,-1.6939,-1.751,0.0,0.0,0.0,0.0,0.0,0.0,0.0,0.0,-2.9118,-2.9534,-2.8767,-2.9365,-2.9792,-2.9792,-2.9792,-2.9792,-2.9792,-2.9792,-2.9792,-2.9792,-2.9792,-2.9792,-2.9792,-3.0758,-3.1669,-3.2593,-3.3602,-3.4543,-3.5504,-3.5504,-3.5504,0.0,-3.5504,-3.5504,-3.5504,-3.5504,-3.5504,-3.5504,-3.5504,-3.5504,-3.5504,-3.5504,-3.5504,-3.5504,-3.5504,-3.5504,-3.5504,-3.5504,-3.5504,-3.5504,-3.5504,-3.5504,-3.5504,-3.5504,-3.5504,-3.5504,-3.5504,-3.5504,-3.5504,-3.5504,-3.5213,-3.492,-3.492,-3.4109,-3.3171,-3.2249,-3.1609,-3.0699,-2.9151,-2.8637,-2.8134,-2.7381,-2.6979,-2.6552,-2.5968,-2.5955,-2.5804,-2.5429,-2.6082,-2.6533,-2.6533,-2.6533,-2.6533,-2.6533,-2.6533,-2.6905,-2.767,-2.8556,-2.9442,-3.0329,-3.1422,-3.216,-3.2656,-3.3957,-3.4821,0.0,-1.3316,-1.2097,-1.2666,-1.33,-1.3513,-1.2448,-1.2465,0.0,-1.1412,-1.1753,-1.2345,-1.2692,-1.3866,-1.4773,-1.4766,-1.6487,0.0,0.0,0.0,0.0,0.0,0.0,0.0,-2.7889,-2.9088,-2.9792,-2.9702,-2.9792,-2.9792,-2.9792,-2.9792,-2.9792,-2.9792,-2.9792,-2.9792,-2.9792,-2.9869,-2.9934,-2.9934,-3.0908,-3.1888,-3.2749,-3.3671,-3.461,0.0,-3.5504,-3.5504,-3.5504,-3.5504,-3.5504,-3.5504,-3.5504,-3.5504,-3.5504,-3.5504,-3.5504,-3.5504,-3.5504,-3.5504,-3.5504,-3.5504,-3.5504,-3.5504,-3.5504,-3.5504,-3.5504,-3.5504,-3.5504,-3.5504,-3.5504,-3.5504,-3.5504,-3.5504,-3.5504,-3.5504,-3.5439,-3.4691,-3.3959,-3.3876,-3.3171,-3.2249,-3.1315,-3.1106,-3.0637,-2.9202,-2.8875,-2.84,-2.7448,-2.7176,-2.6559,-2.5111,-2.4886,-2.4492,-2.3599,-2.5205,-2.6314,-2.6383,-2.6383,-2.6452,-2.6533,-2.6533,-2.6905,-2.767,-2.862,-2.9504,-3.0329,-3.1777,-3.2547,-3.2563,-3.3893,-3.4548,-1.1552,0.0,-1.0559,-1.0738,-1.1171,-1.1482,0.0,-1.1186,-1.1207,0.0,0.0,-1.1952,-1.3103,-1.4,-1.517,-1.6969,-1.7639,-1.8299,0.0,0.0,0.0,0.0,0.0,-2.7533,-2.692,-2.8645,-2.9443,-2.8597,-2.9287,-2.9792,-2.9792,-2.9792,-2.9792,-2.9792,-2.9792,-2.9792,-2.9792,-3.0482,-3.0908,-3.0895,-3.2536,-3.3449,-3.3671,-3.4691,-3.5279,-3.5504,-3.5504,-3.5504,-3.5504,-3.5504,-3.5504,-3.5504,-3.5504,-3.5504,-3.5504,-3.5504,-3.5504,-3.5504,-3.5504,-3.5504,-3.5504,-3.5504,-3.5504,-3.5504,-3.5504,-3.5504,-3.5504,-3.5504,-3.5504,-3.5504,-3.5504,-3.5504,-3.5504,-3.5504,-3.5504,-3.5279,-3.4543,-3.4177,-3.3808,-3.3101,-3.2177,-3.1462,-3.1254,-3.062,-3.0024,-2.9603,-2.8476,-2.7548,-2.7296,-2.5878,-2.482,-2.4408,-2.4045,-2.3745,-2.3514,-2.3963,-2.4552,-2.53,-2.537,-2.5734,-2.6452,-2.6533,-2.6905,-2.767,-2.9192,-3.0072,-3.0329,-3.1248,-3.1739,-3.1811,-3.3141,-3.4067,-1.0397,-1.0967,-1.1467,-1.1519,-1.1706,-1.1854,-1.1599,0.0,0.0,0.0,0.0,0.0,-1.3028,-1.387,0.0,-1.673,-1.7571,0.0,0.0,0.0,0.0,0.0,0.0,-2.8076,0.0,-2.9131,-2.9534,-2.8937,-2.9456,-2.9792,-2.9792,-2.9792,-2.9792,-2.9792,-2.9792,-2.9792,-2.9792,-3.0771,-3.118,-3.1254,-3.3101,-3.4027,-3.4027,-3.5052,-3.5504,-3.5504,-3.5504,-3.5504,-3.5504,-3.5504,-3.5504,-3.5504,-3.5504,-3.5504,-3.5504,-3.5504,-3.5504,-3.5504,-3.5504,-3.5504,-3.5504,-3.5504,-3.5504,-3.5504,-3.5504,-3.5213,-3.4905,-3.5359,-3.5504,-3.5359,-3.492,-3.4839,-3.4691,-3.4259,-3.4192,-3.4041,-3.3463,-3.3031,-3.2593,-3.2033,-3.1193,-3.0558,-3.0558,-2.9716,-2.9028,-2.9028,-2.787,-2.6862,-2.654,-2.5576,-2.4526,-2.3623,-2.3264,-2.2864,-2.2209,-2.2553,-2.3441,-2.4933,-2.5441,-2.5955,-2.6465,-2.6533,-2.6905,-2.767,-2.9002,-2.9889,-3.0329,-3.1087,-3.1631,-3.2003,-3.3016,-3.392,-1.008,-1.1663,-1.3135,-1.2885,-1.2947,-1.2935,-1.2307,0.0,0.0,0.0,0.0,0.0,0.0,0.0,0.0,0.0,0.0,0.0,0.0,0.0,0.0,0.0,0.0,0.0,-2.9434,-2.9714,-2.9792,-2.9792,-2.9792,-2.9792,-2.9792,-2.9792,-2.9792,-2.9792,-2.9792,-2.9869,-2.9998,-3.097,-3.1462,-3.1669,-3.3394,-3.4245,-3.4245,-3.5133,-3.5504,-3.5504,0.0,0.0,-3.5504,-3.5504,-3.5504,-3.5504,-3.5504,-3.5504,-3.5504,-3.5504,-3.5504,-3.5504,-3.5504,-3.5504,-3.5504,-3.5504,-3.5504,-3.5439,-3.5294,-3.4691,-3.4177,-3.4854,-3.5067,-3.4854,-3.4027,-3.3808,-3.3602,-3.282,-3.2593,-3.2522,-3.2393,-3.1742,-3.118,-3.1044,-3.0343,-2.9714,-2.9534,-2.8767,-2.8004,-2.7844,-2.6953,-2.6068,-2.5555,-2.5282,-2.453,-2.2877,-2.2573,-2.2073,-2.0879,-2.1737,-2.3034,-2.4753,-2.577,-2.6314,-2.6452,-2.6533,-2.685,-2.7484,-2.8492,-2.938,-3.0072,-3.1132,-3.1973,-3.2527,-3.329,-3.3948,-1.0974,-1.2266,-1.286,-1.1432,-1.1795,-1.2249,-1.126,0.0,0.0,0.0,0.0,0.0,0.0,0.0,0.0,0.0,0.0,0.0,0.0,0.0,0.0,0.0,0.0,-2.8139,-2.8318,-2.9197,-2.9792,-2.9792,-2.9792,-2.9792,-2.9792,-2.9792,-2.9792,-2.9792,-2.9792,-3.0216,-3.097,-3.1888,-3.282,-3.3602,-3.4706,-3.5279,-3.5279,-3.5439,-3.5504,-3.5504,0.0,-3.5504,-3.5504,-3.5504,-3.5504,-3.5504,-3.5504,-3.5504,-3.5504,-3.5504,-3.5504,-3.5504,-3.5504,-3.5504,-3.5504,-3.5504,-3.5504,-3.5359,-3.4461,-3.4095,-3.3891,-3.3255,-3.3031,-3.3031,-3.289,-3.282,-3.282,-3.2593,-3.2593,-3.2393,-3.1609,-3.1315,-3.097,-3.0139,-2.9934,-2.9456,-2.8518,-2.8176,-2.7763,-2.6883,-2.5797,-2.5009,-2.4935,-2.3791,-2.2864,-2.2567,-2.2231,-2.1912,-2.1689,-2.3023,-2.4002,-2.4303,-2.487,-2.5581,-2.6452,-2.6533,-2.6589,-2.6658,-2.8247,-2.9066,-2.9192,-3.1319,-3.2422,-3.2542,-3.3769,-3.4382,-1.0438,-1.1713,-1.2572,-1.1795,-1.2693,-1.3517,-1.2711,0.0,0.0,0.0,0.0,0.0,0.0,0.0,0.0,0.0,0.0,0.0,0.0,0.0,0.0,0.0,0.0,-2.7436,-2.8068,-2.8597,-2.8858,-2.8858,-2.9456,-2.9792,-2.9792,-2.9792,-2.9792,-2.9792,-2.9792,-3.0495,-3.196,-3.2393,-3.3101,-3.4027,-3.4986,-3.5504,-3.5504,-3.5504,-3.5504,-3.5504,0.0,-3.5504,-3.5504,-3.5504,-3.5504,-3.5504,-3.5504,-3.5504,-3.5504,-3.5504,-3.5504,-3.5504,-3.5504,-3.5504,-3.5504,-3.5504,-3.5133,-3.461,-3.4163,-3.331,-3.2393,-3.196,-3.2249,-3.2464,-3.196,-3.1815,-3.1756,-3.1206,-3.1057,-3.0996,-3.057,-3.0419,-3.0101,-2.9094,-2.8858,-2.853,-2.7452,-2.6696,-2.6119,-2.563,-2.4628,-2.3877,-2.3877,-2.3305,-2.2764,-2.2539,-2.2344,-2.2369,-2.2747,-2.3946,-2.4888,-2.5385,-2.5645,-2.6025,-2.6452,-2.6533,-2.6714,-2.7162,-2.8363,-2.9408,-3.0171,-3.1764,-3.2886,-3.3589,-3.4188,-3.4666,-1.0125,-1.1335,-1.2434,-1.2597,0.0,-1.443,-1.4075,0.0,0.0,0.0,0.0,0.0,0.0,0.0,0.0,0.0,0.0,0.0,0.0,-2.4823,-2.5877,-2.6032,-2.621,-2.6588,-2.7328,-2.7755,-2.7997,-2.7997,-2.9123,-2.9792,-2.9792,-2.9792,-2.9792,-2.9792,-2.9792,-3.057,-3.2249,-3.2249,-3.2961,-3.4394,-3.5133,-3.5504,-3.5504,-3.5504,-3.5504,-3.5504,-3.5504,-3.5504,-3.5504,-3.5504,-3.5504,-3.5504,-3.5504,-3.5504,-3.5504,-3.5504,-3.5504,-3.5504,-3.5504,-3.5504,-3.5439,-3.5213,-3.461,-3.3945,-3.3449,-3.2321,-3.118,-3.0895,-3.1402,-3.1756,-3.1044,-3.0908,-3.0696,-3.0011,-2.9792,-2.9792,-2.9792,-2.9624,-2.9106,-2.8255,-2.7924,-2.736,-2.6295,-2.5378,-2.4702,-2.4457,-2.3637,-2.3135,-2.3135,-2.3135,-2.3018,-2.2695,-2.2656,-2.3052,-2.3934,-2.4925,-2.5948,-2.6834,-2.6798,-2.6703,-2.6841,-2.698,-2.7352,-2.8132,-2.9159,-3.0291,-3.1454,-3.2492,-3.3499,-3.4472,-3.4637,-3.4996,-1.1057,-1.1981,-1.251,-1.3083,0.0,0.0,-1.384,-1.3075,0.0,0.0,0.0,0.0,0.0,0.0,0.0,0.0,0.0,0.0,0.0,0.0,-2.5963,-2.4607,-2.5284,-2.573,-2.5461,-2.671,-2.755,-2.755,-2.8913,-2.9792,-2.9792,-2.9792,-2.9792,-2.9792,-2.9792,-3.0279,-3.1315,-3.1315,-3.2692,-3.5359,-3.5439,-3.5504,-3.5504,-3.5504,-3.5504,-3.5504,-3.5504,-3.5504,-3.5504,-3.5504,-3.5504,-3.5504,-3.5504,-3.5504,-3.5504,-3.5504,-3.5504,-3.5504,-3.5504,-3.5504,-3.5359,-3.4394,-3.4095,-3.3671,-3.196,-3.1315,-3.1044,-3.0139,-2.9934,-3.0011,-2.9934,-2.9934,-2.9856,-2.9792,-2.9792,-2.9792,-2.9792,-2.8937,-2.8176,-2.8096,-2.7279,-2.6224,-2.5126,-2.4872,-2.4457,-2.3387,-2.3135,-2.3135,-2.3135,-2.3135,-2.3125,-2.3096,-2.3096,-2.374,-2.5297,-2.6459,-2.742,-2.7949,-2.7507,-2.7457,-2.7959,-2.8347,-2.8778,-2.9389,-3.1072,-3.2025,-3.2133,-3.3617,-3.4382,-3.4487,-3.513,-3.5459,-0.9659,-1.068,-1.1606,-1.2217,0.0,0.0,0.0,0.0,0.0,0.0,0.0,0.0,0.0,0.0,0.0,0.0,0.0,0.0,-2.46,-2.5168,-2.5266,-2.4423,-2.4015,-2.3974,-2.4165,-2.4678,-2.5147,-2.5458,-2.7278,-2.8504,-2.8755,-2.9443,-2.9792,-2.9792,-2.9792,-3.0279,-3.118,-3.118,-3.2033,-3.3685,-3.4259,-3.4905,-3.5504,-3.5504,-3.5504,-3.5504,-3.5504,-3.5504,-3.5504,-3.5504,-3.5504,-3.5504,-3.5504,-3.5504,-3.5504,-3.5504,-3.5504,-3.5504,-3.5504,-3.5067,-3.4476,-3.4095,-3.3241,-3.2105,-3.1389,-3.0758,-3.0279,-2.9934,-2.9792,-2.9792,-2.9792,-2.9792,-2.9792,-2.9792,-2.9275,-2.8767,-2.8767,-2.7867,-2.6871,-2.6191,-2.5703,-2.5041,-2.3963,-2.3714,-2.3637,-2.3135,-2.3135,-2.3135,-2.3135,-2.3135,-2.3387,-2.4049,-2.5368,-2.6442,-2.7082,-2.8228,-2.8969,-2.9164,-2.8298,-2.7896,-2.8097,-2.8776,-2.9573,-3.0256,-3.1542,-3.2678,-3.3627,-3.4211,-3.4696,-3.513,-3.5385,-3.5504,-0.8981,-1.0075,-1.1205,0.0,0.0,0.0,0.0,0.0,0.0,0.0,0.0,0.0,0.0,0.0,0.0,0.0,0.0,-2.3736,-2.4412,-2.4564,-2.4319,-2.3674,-2.296,-2.2481,-2.2567,-2.3039,-2.3419,-2.3745,-2.5645,-2.6995,-2.7573,-2.8517,-2.9195,-2.9515,-2.9691,-3.0139,-3.0758,-3.0758,-3.1254,-3.2177,-3.282,-3.3602,-3.4558,-3.4558,-3.4558,-3.4624,-3.492,-3.5052,-3.5052,-3.5359,-3.5504,-3.5504,-3.5504,-3.5504,-3.5504,-3.5504,-3.5294,-3.5052,-3.5052,-3.4394,-3.3518,-3.3241,-3.2249,-3.1106,-3.0833,-3.0279,-2.9792,-2.9792,-2.9792,-2.9702,-2.9365,-2.9534,-2.9702,-2.9365,-2.8688,-2.8016,-2.7683,-2.6707,-2.5714,-2.4957,-2.4542,-2.4049,-2.3222,-2.3135,-2.3135,-2.3135,-2.3135,-2.3222,-2.3551,-2.3637,-2.4049,-2.521,-2.7023,-2.8096,-2.8096,-2.9106,-2.9792,-2.9792,-2.9339,-2.9103,-2.9103,-2.9821,-3.0705,-3.1772,-3.2745,-3.3785,-3.4801,-3.4801,-3.504,-3.5504,-3.5504,-3.5504,-0.9583,-1.0632,-1.1537,0.0,0.0,0.0,0.0,0.0,0.0,0.0,0.0,0.0,0.0,0.0,0.0,-2.0798,-2.0982,-2.1428,-2.3234,-2.3514,-2.3147,-2.2103,-2.1952,-2.1593,-2.0722,-2.2015,-2.2896,-2.2896,-2.4338,-2.5612,-2.6514,-2.7191,-2.7888,-2.885,-2.9478,-2.9792,-2.9792,-2.9792,-3.0279,-3.118,-3.118,-3.1669,-3.2593,-3.2593,-3.2593,-3.2664,-3.3602,-3.4027,-3.4095,-3.5067,-3.5504,-3.5439,-3.5504,-3.5504,-3.5439,-3.5439,-3.4839,-3.4027,-3.4027,-3.338,-3.2464,-3.1536,-3.118,-3.1044,-3.0075,-2.9792,-2.9792,-2.9792,-2.9792,-2.9534,-2.8347,-2.8937,-2.9456,-2.8347,-2.8096,-2.7763,-2.6719,-2.5546,-2.4787,-2.4787,-2.3877,-2.3135,-2.3135,-2.3135,-2.3135,-2.3135,-2.3135,-2.3551,-2.4617,-2.4787,-2.521,-2.6389,-2.7452,-2.8096,-2.8096,-2.9118,-2.9792,-2.9792,-3.0696,-3.118,-3.118,-3.1605,-3.2484,-3.3945,-3.4986,-3.5504,-3.5504,-3.5504,-3.5504,-3.5504,-3.5504,-3.5504,-0.875,-0.9715,0.0,0.0,0.0,0.0,0.0,0.0,0.0,0.0,0.0,0.0,0.0,0.0,0.0,-2.0475,-2.1296,-2.1712,-2.1983,-2.2274,-2.2113,-2.1155,-2.1011,-2.0934,-2.0644,-2.0976,-2.1419,-2.166,-2.2877,-2.4172,-2.5435,-2.6388,-2.7488,-2.8712,-2.9479,-2.9783,-2.9792,-2.9792,-2.9934,-3.0216,-3.0216,-3.1057,-3.2593,-3.2593,-3.2593,-3.2593,-3.289,-3.3031,-3.3101,-3.4041,-3.4041,-3.3547,-3.4177,-3.4041,-3.3463,-3.3463,-3.3255,-3.3031,-3.3031,-3.2393,-3.1609,-3.1315,-3.0758,-3.0139,-2.9856,-2.9275,-2.8597,-2.8597,-2.8039,-2.7383,-2.7046,-2.7221,-2.7383,-2.7046,-2.6367,-2.5692,-2.5378,-2.4382,-2.3627,-2.3627,-2.3299,-2.3135,-2.3135,-2.3135,-2.3135,-2.3135,-2.3135,-2.3551,-2.4617,-2.5462,-2.6378,-2.7522,-2.7924,-2.8426,-2.9197,-2.9624,-3.0075,-3.0758,-3.1044,-3.118,-3.118,-3.2569,-3.3554,-3.4013,-3.4986,-3.5504,-3.5504,-3.5504,-3.5504,-3.5504,-3.5504,-3.5504,-0.9062,0.0,0.0,0.0,0.0,0.0,0.0,0.0,0.0,0.0,0.0,0.0,0.0,0.0,0.0,-1.9589,-2.0296,-2.0681,-2.0759,-2.1012,-2.103,-2.0624,-2.0566,-2.0566,-2.0566,-2.0566,-2.0674,-2.0947,-2.1567,-2.2506,-2.37,-2.5047,-2.6285,-2.7507,-2.8812,-2.9479,-2.9453,-2.9679,-2.9792,-2.9792,-2.9792,-3.0355,-3.1476,-3.1476,-3.1476,-3.1476,-3.1888,-3.2249,-3.2664,-3.3241,-3.3101,-3.2664,-3.3241,-3.3101,-3.2593,-3.2593,-3.2393,-3.2033,-3.2033,-3.1402,-3.062,-3.062,-3.0279,-2.9702,-2.9275,-2.8597,-2.8016,-2.7602,-2.6964,-2.64,-2.5964,-2.5797,-2.5797,-2.5797,-2.5294,-2.4713,-2.4211,-2.3551,-2.3135,-2.3135,-2.3135,-2.3135,-2.3135,-2.3135,-2.3135,-2.3135,-2.3897,-2.4723,-2.5389,-2.6883,-2.8039,-2.8688,-2.8767,-2.9028,-2.9714,-3.0139,-3.0633,-3.118,-3.1888,-3.2321,-3.2321,-3.338,-3.4177,-3.461,-3.5213,-3.5504,-3.5504,-3.5504,-3.5504,-3.5504,-3.5504,-3.5504,-1.0032,0.0,0.0,0.0,0.0,0.0,0.0,0.0,0.0,0.0,0.0,0.0,0.0,0.0,-1.7686,-1.8457,-1.8613,-1.8906,-1.9687,-1.9863,-2.0059,-2.0459,-2.0537,-2.0566,-2.0566,-2.0566,-2.0566,-2.0566,-2.0566,-2.1011,-2.1962,-2.3231,-2.4464,-2.5668,-2.7445,-2.845,-2.8411,-2.9172,-2.9549,-2.9549,-2.9767,-2.9792,-2.9792,-2.9792,-2.9792,-2.9869,-3.0696,-3.1536,-3.2321,-3.2464,-3.2393,-3.2321,-3.2464,-3.2393,-3.2321,-3.2321,-3.1815,-3.1044,-3.0944,-3.0393,-2.9624,-2.9546,-2.9468,-2.9287,-2.8267,-2.7844,-2.7602,-2.6637,-2.6307,-2.5975,-2.4872,-2.4628,-2.4628,-2.4628,-2.4628,-2.4372,-2.3299,-2.3135,-2.3135,-2.3135,-2.3135,-2.3135,-2.3135,-2.3135,-2.3135,-2.3135,-2.5062,-2.6472,-2.6389,-2.8291,-2.9624,-2.9624,-2.9624,-2.9702,-2.9792,-3.062,-3.1254,-3.1315,-3.3031,-3.4027,-3.4095,-3.4163,-3.4543,-3.5504,-3.5504,-3.5504,-3.5504,-3.5504,-3.5504,-3.5504,-3.5504,-3.5504,0.0,-1.04,0.0,0.0,0.0,0.0,0.0,0.0,0.0,0.0,0.0,0.0,0.0,-1.7939,-1.7939,-1.8115,-1.8418,-1.8701,-1.8887,-1.9492,-1.9951,-2.0049,-2.0361,-2.0566,-2.0566,-2.0566,-2.0566,-2.0566,-2.0566,-2.1011,-2.1962,-2.1621,-2.2424,-2.4728,-2.4732,-2.4729,-2.4758,-2.6931,-2.7992,-2.7992,-2.9245,-2.9792,-2.9792,-2.9792,-2.9792,-2.9792,-2.9998,-3.0216,-3.0432,-3.118,-3.1044,-3.0508,-3.118,-3.1044,-3.0432,-3.0432,-3.0279,-2.9973,-2.9045,-2.8639,-2.8347,-2.7464,-2.7221,-2.7139,-2.6883,-2.6213,-2.5452,-2.5199,-2.4553,-2.38,-2.3551,-2.3464,-2.3464,-2.3464,-2.3464,-2.3387,-2.3135,-2.3135,-2.3135,-2.3135,-2.3135,-2.3135,-2.3135,-2.3135,-2.3135,-2.3135,-2.5062,-2.6141,-2.5294,-2.7105,-2.8426,-2.8426,-2.8426,-2.8858,-2.9702,-3.062,-3.1536,-3.2249,-3.338,-3.4327,-3.5133,-3.5213,-3.5279,-3.5504,-3.5504,-3.5504,-3.5504,-3.5504,-3.5504,-3.5504,-3.5504,-3.5504,0.0,0.0,0.0,0.0,0.0,0.0,0.0,0.0,0.0,0.0,0.0,0.0,0.0,-1.8008,-1.8008,-1.8008,-1.8193,-1.8408,-1.8533,-1.9023,-1.9385,-1.959,-1.999,-2.0254,-2.0254,-2.0439,-2.0566,-2.0566,-2.0566,-2.0789,-2.1298,-2.1298,-2.192,-2.3242,-2.3687,-2.3906,-2.3919,-2.6042,-2.7227,-2.7502,-2.8744,-2.9528,-2.9792,-2.9792,-2.9792,-2.9792,-2.9792,-2.9792,-2.9869,-3.0355,-3.0203,-2.9869,-3.0343,-2.9871,-2.9028,-2.9028,-2.87,-2.8131,-2.7533,-2.736,-2.7197,-2.6719,-2.6483,-2.64,-2.588,-2.5294,-2.4702,-2.4125,-2.3963,-2.3877,-2.3877,-2.4307,-2.4553,-2.4049,-2.3464,-2.3135,-2.3135,-2.3135,-2.3135,-2.3135,-2.3135,-2.3135,-2.3135,-2.3135,-2.3135,-2.3135,-2.4553,-2.5462,-2.4872,-2.6767,-2.8096,-2.8096,-2.8597,-2.9328,-3.0419,-3.1328,-3.2249,-3.3241,-3.4177,-3.4986,-3.5504,-3.5504,-3.5504,-3.5504,-3.5504,-3.5504,-3.5504,-3.5504,-3.5504,-3.5504,-3.5504,-3.5504,0.0,0.0,0.0,0.0,0.0,0.0,0.0,0.0,0.0,0.0,0.0,0.0,-1.8008,-1.8008,-1.8008,-1.8008,-1.8008,-1.8056,-1.8257,-1.8293,-1.8475,-1.8904,-1.9319,-1.9655,-1.9805,-2.0195,-2.0449,-2.0449,-2.0518,-2.0566,-2.0566,-2.1375,-2.1735,-2.1735,-2.3005,-2.3666,-2.3666,-2.521,-2.6306,-2.6984,-2.8186,-2.9089,-2.9641,-2.9641,-2.9691,-2.9792,-2.9792,-2.9792,-2.9792,-2.9792,-2.9702,-2.9534,-2.9534,-2.8858,-2.7844,-2.7844,-2.729,-2.6483,-2.6307,-2.6224,-2.6141,-2.5975,-2.6058,-2.6058,-2.5126,-2.4957,-2.4882,-2.3973,-2.4382,-2.5126,-2.5126,-2.5797,-2.6224,-2.5294,-2.4211,-2.3299,-2.3135,-2.3135,-2.3135,-2.3135,-2.3135,-2.3135,-2.3135,-2.3135,-2.3135,-2.3135,-2.4049,-2.4787,-2.4787,-2.6767,-2.8096,-2.8096,-2.9106,-3.0216,-3.1106,-3.2033,-3.3031,-3.3945,-3.492,-3.5504,-3.5504,-3.5504,-3.5504,-3.5504,-3.5504,-3.5504,-3.5504,-3.5504,-3.5504,-3.5504,-3.5504,-3.5504,0.0,0.0,0.0,0.0,0.0,0.0,0.0,0.0,0.0,0.0,0.0,-1.8008,-1.8008,-1.8008,-1.8008,-1.8008,-1.8008,-1.7735,-1.6987,-1.7177,-1.7423,-1.7478,-1.7908,-1.8462,-1.9292,-1.9746,-2.0,-2.0,-2.0352,-2.0566,-2.0566,-2.0712,-2.0789,-2.0789,-2.0994,-2.1101,-2.1101,-2.2594,-2.3853,-2.4759,-2.7127,-2.8499,-2.9038,-2.9038,-2.9315,-2.9792,-2.9792,-2.9792,-2.9792,-2.9792,-2.9197,-2.8347,-2.8347,-2.7695,-2.6719,-2.6719,-2.6637,-2.6389,-2.5378,-2.5041,-2.4872,-2.3887,-2.4211,-2.5041,-2.4872,-2.5462,-2.6224,-2.6058,-2.6141,-2.6307,-2.6307,-2.6389,-2.6472,-2.6307,-2.5378,-2.4296,-2.3299,-2.3135,-2.3135,-2.3135,-2.3135,-2.3135,-2.3135,-2.3135,-2.3135,-2.3135,-2.4049,-2.4787,-2.4787,-2.6767,-2.8096,-2.8096,-2.9106,-3.0216,-3.1106,-3.2033,-3.3031,-3.3945,-3.492,-3.5504,-3.5504,-3.5504,-3.5504,-3.5504,-3.5504,-3.5504,-3.5504,-3.5504,-3.5504,-3.5504,-3.5504,-3.5504,-0.8711,-1.0179,0.0,0.0,0.0,0.0,0.0,0.0,0.0,0.0,0.0,-1.7734,-1.7969,-1.8008,-1.8008,-1.8008,-1.8008,-1.7647,-1.6706,-1.672,-1.6838,-1.6838,-1.727,-1.7888,-1.8844,-1.9316,-1.9561,-1.9561,-1.9961,-2.0195,-2.0195,-2.0439,-2.0566,-2.0566,-2.0566,-2.0566,-2.0566,-2.1799,-2.3297,-2.5152,-2.6586,-2.7681,-2.8461,-2.8461,-2.895,-2.9792,-2.9792,-2.9443,-2.8858,-2.8858,-2.8187,-2.7197,-2.7197,-2.6543,-2.5546,-2.5546,-2.5136,-2.4563,-2.4049,-2.4296,-2.4702,-2.4211,-2.4798,-2.5714,-2.5714,-2.6141,-2.6483,-2.6483,-2.6964,-2.7371,-2.7371,-2.7867,-2.8211,-2.7533,-2.7023,-2.6356,-2.5221,-2.4467,-2.4221,-2.4893,-2.3973,-2.3299,-2.3963,-2.3551,-2.3135,-2.3135,-2.3551,-2.4049,-2.4702,-2.6202,-2.7441,-2.8016,-2.9601,-3.0983,-3.1888,-3.282,-3.3822,-3.4758,-3.5279,-3.5504,-3.5504,-3.5504,-3.5504,-3.5504,-3.5504,-3.5504,-3.5504,-3.5504,-3.5504,-3.5504,-3.5504,-3.5504,-0.9121,-1.008,-1.0766,-1.2706,0.0,0.0,0.0,0.0,0.0,0.0,-1.6645,-1.7178,-1.7607,-1.7861,-1.8008,-1.8008,-1.8008,-1.7579,-1.6428,-1.6428,-1.6489,-1.628,-1.6696,-1.7392,-1.8337,-1.8867,-1.9121,-1.9121,-1.9512,-1.9805,-1.9902,-2.0225,-2.0449,-2.0634,-2.0566,-2.0566,-2.0566,-2.1517,-2.3088,-2.5248,-2.587,-2.6822,-2.7896,-2.7896,-2.8423,-2.9377,-2.9515,-2.9151,-2.8505,-2.8255,-2.7441,-2.6483,-2.6483,-2.5797,-2.4872,-2.5126,-2.4713,-2.3973,-2.3973,-2.4553,-2.521,-2.521,-2.5964,-2.6883,-2.6883,-2.7128,-2.7313,-2.7313,-2.7947,-2.8518,-2.8518,-2.9184,-2.9624,-2.8767,-2.8335,-2.7844,-2.6719,-2.563,-2.5126,-2.6307,-2.4648,-2.3464,-2.4628,-2.3887,-2.3135,-2.3135,-2.3387,-2.3963,-2.5126,-2.6213,-2.7441,-2.8785,-3.0253,-3.1669,-3.289,-3.3602,-3.4394,-3.5439,-3.5504,-3.5504,-3.5504,-3.5504,-3.5504,-3.5504,-3.5504,-3.5504,-3.5504,-3.5504,-3.5504,-3.5504,-3.5668,-3.5782,-0.7881,-0.8525,0.0,0.0,0.0,0.0,0.0,0.0,0.0,0.0,-1.6164,-1.6269,-1.6719,-1.7461,-1.8008,-1.8008,-1.8008,-1.7373,-1.5517,-1.607,-1.6289,-1.5376,-1.6097,-1.7028,-1.7969,-1.8418,-1.8672,-1.8672,-1.9072,-1.9492,-1.9893,-1.9932,-2.0137,-2.0557,-2.0566,-2.0566,-2.0566,-2.1517,-2.2563,-2.3632,-2.4622,-2.5863,-2.7318,-2.7318,-2.7645,-2.8222,-2.875,-2.9201,-2.9624,-2.8518,-2.7441,-2.6483,-2.6483,-2.5797,-2.4957,-2.5975,-2.6389,-2.6307,-2.6307,-2.6389,-2.6389,-2.6389,-2.7128,-2.8004,-2.8004,-2.8767,-2.9624,-2.9624,-2.9702,-2.9702,-2.9702,-2.9792,-2.9792,-2.9714,-2.8858,-2.7844,-2.6719,-2.563,-2.5126,-2.6307,-2.4648,-2.3464,-2.4628,-2.3887,-2.3135,-2.3135,-2.4049,-2.5126,-2.6224,-2.736,-2.8785,-3.0794,-3.1167,-3.196,-3.3739,-3.3959,-3.4394,-3.5439,-3.5504,-3.5504,-3.5504,-3.5504,-3.5504,-3.5504,-3.5504,-3.5504,-3.5504,-3.5504,-3.5504,-3.5504,-3.6228,-3.6554,-0.7344,-0.835,0.0,0.0,0.0,0.0,0.0,0.0,0.0,0.0,-1.5459,-1.5781,-1.6221,-1.7021,-1.7607,-1.7607,-1.7832,-1.7579,-1.6289,-1.6358,-1.6498,-1.614,-1.6419,-1.6991,-1.794,-1.8144,-1.8232,-1.8232,-1.8633,-1.8936,-1.9082,-1.9365,-1.9707,-2.0137,-2.0146,-2.0283,-2.0566,-2.0934,-2.1897,-2.3514,-2.3891,-2.5016,-2.6753,-2.6753,-2.7055,-2.7595,-2.7783,-2.799,-2.8167,-2.7753,-2.715,-2.6483,-2.6483,-2.5797,-2.4957,-2.6058,-2.6058,-2.5546,-2.6224,-2.6964,-2.7522,-2.7522,-2.8267,-2.9197,-2.9197,-2.9456,-2.9792,-2.9792,-2.9792,-2.9792,-2.9792,-2.9792,-2.9624,-2.8858,-2.8426,-2.7844,-2.6719,-2.563,-2.5368,-2.7186,-2.5703,-2.4296,-2.4702,-2.3887,-2.3387,-2.4049,-2.4542,-2.5452,-2.7279,-2.7844,-2.8863,-3.0944,-3.1742,-3.2593,-3.3876,-3.461,-3.5133,-3.5504,-3.5504,-3.5504,-3.5504,-3.5504,-3.5504,-3.5504,-3.5504,-3.5504,-3.5504,-3.5504,-3.5504,-3.5504,-3.5782,-3.5894,-0.6826,0.0,0.0,0.0,0.0,0.0,0.0,0.0,0.0,0.0,-1.4733,-1.5052,-1.5576,-1.6348,-1.7041,-1.7334,-1.7617,-1.7494,-1.6688,-1.6853,-1.6922,-1.6636,-1.6853,-1.7285,-1.794,-1.8008,-1.8008,-1.8008,-1.8271,0.0,-1.8562,-1.8906,-1.9268,-1.9697,-1.9844,-2.0059,-2.0342,-2.0854,-2.1897,-2.3514,-2.3818,-2.4909,-2.6533,-2.6533,-2.6653,-2.7005,-2.7005,-2.7247,-2.7545,-2.7394,-2.712,-2.6806,-2.6977,-2.6532,-2.6036,-2.7209,-2.7128,-2.6625,-2.7383,-2.8039,-2.8688,-2.8688,-2.9197,-2.9792,-2.9792,-2.9792,-2.9792,-2.9792,-2.9792,-2.9792,-2.9792,-2.9534,-2.8949,-2.7855,-2.7267,-2.6942,-2.6554,-2.588,-2.5797,-2.7279,-2.5786,-2.4382,-2.4702,-2.3887,-2.3474,-2.4628,-2.5126,-2.6191,-2.8275,-2.8917,-2.9923,-3.1947,-3.2678,-3.3463,-3.4394,-3.5133,-3.5504,-3.5504,-3.5504,-3.5504,-3.5504,-3.5504,-3.5504,-3.5504,-3.5504,-3.5504,-3.5504,-3.5504,-3.5504,-3.5504,-3.5718,-3.6022,0.0,0.0,0.0,0.0,0.0,0.0,0.0,0.0,0.0,-1.3661,-1.3912,-1.3969,-1.4644,-1.5459,-1.637,-1.7178,-1.7344,-1.7225,-1.6693,-1.7404,-1.7628,-1.6757,-1.7423,-1.8008,-1.8008,-1.8008,-1.8008,-1.8008,-1.8008,-1.8184,-1.8523,-1.8562,-1.8828,-1.9248,-1.9687,-1.9912,-1.9912,-2.1367,-2.2553,-2.3588,-2.4564,-2.5511,-2.6533,-2.6533,-2.6533,-2.6533,-2.6533,-2.7067,-2.8024,-2.7545,-2.7299,-2.7359,-2.7973,-2.8096,-2.8255,-2.9365,-2.9792,-2.9792,-2.9792,-2.9792,-2.9792,-2.9792,-2.9792,-2.9792,-2.9792,-2.9792,-2.9792,-2.9792,-2.9792,-2.9792,-2.9792,-2.8858,-2.7763,-2.6719,-2.563,-2.5126,-2.6141,-2.64,-2.6472,-2.6472,-2.4638,-2.3464,-2.4542,-2.379,-2.3464,-2.4702,-2.5797,-2.7244,-2.9297,-3.0517,-3.1888,-3.3808,-3.4027,-3.4394,-3.5424,-3.5504,-3.5504,-3.5504,-3.5504,-3.5504,-3.5504,-3.5504,-3.5504,-3.5504,-3.5504,-3.5504,-3.5504,-3.5504,-3.5504,-3.5504,-3.6228,-3.698,-0.7041,0.0,0.0,0.0,0.0,0.0,0.0,0.0,0.0,-1.2793,-1.27,-1.2632,-1.4034,-1.4766,-1.5312,-1.5869,-1.6494,-1.6815,-1.6663,-1.7222,-1.7482,-1.7207,-1.7678,-1.8008,-1.8008,-1.8008,-1.8008,0.0,-1.8008,-1.8057,-1.8174,-1.8467,-1.8691,-1.8818,-2.0244,-2.0999,-2.0999,-2.239,-2.3588,-2.4564,-2.4862,-2.5511,-2.6533,-2.6533,-2.6533,-2.6533,-2.6533,-2.6697,-2.6992,-2.763,-2.8089,-2.8496,-2.9065,-2.8858,-2.8255,-2.9365,-2.9287,-2.8688,-2.9534,-2.9792,-2.9792,-2.9792,-2.9792,-2.9792,-2.9792,-2.9792,-2.9792,-2.9792,-2.9792,-2.9624,-2.8767,-2.7186,-2.5619,-2.5378,-2.5041,-2.4617,-2.4135,-2.4723,-2.5294,-2.5294,-2.4798,-2.4125,-2.3637,-2.3299,-2.381,-2.5724,-2.6307,-2.7487,-3.0366,-3.1005,-3.1888,-3.3808,-3.4027,-3.4394,-3.5424,-3.5504,-3.5504,-3.5504,-3.5504,-3.5504,-3.5504,-3.5504,-3.5504,-3.5504,-3.5504,-3.5504,-3.5504,-3.5504,-3.5504,-3.5504,-3.5733,-3.5894,-0.7812,0.0,0.0,0.0,0.0,0.0,-1.0538,-0.9986,0.0,0.0,-1.213,-1.2143,-1.3588,-1.4219,-1.459,-1.4834,-1.5459,-1.6103,-1.666,-1.6953,-1.7109,-1.7109,-1.7324,-1.7549,-1.7734,-1.7744,-1.7822,-1.7998,-1.8008,-1.8008,-1.8008,-1.8242,-1.8379,-1.8379,-1.9919,-2.0778,-2.0778,-2.2793,-2.4095,-2.4683,-2.5332,-2.5955,-2.6533,-2.6533,-2.6533,-2.6533,-2.6533,-2.6533,-2.6596,-2.7406,-2.8084,-2.8637,-2.9214,-2.9155,-2.8858,-2.9546,-2.9365,-2.8937,-2.9534,-2.9792,-2.9792,-2.9792,-2.9792,-2.9792,-2.9792,-2.9792,-2.9792,-2.9792,-2.9456,-2.87,-2.7105,-2.5786,-2.4702,-2.4211,-2.4125,-2.3877,-2.3222,-2.3637,-2.4125,-2.4125,-2.4125,-2.3877,-2.3222,-2.3464,-2.4382,-2.6224,-2.7244,-2.8712,-3.1436,-3.2105,-3.2961,-3.4461,-3.4624,-3.4839,-3.5439,-3.5504,-3.5504,-3.5504,-3.5504,-3.5504,-3.5504,-3.5504,-3.5504,-3.5504,-3.5504,-3.5504,-3.5504,-3.5504,-3.5504,-3.5504,-3.5504,-3.5504,-0.876,-0.8936,0.0,0.0,-0.9469,0.0,-1.091,-0.9935,-0.9298,0.0,0.0,-1.1893,-1.3093,-1.3682,-1.3922,-1.3883,-1.4365,-1.5137,-1.6348,-1.6592,-1.666,-1.666,-1.6636,-1.6885,-1.7275,-1.7314,-1.748,-1.791,-1.7978,-1.8008,-1.8008,-1.8008,-1.8008,-1.8008,-1.9342,-2.0039,-2.0039,-2.2926,-2.4369,-2.4369,-2.5834,-2.6533,-2.6533,-2.6533,-2.6533,-2.6533,-2.6533,-2.6533,-2.6571,-2.6979,-2.7557,-2.816,-2.8712,-2.9289,-2.9792,-2.9792,-2.9792,-2.9792,-2.9792,-2.9792,-2.9792,-2.9792,-2.9792,-2.9792,-2.9792,-2.9792,-2.9792,-2.9624,-2.8688,-2.7267,-2.5284,-2.4713,-2.4372,-2.3299,-2.3135,-2.3135,-2.3135,-2.3135,-2.3135,-2.3135,-2.3135,-2.3135,-2.3299,-2.4125,-2.521,-2.6472,-2.8318,-3.0213,-3.2365,-3.3449,-3.4394,-3.5359,-3.5504,-3.5504,-3.5504,-3.5504,-3.5504,-3.5504,-3.5504,-3.5504,-3.5504,-3.5504,-3.5504,-3.5504,-3.5504,-3.5504,-3.5504,-3.5504,-3.5504,-3.5504,-3.5504,-3.5504,-1.0439,-1.0478,-1.0498,-1.0332,0.0,0.0,-0.957,-0.9197,-0.9253,0.0,-1.0387,-1.0494,-1.1752,-1.2588,-1.3008,-1.2608,-1.3484,-1.4473,-1.5078,-1.5762,-1.6191,-1.6191,-1.6514,-1.6768,-1.6855,-1.6855,-1.7041,-1.7471,-1.7822,-1.8008,-1.8008,-1.8008,-1.8008,-1.8008,-2.0009,-2.1119,-2.1119,-2.3941,-2.5319,-2.5331,-2.6108,-2.6533,-2.6533,-2.6533,-2.6533,-2.6533,-2.6533,-2.6533,-2.6533,-2.6647,-2.7205,-2.816,-2.8712,-2.9289,-2.9792,-2.9792,-2.9792,-2.9792,-2.9792,-2.9792,-2.9792,-2.9792,-2.9792,-2.9792,-2.9792,-2.9792,-2.9624,-2.8688,-2.7023,-2.5368,-2.4872,-2.4125,-2.3387,-2.3135,-2.3135,-2.3135,-2.3135,-2.3135,-2.3135,-2.3135,-2.3135,-2.3387,-2.4296,-2.4617,-2.5452,-2.7522,-2.879,-3.0213,-3.2365,-3.3449,-3.4394,-3.5359,-3.5504,-3.5504,-3.5504,-3.5504,-3.5504,-3.5504,-3.5504,-3.5504,-3.5504,-3.5504,-3.5504,-3.5504,-3.5504,-3.5504,-3.5504,-3.5504,-3.5504,-3.5504,-3.5504,-3.5504,-1.1299,-1.123,-1.1182,-1.1018,0.0,0.0,0.0,-0.96,-0.9611,-1.0742,-1.0456,-1.0404,-1.1645,0.0,-1.2227,-1.2227,-1.3075,-1.3818,-1.3838,-1.4561,-1.5098,-1.5098,-1.5488,-1.584,-1.6055,-1.6269,-1.6582,-1.7021,-1.7451,-1.7695,-1.7695,-1.79,-1.8008,-1.8008,-1.953,-2.0567,-2.1025,-2.3096,-2.4517,-2.5222,-2.5774,-2.6189,-2.6533,-2.6533,-2.6533,-2.6533,-2.6533,-2.6245,-2.5734,-2.5734,-2.59,-2.628,-2.7294,-2.8081,-2.866,-2.8839,-2.9287,-2.9792,-2.9792,-2.9792,-2.9792,-2.9792,-2.9792,-2.9792,-2.9792,-2.9365,-2.8609,-2.6942,-2.5692,-2.4702,-2.4125,-2.3551,-2.3135,-2.3135,-2.3135,-2.3135,-2.3135,-2.3551,-2.3963,-2.3963,-2.4382,-2.4808,-2.4787,-2.5692,-2.6989,-2.8567,-3.0087,-3.1589,-3.3087,-3.4177,-3.492,-3.5439,-3.5504,-3.5504,-3.5504,-3.5504,-3.5504,-3.5504,-3.5504,-3.5504,-3.5504,-3.5504,-3.5504,-3.5504,-3.5504,-3.5504,-3.5504,-3.5504,-3.5504,-3.5504,-3.5504,-3.5504,0.0,-1.192,-1.192,0.0,0.0,-1.0762,0.0,0.0,0.0,-1.1155,-1.0871,0.0,0.0,0.0,0.0,0.0,0.0,0.0,0.0,-1.3232,0.0,-1.3941,-1.4394,-1.4795,-1.5137,-1.5478,-1.5947,-1.6562,-1.6855,-1.7119,-1.7373,-1.7705,-1.7988,-1.8269,-1.8911,-1.9694,-2.059,-2.18,-2.3195,-2.4549,-2.5058,-2.5752,-2.6533,-2.6533,-2.6383,-2.6233,-2.6233,-2.5652,-2.4707,-2.4707,-2.4349,-2.4002,-2.5518,-2.6635,-2.7538,-2.7877,-2.876,-2.9792,-2.9792,-2.9792,-2.9792,-2.9792,-2.9624,-2.9456,-2.9456,-2.853,-2.7093,-2.5284,-2.4617,-2.4296,-2.3299,-2.3135,-2.3135,-2.3135,-2.3299,-2.3474,-2.3474,-2.4296,-2.5126,-2.5126,-2.6047,-2.6543,-2.5619,-2.693,-2.8457,-2.963,-3.1383,-3.2961,-3.3876,-3.4905,-3.5504,-3.5504,-3.5504,-3.5504,-3.5504,-3.5504,-3.5504,-3.5504,-3.5504,-3.5504,-3.5504,-3.5504,-3.5504,-3.5504,-3.5504,-3.5504,-3.5504,-3.5504,-3.5504,-3.5504,-3.5504,-3.5504,0.0,0.0,0.0,0.0,-1.2126,0.0,0.0,0.0,-1.0703,-1.0469,0.0,0.0,0.0,0.0,0.0,0.0,0.0,0.0,-1.125,-1.1895,-1.2676,-1.3486,-1.3955,-1.4175,-1.4223,-1.4326,-1.4853,-1.6105,-1.583,-1.6152,-1.7324,-1.7432,-1.8005,-1.91,-1.9243,-1.9694,-2.059,-2.1215,-2.2243,-2.3646,-2.4218,-2.5171,-2.6533,-2.6533,-2.6025,-2.5158,-2.5158,-2.4636,-2.3672,-2.3672,-2.3106,-2.238,-2.3916,-2.5761,-2.7502,-2.755,-2.8533,-2.9792,-2.9792,-2.9792,-2.9792,-2.9792,-2.9106,-2.8267,-2.8267,-2.6849,-2.5115,-2.4872,-2.4039,-2.3299,-2.3135,-2.3135,-2.3135,-2.3135,-2.3887,-2.4628,-2.4628,-2.5462,-2.6307,-2.6307,-2.7197,-2.7844,-2.7763,-2.7924,-2.8785,-3.0693,-3.1947,-3.2961,-3.3876,-3.4905,-3.5504,-3.5504,-3.5504,-3.5504,-3.5504,-3.5504,-3.5504,-3.5504,-3.5504,-3.5504,-3.5504,-3.5504,-3.5504,-3.5504,-3.5504,-3.5504,-3.5504,-3.5504,-3.5504,-3.5504,-3.5504,-3.5504,0.0,0.0,0.0,0.0,0.0,0.0,-1.0693,0.0,-1.0928,0.0,0.0,0.0,0.0,0.0,0.0,0.0,-1.1602,0.0,0.0,0.0,-1.1689,0.0,0.0,0.0,-1.3721,-1.3769,-1.4251,-1.5442,-1.5599,-1.6005,-1.6799,-1.7579,-1.8086,-1.8213,-1.8398,-1.8977,-1.9824,-2.0084,-2.0886,-2.2313,-2.273,-2.3456,-2.4413,-2.4625,-2.4552,-2.412,-2.412,-2.3588,-2.2627,-2.2627,-2.2038,-2.1242,-2.1886,-2.3272,-2.4948,-2.6073,-2.6916,-2.7715,-2.9266,-2.9365,-2.8767,-2.8767,-2.8518,-2.7844,-2.6603,-2.5535,-2.4617,-2.3963,-2.3464,-2.3135,-2.3135,-2.3551,-2.4125,-2.4125,-2.4967,-2.5797,-2.5797,-2.6625,-2.7441,-2.7441,-2.8359,-2.9106,-2.9106,-2.9524,-3.0392,-3.1802,-3.282,-3.3754,-3.4758,-3.5213,-3.5504,-3.5504,-3.5504,-3.5504,-3.5504,-3.5504,-3.5504,-3.5504,-3.5504,-3.5504,-3.5504,-3.5504,-3.5504,-3.5504,-3.5504,-3.5504,-3.5504,-3.5504,-3.5504,-3.5504,-3.5504,-3.5504,-1.3086,0.0,0.0,0.0,0.0,0.0,0.0,0.0,0.0,0.0,0.0,0.0,0.0,0.0,0.0,0.0,0.0,-1.1302,0.0,0.0,0.0,0.0,0.0,0.0,0.0,-1.3155,-1.3609,-1.5018,-1.5277,-1.5775,-1.6666,-1.7504,-1.7988,-1.8049,-1.7932,-1.8285,-1.9299,-1.9044,-1.9663,-2.1063,-2.147,-2.2107,-2.2891,-2.3301,-2.3368,-2.3073,-2.3073,-2.2553,-2.1593,-2.1593,-2.1221,-2.0566,-2.0566,-2.1288,-2.2512,-2.4451,-2.5609,-2.653,-2.8597,-2.8767,-2.8096,-2.8096,-2.7683,-2.693,-2.5284,-2.4617,-2.4125,-2.3299,-2.3135,-2.3135,-2.3464,-2.4211,-2.4872,-2.521,-2.613,-2.6964,-2.6964,-2.7775,-2.8597,-2.8597,-2.9197,-2.9792,-2.9792,-3.0343,-3.1119,-3.2105,-3.282,-3.3671,-3.492,-3.5067,-3.5213,-3.5439,-3.5504,-3.5504,-3.5504,-3.5504,-3.5504,-3.5504,-3.5504,-3.5504,-3.5504,-3.5504,-3.5504,-3.5504,-3.5504,-3.5504,-3.5504,-3.5504,-3.5504,-3.5504,-3.5504,-3.5504,0.0,0.0,0.0,-1.2047,0.0,0.0,0.0,0.0,-1.1704,0.0,0.0,0.0,0.0,0.0,0.0,0.0,0.0,0.0,0.0,0.0,0.0,0.0,0.0,0.0,0.0,-1.2223,-1.2696,0.0,-1.441,-1.4971,-1.7357,-1.6818,-1.7456,-1.9537,-1.8199,-1.8041,-1.9299,-1.8462,-1.8751,-2.0128,-2.0603,-2.1555,-2.2891,-2.3301,-2.2999,-2.2027,-2.2027,-2.1517,-2.0644,-2.0644,-2.0644,-2.0566,-2.0566,-2.0654,-2.0918,-2.287,-2.5228,-2.7484,-2.7997,-2.8096,-2.8096,-2.8096,-2.6685,-2.4872,-2.4787,-2.4049,-2.3135,-2.3135,-2.3135,-2.3387,-2.4457,-2.4787,-2.5041,-2.6141,-2.7279,-2.8016,-2.8016,-2.8937,-2.9714,-2.9714,-2.9792,-2.9792,-2.9792,-2.9792,-3.0139,-3.1106,-3.1241,-3.196,-3.3808,-3.4027,-3.4394,-3.5424,-3.5504,-3.5504,-3.5504,-3.5504,-3.5504,-3.5504,-3.5504,-3.5504,-3.5504,-3.5504,-3.5504,-3.5504,-3.5504,-3.5504,-3.5504,-3.5504,-3.5504,-3.5504,-3.5504,-3.5504,-1.3912,-1.4443,-1.457,-1.2861,0.0,0.0,0.0,0.0,0.0,0.0,0.0,0.0,0.0,0.0,0.0,0.0,0.0,0.0,0.0,0.0,0.0,0.0,0.0,0.0,0.0,0.0,0.0,-1.4271,-1.4861,0.0,-1.6009,-1.6731,-1.7184,-1.7297,-1.7382,-1.7711,-1.8462,-1.8144,-1.8213,-1.8692,-1.9123,-1.9778,-2.0504,-2.0946,-2.11,-2.1078,-2.1078,-2.0857,-2.0566,-2.0566,-2.0934,-2.1517,-2.1517,-2.1962,-2.2671,-2.4094,-2.4713,-2.5182,-2.7298,-2.8597,-2.8949,-2.7533,-2.6543,-2.563,-2.4135,-2.3387,-2.3222,-2.4049,-2.4211,-2.4457,-2.5641,-2.6449,-2.7105,-2.7441,-2.8438,-2.9197,-2.9197,-2.9534,-2.9792,-2.9792,-2.9792,-2.9792,-2.9792,-2.9792,-3.0139,-3.1044,-3.1742,-3.2393,-3.2961,-3.3602,-3.4095,-3.4461,-3.5133,-3.5504,-3.5504,-3.5504,-3.5504,-3.5504,-3.5504,-3.5504,-3.5504,-3.5504,-3.5504,-3.5504,-3.5504,-3.5504,-3.5504,-3.5504,-3.5504,-3.5504,-3.5504,-3.5504,-1.459,-1.499,-1.5117,-1.3867,-1.3965,0.0,-1.2578,0.0,-1.3203,0.0,0.0,0.0,0.0,0.0,0.0,0.0,0.0,0.0,0.0,-0.9432,0.0,0.0,0.0,0.0,0.0,0.0,-1.3212,-1.4458,-1.4969,0.0,0.0,-1.6501,-1.6763,-1.6276,-1.6815,-1.7353,-1.7783,-1.7939,-1.8008,-1.8018,-1.8437,-1.8867,-1.9307,-1.9727,-2.0156,-2.0566,-2.0566,-2.0566,-2.0566,-2.0566,-2.0934,-2.1517,-2.1886,-2.2403,-2.3097,-2.4368,-2.4882,-2.5193,-2.7798,-2.8937,-2.8949,-2.7533,-2.6801,-2.6235,-2.4723,-2.4307,-2.4467,-2.521,-2.5378,-2.563,-2.6789,-2.7602,-2.8176,-2.8597,-2.9287,-2.9792,-2.9792,-2.9792,-2.9792,-2.9792,-2.9792,-2.9792,-2.9792,-2.9792,-2.9998,-3.062,-3.1193,-3.1683,-3.2033,-3.289,-3.3602,-3.3959,-3.4905,-3.5504,-3.5504,-3.5504,-3.5504,-3.5504,-3.5504,-3.5504,-3.5504,-3.5504,-3.5504,-3.5504,-3.5504,-3.5504,-3.5504,-3.5504,-3.5504,-3.5504,-3.5504,-3.5604]}]]